[[{"header":{"parameterUnit":"m.s-1","parameterCategory":1,"la1":31.0,"la2":29.5877,"lo1":-88.7671,"lo2":-86.6584,"dy":0.0162,"dx":0.0185,"nx":115,"ny":88,"refTime":"2024-03-02T06:00:00:Z","depth":0,"parameterNumber":2,"parameterNumberName":"U-component_of_WINDS"},"data":[0.0,0.0,0.0,0.0,0.0,0.0,0.0,0.0,0.0,0.0,0.0,0.0,0.0,0.0,0.0,0.0,0.0,0.0,0.0,0.0,0.0,0.0,0.0,0.0,0.0,0.0,0.0,0.0,0.0,0.0,0.0,0.0,0.0,0.0,0.0,0.0,0.0,0.0,0.0,0.0,0.0,0.0,0.0,0.0,0.0,0.0,0.0,0.0,0.0,0.0,0.0,0.0,0.0,0.0,0.0,0.0,0.0,0.0,0.0,0.0,0.0,0.0,0.0,0.0,0.0,0.0,0.0,0.0,0.0,0.0,0.0,0.0,0.0,0.0,0.0,0.0,0.0,0.0,0.0,0.0,0.0,0.0,0.0,0.0,0.0,0.0,0.0,0.0,0.0,0.0,0.0,0.0,0.0,0.0,0.0,0.0,0.0,0.0,0.0,0.0,0.0,0.0,0.0,0.0,0.0,0.0,0.0,0.0,0.0,0.0,0.0,0.0,0.0,0.0,0.0,0.0,0.0,0.0,0.0,0.0,0.0,0.0,0.0,0.0,0.0,0.0,0.0,0.0,0.0,0.0,0.0,0.0,0.0,0.0,0.0,0.0,0.0,0.0,0.0,0.0,0.0,0.0,0.0,0.0,0.0,0.0,0.0,0.0,0.0,0.0,0.0,0.0,0.0,0.0,0.0,0.0,0.0,0.0,0.0,0.0,0.0,0.0,0.0,0.0,0.0,0.0,0.0,0.0,0.0,0.0,0.0,0.0,0.0,0.0,0.0,0.0,0.0,0.0,0.0,0.0,0.0,0.0,0.0,0.0,0.0,0.0,0.0,0.0,0.0,0.0,0.0,0.0,0.0,0.0,0.0,0.0,0.0,0.0,0.0,0.0,0.0,0.0,0.0,0.0,0.0,0.0,0.0,0.0,0.0,0.0,0.0,0.0,0.0,0.0,0.0,0.0,0.0,0.0,0.0,0.0,0.0,0.0,0.0,0.0,0.0,0.0,0.0,0.0,0.0,0.0,0.0,0.0,0.0,0.0,0.0,0.0,0.0,0.0,0.0,0.0,0.0,0.0,0.0,0.0,0.0,0.0,0.0,0.0,0.0,0.0,0.0,0.0,0.0,0.0,0.0,0.0,0.0,0.0,0.0,0.0,0.0,0.0,0.0,0.0,0.0,0.0,0.0,0.0,0.0,0.0,0.0,0.0,0.0,0.0,0.0,0.0,0.0,0.0,0.0,0.0,0.0,0.0,0.0,0.0,0.0,0.0,0.0,0.0,0.0,0.0,0.0,0.0,0.0,0.0,0.0,0.0,0.0,0.0,0.0,0.0,0.0,0.0,0.0,0.0,0.0,0.0,0.0,0.0,0.0,0.0,0.0,0.0,0.0,0.0,0.0,0.0,0.0,0.0,0.0,0.0,0.0,0.0,0.0,0.0,0.0,0.0,0.0,0.0,0.0,0.0,0.0,0.0,0.0,0.0,0.0,0.0,0.0,0.0,0.0,0.0,0.0,0.0,0.0,0.0,0.0,0.0,0.0,0.0,0.0,0.0,0.0,0.0,0.0,0.0,0.0,0.0,0.0,0.0,0.0,0.0,0.0,0.0,0.0,0.0,0.0,0.0,0.0,0.0,0.0,0.0,0.0,0.0,0.0,0.0,0.0,0.0,0.0,0.0,0.0,0.0,0.0,0.0,0.0,0.0,0.0,0.0,0.0,0.0,0.0,0.0,0.0,0.0,0.0,0.0,0.0,0.0,0.0,0.0,0.0,0.0,0.0,0.0,0.0,0.0,0.0,0.0,0.0,0.0,0.0,0.0,0.0,0.0,0.0,0.0,0.0,0.0,0.0,0.0,0.0,0.0,0.0,0.0,0.0,0.0,0.0,0.0,0.0,0.0,0.0,0.0,0.0,0.0,0.0,0.0,0.0,0.0,0.0,0.0,0.0,0.0,0.0,0.0,0.0,0.0,0.0,0.0,0.0,0.0,0.0,0.0,0.0,0.0,0.0,0.0,0.0,0.0,0.0,0.0,0.0,0.0,0.0,0.0,0.0,0.0,0.0,0.0,0.0,0.0,0.0,0.0,0.0,0.0,0.0,0.0,0.0,0.0,0.0,0.0,0.0,0.0,0.0,0.0,0.0,0.0,0.0,0.0,0.0,0.0,0.0,0.0,0.0,0.0,0.0,0.0,0.0,0.0,0.0,0.0,0.0,0.0,0.0,0.0,0.0,0.0,0.0,0.0,0.0,0.0,0.0,0.0,0.0,0.0,0.0,0.0,0.0,0.0,0.0,0.0,0.0,0.0,0.0,0.0,0.0,0.0,0.0,0.0,0.0,0.0,0.0,0.0,0.0,0.0,0.0,0.0,0.0,0.0,0.0,0.0,0.0,0.0,0.0,0.0,0.0,0.0,0.0,0.0,0.0,0.0,0.0,0.0,0.0,0.0,0.0,0.0,0.0,0.0,0.0,0.0,0.0,0.0,0.0,0.0,0.0,0.0,0.0,0.0,0.0,0.0,0.0,0.0,0.0,0.0,0.0,0.0,0.0,0.0,0.0,0.0,0.0,0.0,0.0,0.0,0.0,0.0,0.0,0.0,0.0,0.0,0.0,0.0,0.0,0.0,0.0,0.0,0.0,0.0,0.0,0.0,0.0,0.0,0.0,0.0,0.0,0.0,0.0,0.0,0.0,0.0,0.0,0.0,0.0,0.0,0.0,0.0,0.0,0.0,0.0,0.0,0.0,0.0,0.0,0.0,0.0,0.0,0.0,0.0,0.0,0.0,0.0,0.0,0.0,0.0,0.0,0.0,0.0,0.0,0.0,0.0,0.0,0.0,0.0,0.0,0.0,0.0,0.0,0.0,0.0,0.0,0.0,0.0,0.0,0.0,0.0,0.0,0.0,0.0,0.0,0.0,0.0,0.0,0.0,0.0,0.0,0.0,0.0,0.0,0.0,0.0,0.0,0.0,0.0,0.0,0.0,0.0,0.0,0.0,0.0,0.0,0.0,0.0,0.0,0.0,0.0,0.0,0.0,0.0,0.0,0.0,0.0,0.0,0.0,0.0,0.0,0.0,0.0,0.0,0.0,0.0,0.0,0.0,0.0,0.0,0.0,0.0,0.0,0.0,0.0,0.0,0.0,0.0,0.0,0.0,0.0,0.0,0.0,0.0,0.0,0.0,0.0,0.0,0.0,0.0,0.0,0.0,0.0,0.0,0.0,0.0,0.0,0.0,0.0,0.0,0.0,0.0,0.0,0.0,0.0,0.0,0.0,0.0,0.0,0.0,0.0,0.0,0.0,0.0,0.0,0.0,0.0,0.0,0.0,0.0,0.0,0.0,0.0,0.0,0.0,0.0,0.0,0.0,0.0,0.0,0.0,0.0,0.0,0.0,0.0,0.0,0.0,0.0,0.0,0.0,0.0,0.0,0.0,0.0,0.0,0.0,0.0,0.0,0.0,0.0,0.0,0.0,0.0,0.0,0.0,0.0,0.0,0.0,0.0,0.0,0.0,0.0,0.0,0.0,0.0,0.0,0.0,0.0,0.0,0.0,0.0,0.0,0.0,0.0,0.0,0.0,0.0,0.0,0.0,0.0,0.0,0.0,0.0,0.0,0.0,0.0,0.0,0.0,0.0,0.0,0.0,0.0,0.0,0.0,0.0,0.0,0.0,0.0,0.0,0.0,0.0,0.0,0.0,0.0,0.0,0.0,0.0,0.0,0.0,0.0,0.0,0.0,0.0,0.0,0.0,0.0,0.0,0.0,0.0,0.0,0.0,0.0,0.0,0.0,0.0,0.0,0.0,0.0,0.0,0.0,0.0,0.0,0.0,0.0,0.0,0.0,0.0,0.0,0.0,0.0,0.0,0.0,0.0,0.0,0.0,0.0,0.0,0.0,0.0,0.0,0.0,0.0,0.0,0.0,0.0,0.0,0.0,0.0,0.0,0.0,0.0,0.0,0.0,0.0,0.0,0.0,0.0,0.0,0.0,0.0,0.0,0.0,0.0,0.0,0.0,0.0,0.0,0.0,0.0,0.0,0.0,0.0,0.0,0.0,0.0,0.0,0.0,0.0,0.0,0.0,0.0,0.0,0.0,0.0,0.0,0.0,0.0,0.0,0.0,0.0,0.0,0.0,0.0,0.0,0.0,0.0,0.0,0.0,0.0,0.0,0.0,0.0,0.0,0.0,0.0,0.0,0.0,0.0,0.0,0.0,0.0,0.0,0.0,0.0,0.0,0.0,0.0,0.0,0.0,0.0,0.0,0.0,0.0,0.0,-0.4068,0.0,0.0,0.0,0.0,0.0,0.0,0.0,0.0,0.0,0.0,0.0,0.0,0.0,0.0,0.0,0.0,0.0,0.0,0.0,0.0,0.0,0.0,0.0,0.0,0.0,0.0,0.0,0.0,0.0,0.0,0.0,0.0,0.0,0.0,0.0,0.0,0.0,0.0,0.0,0.0,0.0,0.0,0.0,0.0,0.0,0.0,0.0,0.0,0.0,0.0,0.0,0.0,0.0,0.0,0.0,0.0,0.0,0.0,0.0,0.0,0.0,0.0,0.0,0.0,0.0,0.0,0.0,0.0,0.0,0.0,0.0,0.0,0.0,0.0,0.0,0.0,0.0,0.0,0.0,0.0,0.0,0.0,0.0,0.0,0.0,0.0,0.0,0.0,0.0,0.0,0.0,0.0,0.0,0.0,0.0,0.0,0.0,0.0,0.0,0.0,0.0,0.0,0.0,0.0,0.0,0.0,0.0,0.0,0.0,0.0,-0.3832,-0.4929,-0.5082,-0.5234,-0.5538,0.0,0.0,0.0,0.0,0.0,0.0,0.0,0.0,0.0,0.0,0.0,0.0,0.0,0.0,0.0,0.0,0.0,0.0,0.0,0.0,0.0,0.0,0.0,0.0,0.0,0.0,0.0,0.0,0.0,0.0,0.0,0.0,0.0,0.0,0.0,0.0,0.0,0.0,0.0,0.0,0.0,0.0,0.0,0.0,0.0,0.0,0.0,0.0,0.0,0.0,0.0,0.0,0.0,0.0,0.0,0.0,0.0,0.0,0.0,0.0,0.0,0.0,0.0,0.0,0.0,0.0,0.0,0.0,0.0,0.0,0.0,0.0,0.0,0.0,0.0,0.0,0.0,0.0,0.0,0.0,0.0,0.0,0.0,0.0,0.0,0.0,0.0,0.0,0.0,0.0,0.0,0.0,0.0,0.0,0.0,0.0,0.0,0.0,0.0,0.0,0.0,0.0,0.0,0.0,0.0,0.0,0.0,0.0,0.0,0.0,0.0,0.0,-0.6619,-0.685,-0.685,0.0,0.0,0.0,0.0,0.0,0.0,0.0,0.0,0.0,0.0,0.0,0.0,0.0,0.0,0.0,0.0,0.0,0.0,0.0,0.0,0.0,0.0,0.0,0.0,0.0,0.0,0.0,0.0,0.0,0.0,0.0,0.0,0.0,0.0,0.0,0.0,0.0,0.0,0.0,0.0,0.0,0.0,0.0,0.0,0.0,0.0,0.0,0.0,0.0,0.0,0.0,0.0,0.0,0.0,0.0,0.0,0.0,0.0,0.0,0.0,0.0,0.0,0.0,0.0,0.0,0.0,0.0,0.0,0.0,0.0,0.0,0.0,0.0,0.0,0.0,0.0,0.0,0.0,0.0,0.0,0.0,0.0,0.0,0.0,0.0,0.0,0.0,0.0,0.0,0.0,0.0,0.0,0.0,0.0,0.0,0.0,0.0,0.0,0.0,0.0,0.0,0.0,0.0,0.0,0.0,0.0,0.0,0.0,0.0,0.0,-0.7371,-0.8371,-0.8595,0.0,-0.7923,0.0,0.0,0.0,0.0,0.0,0.0,0.0,0.0,0.0,0.0,0.0,0.0,0.0,0.0,0.0,0.0,0.0,0.0,0.0,0.0,0.0,0.0,0.0,0.0,0.0,0.0,0.0,0.0,0.0,0.0,0.0,0.0,0.0,0.0,0.0,0.0,0.0,0.0,0.0,0.0,0.0,0.0,0.0,0.0,0.0,0.0,0.0,0.0,0.0,0.0,0.0,0.0,0.0,0.0,0.0,0.0,0.0,0.0,0.0,0.0,0.0,0.0,0.0,0.0,0.0,0.0,0.0,0.0,0.0,0.0,0.0,0.0,0.0,0.0,0.0,0.0,0.0,0.0,0.0,0.0,0.0,0.0,0.0,0.0,0.0,0.0,0.0,0.0,0.0,0.0,0.0,0.0,0.0,0.0,0.0,0.0,0.0,0.0,0.0,0.0,0.0,0.0,0.0,0.0,0.0,0.0,0.0,0.0,0.0,0.0,-0.9346,-1.0104,-1.0329,-1.0187,0.0,0.0,0.0,0.0,0.0,0.0,0.0,0.0,0.0,0.0,0.0,0.0,0.0,0.0,0.0,0.0,0.0,0.0,0.0,0.0,0.0,0.0,0.0,0.0,0.0,0.0,0.0,0.0,0.0,0.0,0.0,0.0,0.0,0.0,0.0,0.0,0.0,0.0,0.0,0.0,0.0,0.0,0.0,0.0,0.0,0.0,0.0,0.0,0.0,0.0,0.0,0.0,0.0,0.0,0.0,0.0,0.0,0.0,0.0,0.0,0.0,0.0,0.0,0.0,0.0,0.0,0.0,0.0,0.0,0.0,0.0,0.0,0.0,0.0,0.0,0.0,0.0,0.0,0.0,0.0,0.0,0.0,0.0,0.0,0.0,0.0,0.0,0.0,0.0,0.0,0.0,0.0,0.0,0.0,0.0,0.0,0.0,0.0,0.0,0.0,0.0,0.0,0.0,0.0,0.0,0.0,0.0,0.0,0.0,0.0,-1.0553,-1.1372,-1.2031,-1.2184,-1.1939,-1.1376,0.0,0.0,0.0,0.0,0.0,0.0,0.0,0.0,0.0,0.0,0.0,0.0,0.0,0.0,0.0,0.0,0.0,0.0,0.0,0.0,0.0,0.0,0.0,0.0,0.0,0.0,0.0,0.0,0.0,0.0,0.0,0.0,0.0,0.0,0.0,0.0,0.0,0.0,0.0,0.0,0.0,0.0,0.0,0.0,0.0,0.0,0.0,0.0,0.0,0.0,0.0,0.0,0.0,0.0,0.0,0.0,0.0,0.0,0.0,0.0,0.0,0.0,0.0,0.0,0.0,0.0,0.0,0.0,0.0,0.0,0.0,0.0,0.0,0.0,0.0,0.0,0.0,0.0,0.0,0.0,0.0,0.0,0.0,0.0,0.0,0.0,0.0,0.0,0.0,0.0,0.0,0.0,0.0,0.0,0.0,0.0,0.0,0.0,0.0,0.0,0.0,0.0,0.0,0.0,0.0,0.0,0.0,0.0,-1.2044,-1.2705,-1.3433,-1.4378,-1.4307,-1.3787,0.0,0.0,0.0,0.0,0.0,0.0,0.0,0.0,0.0,0.0,0.0,0.0,0.0,0.0,0.0,0.0,0.0,0.0,0.0,0.0,0.0,0.0,0.0,0.0,0.0,0.0,0.0,0.0,0.0,0.0,0.0,0.0,0.0,0.0,0.0,0.0,0.0,0.0,0.0,0.0,0.0,0.0,0.0,0.0,0.0,0.0,0.0,0.0,0.0,0.0,0.0,0.0,0.0,0.0,0.0,0.0,0.0,0.0,0.0,0.0,0.0,0.0,0.0,0.0,0.0,0.0,0.0,0.0,0.0,0.0,0.0,0.0,0.0,0.0,0.0,0.0,0.0,0.0,0.0,0.0,0.0,0.0,0.0,0.0,0.0,0.0,0.0,0.0,0.0,0.0,0.0,0.0,0.0,0.0,0.0,0.0,0.0,0.0,0.0,0.0,0.0,0.0,0.0,0.0,0.0,0.0,0.0,0.0,0.0,-1.4045,-1.5122,-1.5913,-1.6358,-1.6,-1.5429,0.0,0.0,0.0,0.0,0.0,0.0,0.0,0.0,0.0,0.0,0.0,0.0,0.0,0.0,0.0,0.0,0.0,0.0,0.0,0.0,0.0,0.0,0.0,0.0,0.0,0.0,0.0,0.0,0.0,0.0,0.0,0.0,0.0,0.0,0.0,0.0,0.0,0.0,0.0,0.0,0.0,0.0,0.0,0.0,0.0,0.0,0.0,0.0,0.0,0.0,0.0,0.0,0.0,0.0,0.0,0.0,0.0,0.0,0.0,0.0,0.0,0.0,0.0,0.0,0.0,0.0,0.0,0.0,0.0,0.0,0.0,0.0,0.0,0.0,0.0,0.0,0.0,0.0,0.0,0.0,0.0,0.0,0.0,0.0,0.0,0.0,0.0,0.0,0.0,0.0,0.0,0.0,0.0,0.0,0.0,0.0,0.0,0.0,0.0,0.0,0.0,0.0,0.0,0.0,0.0,0.0,0.0,0.0,0.0,-1.6408,0.0,-1.8123,-1.8133,-1.7658,-1.7101,0.0,0.0,0.0,0.0,0.0,0.0,0.0,0.0,0.0,0.0,0.0,0.0,0.0,0.0,0.0,0.0,0.0,0.0,0.0,0.0,0.0,0.0,0.0,0.0,0.0,0.0,0.0,0.0,0.0,0.0,0.0,0.0,0.0,0.0,0.0,0.0,0.0,0.0,0.0,0.0,0.0,0.0,0.0,0.0,0.0,0.0,0.0,0.0,0.0,0.0,0.0,0.0,0.0,0.0,0.0,0.0,0.0,0.0,0.0,0.0,0.0,0.0,0.0,0.0,0.0,0.0,0.0,0.0,0.0,0.0,0.0,0.0,0.0,0.0,0.0,0.0,0.0,0.0,0.0,0.0,0.0,0.0,0.0,0.0,0.0,0.0,0.0,0.0,0.0,0.0,0.0,0.0,0.0,0.0,0.0,0.0,0.0,0.0,0.0,0.0,0.0,0.0,0.0,0.0,0.0,0.0,0.0,0.0,-1.7086,-1.917,-1.9868,-2.0107,-1.9803,-1.9354,-1.867,0.0,0.0,0.0,0.0,0.0,0.0,0.0,0.0,0.0,0.0,0.0,0.0,0.0,0.0,0.0,0.0,0.0,0.0,0.0,0.0,0.0,0.0,0.0,0.0,0.0,0.0,0.0,0.0,0.0,0.0,0.0,0.0,0.0,0.0,0.0,0.0,0.0,0.0,0.0,0.0,0.0,0.0,0.0,0.0,0.0,0.0,0.0,0.0,0.0,0.0,0.0,0.0,0.0,0.0,0.0,0.0,0.0,0.0,0.0,0.0,0.0,0.0,0.0,0.0,0.0,0.0,0.0,0.0,0.0,0.0,0.0,0.0,0.0,0.0,0.0,0.0,0.0,0.0,0.0,0.0,0.0,0.0,0.0,0.0,0.0,0.0,0.0,0.0,0.0,0.0,0.0,0.0,0.0,0.0,0.0,0.0,0.0,0.0,0.0,0.0,0.0,0.0,0.0,0.0,0.0,0.0,0.0,0.0,0.0,-2.2178,-2.2983,-2.3198,-2.272,-2.187,-2.0882,0.0,0.0,0.0,0.0,0.0,0.0,0.0,0.0,0.0,0.0,0.0,0.0,0.0,0.0,0.0,0.0,0.0,0.0,0.0,0.0,0.0,0.0,0.0,0.0,0.0,0.0,0.0,0.0,0.0,0.0,0.0,0.0,0.0,0.0,0.0,0.0,0.0,0.0,0.0,0.0,0.0,0.0,0.0,0.0,0.0,0.0,0.0,0.0,0.0,0.0,0.0,0.0,0.0,0.0,0.0,0.0,0.0,0.0,0.0,0.0,0.0,0.0,0.0,0.0,0.0,0.0,0.0,0.0,0.0,0.0,0.0,0.0,0.0,0.0,0.0,0.0,0.0,0.0,0.0,0.0,0.0,0.0,0.0,0.0,0.0,0.0,0.0,0.0,0.0,0.0,0.0,0.0,0.0,0.0,0.0,0.0,0.0,0.0,0.0,0.0,0.0,0.0,0.0,0.0,0.0,0.0,0.0,0.0,0.0,-2.6175,-2.5967,-2.5704,-2.5382,-2.4064,-2.2769,-2.147,0.0,0.0,0.0,0.0,0.0,0.0,0.0,0.0,0.0,0.0,0.0,0.0,0.0,0.0,0.0,0.0,0.0,0.0,0.0,0.0,0.0,0.0,0.0,0.0,0.0,0.0,0.0,0.0,0.0,0.0,0.0,0.0,0.0,0.0,0.0,0.0,0.0,0.0,0.0,0.0,0.0,0.0,0.0,0.0,0.0,0.0,0.0,0.0,0.0,0.0,0.0,0.0,0.0,0.0,0.0,0.0,0.0,0.0,0.0,0.0,0.0,0.0,0.0,0.0,0.0,0.0,0.0,0.0,0.0,0.0,0.0,0.0,0.0,0.0,0.0,0.0,0.0,0.0,0.0,0.0,0.0,0.0,0.0,0.0,0.0,0.0,0.0,0.0,0.0,0.0,0.0,0.0,0.0,0.0,0.0,0.0,0.0,0.0,0.0,0.0,0.0,0.0,0.0,0.0,0.0,0.0,0.0,0.0,-3.0752,-2.8897,-2.7897,-2.7826,-2.6068,-2.4451,0.0,0.0,0.0,0.0,0.0,0.0,0.0,0.0,0.0,0.0,0.0,0.0,0.0,0.0,0.0,0.0,0.0,0.0,0.0,0.0,0.0,0.0,0.0,0.0,0.0,0.0,0.0,0.0,0.0,0.0,0.0,0.0,0.0,0.0,0.0,0.0,0.0,0.0,0.0,0.0,0.0,0.0,0.0,0.0,0.0,0.0,0.0,0.0,0.0,0.0,0.0,0.0,0.0,0.0,0.0,0.0,0.0,0.0,0.0,0.0,0.0,0.0,0.0,0.0,0.0,0.0,0.0,0.0,0.0,0.0,0.0,0.0,0.0,0.0,0.0,0.0,0.0,0.0,0.0,0.0,0.0,0.0,0.0,0.0,0.0,0.0,0.0,0.0,0.0,0.0,0.0,0.0,0.0,0.0,0.0,0.0,0.0,0.0,0.0,0.0,0.0,0.0,0.0,0.0,0.0,0.0,0.0,0.0,0.0,-3.1464,-3.2398,-3.1934,-2.9948,-2.8295,-2.6544,0.0,0.0,0.0,0.0,0.0,0.0,0.0,0.0,0.0,0.0,0.0,0.0,0.0,0.0,0.0,0.0,0.0,0.0,0.0,0.0,0.0,0.0,0.0,0.0,0.0,0.0,0.0,0.0,0.0,0.0,0.0,0.0,0.0,0.0,0.0,0.0,0.0,0.0,0.0,0.0,0.0,0.0,0.0,0.0,0.0,0.0,0.0,0.0,0.0,0.0,0.0,0.0,0.0,0.0,0.0,0.0,0.0,0.0,0.0,0.0,0.0,0.0,0.0,0.0,0.0,0.0,0.0,0.0,0.0,0.0,0.0,0.0,0.0,0.0,0.0,0.0,0.0,0.0,0.0,0.0,0.0,0.0,0.0,0.0,0.0,0.0,0.0,0.0,0.0,0.0,0.0,0.0,0.0,0.0,0.0,0.0,0.0,0.0,0.0,0.0,0.0,0.0,0.0,0.0,0.0,0.0,0.0,0.0,-3.1758,-3.2161,-3.3483,-3.3313,-3.1448,-2.9666,-2.7992,0.0,0.0,0.0,0.0,0.0,0.0,0.0,0.0,0.0,0.0,0.0,0.0,0.0,0.0,0.0,0.0,0.0,0.0,0.0,0.0,0.0,0.0,0.0,0.0,0.0,0.0,0.0,0.0,0.0,0.0,0.0,0.0,0.0,0.0,0.0,0.0,0.0,0.0,0.0,0.0,0.0,0.0,0.0,0.0,0.0,0.0,0.0,0.0,0.0,0.0,0.0,0.0,0.0,0.0,0.0,0.0,0.0,0.0,0.0,0.0,0.0,0.0,0.0,0.0,0.0,0.0,0.0,0.0,0.0,0.0,0.0,0.0,0.0,0.0,0.0,0.0,0.0,0.0,0.0,0.0,0.0,0.0,0.0,0.0,0.0,0.0,0.0,0.0,0.0,0.0,0.0,0.0,0.0,0.0,0.0,0.0,0.0,0.0,0.0,0.0,0.0,0.0,0.0,0.0,0.0,0.0,0.0,0.0,-3.1836,-3.2707,-3.3271,-3.3127,-3.2352,-3.0434,-2.8936,0.0,0.0,0.0,0.0,0.0,0.0,0.0,0.0,0.0,0.0,0.0,0.0,0.0,0.0,0.0,0.0,0.0,0.0,0.0,0.0,0.0,0.0,0.0,0.0,0.0,0.0,0.0,0.0,0.0,0.0,0.0,0.0,0.0,0.0,0.0,0.0,0.0,0.0,0.0,0.0,0.0,0.0,0.0,0.0,0.0,0.0,0.0,0.0,0.0,0.0,0.0,0.0,0.0,0.0,0.0,0.0,0.0,0.0,0.0,0.0,0.0,0.0,0.0,0.0,0.0,0.0,0.0,0.0,0.0,0.0,0.0,0.0,0.0,0.0,0.0,0.0,0.0,0.0,0.0,0.0,0.0,0.0,0.0,0.0,0.0,0.0,0.0,0.0,0.0,0.0,0.0,0.0,0.0,0.0,0.0,0.0,0.0,0.0,0.0,0.0,0.0,0.0,0.0,0.0,0.0,0.0,0.0,0.0,-3.2848,-3.2386,-3.3534,-3.3471,-3.1948,-3.0706,-2.9265,0.0,0.0,0.0,0.0,0.0,0.0,0.0,0.0,0.0,0.0,0.0,0.0,0.0,0.0,0.0,0.0,0.0,0.0,0.0,0.0,0.0,0.0,0.0,0.0,0.0,0.0,0.0,0.0,0.0,0.0,0.0,0.0,0.0,0.0,0.0,0.0,0.0,0.0,0.0,0.0,0.0,0.0,0.0,0.0,0.0,0.0,0.0,0.0,-2.7245,0.0,0.0,0.0,0.0,0.0,0.0,0.0,0.0,0.0,0.0,0.0,0.0,0.0,0.0,0.0,0.0,0.0,0.0,0.0,0.0,0.0,0.0,0.0,0.0,0.0,0.0,0.0,0.0,0.0,0.0,0.0,0.0,0.0,0.0,0.0,0.0,0.0,0.0,0.0,0.0,0.0,0.0,0.0,0.0,0.0,0.0,0.0,0.0,0.0,0.0,0.0,0.0,0.0,0.0,0.0,0.0,0.0,0.0,0.0,-3.25,-3.2059,-3.2591,-3.2355,-3.1241,-3.0368,-2.9327,0.0,0.0,0.0,0.0,0.0,0.0,0.0,0.0,0.0,0.0,0.0,0.0,0.0,0.0,0.0,0.0,0.0,0.0,0.0,0.0,0.0,0.0,0.0,0.0,0.0,0.0,0.0,0.0,0.0,0.0,0.0,0.0,0.0,0.0,0.0,0.0,0.0,0.0,0.0,0.0,0.0,0.0,0.0,0.0,0.0,0.0,0.0,0.0,0.0,0.0,0.0,0.0,0.0,0.0,0.0,0.0,0.0,0.0,0.0,0.0,0.0,0.0,0.0,0.0,0.0,0.0,0.0,0.0,0.0,0.0,0.0,0.0,0.0,0.0,0.0,0.0,0.0,0.0,0.0,0.0,0.0,0.0,0.0,0.0,0.0,0.0,0.0,0.0,0.0,0.0,0.0,0.0,0.0,0.0,0.0,0.0,0.0,0.0,0.0,0.0,0.0,0.0,0.0,0.0,0.0,0.0,0.0,-3.1236,-3.1401,-3.1896,-3.1134,-3.065,-3.0567,-2.9935,-2.9201,-2.8282,0.0,0.0,0.0,0.0,0.0,0.0,0.0,0.0,0.0,0.0,0.0,0.0,0.0,0.0,0.0,0.0,0.0,0.0,0.0,0.0,0.0,0.0,0.0,0.0,0.0,0.0,0.0,0.0,0.0,0.0,0.0,0.0,0.0,0.0,0.0,0.0,0.0,0.0,-2.4118,-2.6103,0.0,0.0,0.0,0.0,0.0,0.0,0.0,0.0,-3.2079,0.0,0.0,0.0,0.0,0.0,0.0,0.0,0.0,0.0,0.0,0.0,0.0,0.0,0.0,0.0,0.0,0.0,0.0,0.0,0.0,0.0,0.0,0.0,0.0,0.0,0.0,0.0,0.0,0.0,0.0,0.0,0.0,0.0,0.0,0.0,0.0,0.0,0.0,0.0,0.0,0.0,0.0,0.0,0.0,0.0,0.0,0.0,0.0,0.0,0.0,0.0,0.0,0.0,0.0,0.0,0.0,-3.2665,-3.0332,-3.0247,-3.2509,-2.9734,-2.8916,-3.0377,-2.9805,-2.881,-2.7429,0.0,0.0,0.0,0.0,0.0,0.0,0.0,0.0,0.0,0.0,0.0,0.0,0.0,0.0,0.0,0.0,0.0,0.0,0.0,0.0,0.0,0.0,0.0,0.0,0.0,0.0,0.0,0.0,0.0,0.0,0.0,0.0,0.0,0.0,0.0,0.0,0.0,0.0,0.0,-2.9001,-3.0172,0.0,0.0,0.0,0.0,0.0,0.0,0.0,0.0,-3.344,0.0,0.0,0.0,0.0,0.0,0.0,0.0,0.0,0.0,0.0,0.0,0.0,0.0,0.0,0.0,0.0,0.0,0.0,0.0,0.0,0.0,0.0,0.0,0.0,0.0,0.0,0.0,0.0,0.0,0.0,0.0,0.0,0.0,0.0,0.0,0.0,0.0,0.0,0.0,0.0,0.0,0.0,0.0,0.0,0.0,0.0,0.0,0.0,0.0,0.0,0.0,0.0,0.0,0.0,0.0,-3.389,-3.269,-3.2509,-3.3436,-3.1401,-3.0265,-3.0269,-2.9843,-2.8763,0.0,0.0,0.0,0.0,0.0,0.0,0.0,0.0,0.0,0.0,0.0,0.0,0.0,0.0,0.0,0.0,0.0,0.0,0.0,0.0,0.0,0.0,0.0,0.0,0.0,0.0,0.0,0.0,0.0,0.0,0.0,0.0,0.0,0.0,0.0,0.0,0.0,0.0,0.0,0.0,-3.147,-3.2615,-3.4171,0.0,0.0,0.0,0.0,0.0,0.0,-3.615,-3.5465,0.0,0.0,0.0,0.0,0.0,0.0,0.0,0.0,0.0,0.0,0.0,0.0,0.0,0.0,0.0,0.0,0.0,0.0,0.0,0.0,0.0,0.0,0.0,0.0,0.0,0.0,0.0,0.0,0.0,0.0,0.0,0.0,0.0,0.0,0.0,0.0,0.0,0.0,0.0,0.0,0.0,0.0,0.0,0.0,0.0,0.0,0.0,0.0,0.0,0.0,0.0,0.0,0.0,0.0,0.0,-3.5132,-3.4679,-3.4469,-3.4392,-3.2709,-3.129,-3.0319,-2.988,-2.8683,0.0,0.0,0.0,0.0,0.0,0.0,0.0,0.0,0.0,0.0,0.0,0.0,0.0,0.0,0.0,0.0,0.0,0.0,0.0,0.0,0.0,0.0,0.0,0.0,0.0,0.0,0.0,0.0,0.0,0.0,0.0,0.0,0.0,0.0,0.0,0.0,0.0,0.0,0.0,0.0,0.0,-3.4779,-3.643,-3.8084,0.0,0.0,0.0,0.0,-3.8667,-3.8004,0.0,0.0,0.0,0.0,0.0,0.0,0.0,0.0,0.0,0.0,0.0,0.0,0.0,0.0,0.0,0.0,0.0,0.0,0.0,0.0,0.0,0.0,0.0,0.0,0.0,0.0,0.0,0.0,0.0,0.0,0.0,0.0,0.0,0.0,0.0,0.0,0.0,0.0,0.0,0.0,0.0,0.0,0.0,0.0,0.0,0.0,0.0,0.0,0.0,0.0,0.0,0.0,0.0,0.0,0.0,0.0,-3.5932,-3.3278,-3.2945,-3.4931,-3.1005,-2.942,-3.0819,-2.9735,-2.8218,0.0,0.0,0.0,0.0,0.0,0.0,0.0,0.0,0.0,0.0,0.0,0.0,0.0,0.0,0.0,0.0,0.0,0.0,0.0,0.0,0.0,0.0,0.0,0.0,0.0,0.0,0.0,0.0,0.0,0.0,0.0,0.0,0.0,0.0,0.0,0.0,0.0,0.0,0.0,0.0,0.0,-3.5983,-3.8974,-4.0819,-4.1567,0.0,0.0,-4.0319,-3.9959,-3.9505,0.0,0.0,0.0,0.0,0.0,0.0,0.0,0.0,0.0,0.0,0.0,0.0,0.0,0.0,0.0,0.0,0.0,0.0,0.0,0.0,0.0,0.0,0.0,0.0,0.0,0.0,0.0,0.0,0.0,0.0,0.0,0.0,0.0,0.0,0.0,0.0,0.0,0.0,0.0,0.0,0.0,0.0,0.0,0.0,0.0,0.0,0.0,0.0,0.0,0.0,0.0,0.0,0.0,0.0,0.0,-3.6729,-3.7058,-3.5742,-3.5409,-3.6025,-3.3031,-3.1144,-3.0734,-2.9969,-2.8665,0.0,0.0,0.0,0.0,0.0,0.0,0.0,0.0,0.0,0.0,0.0,0.0,0.0,0.0,0.0,0.0,0.0,0.0,0.0,0.0,0.0,0.0,0.0,0.0,0.0,0.0,0.0,0.0,0.0,0.0,0.0,0.0,0.0,0.0,0.0,0.0,0.0,0.0,0.0,0.0,0.0,0.0,-4.1692,-4.2729,0.0,0.0,0.0,-4.1774,-4.1422,0.0,0.0,0.0,0.0,0.0,0.0,0.0,0.0,0.0,0.0,0.0,0.0,0.0,0.0,0.0,0.0,0.0,0.0,0.0,0.0,0.0,0.0,0.0,0.0,0.0,0.0,0.0,0.0,0.0,0.0,0.0,0.0,0.0,0.0,0.0,0.0,0.0,0.0,0.0,0.0,0.0,0.0,0.0,0.0,0.0,0.0,0.0,0.0,0.0,0.0,0.0,0.0,0.0,0.0,0.0,0.0,0.0,-3.7801,-3.777,-3.7432,-3.6776,-3.4692,-3.2639,-3.0757,-3.012,0.0,0.0,0.0,0.0,0.0,0.0,0.0,0.0,0.0,0.0,0.0,0.0,0.0,0.0,0.0,0.0,0.0,0.0,0.0,0.0,0.0,0.0,0.0,0.0,0.0,0.0,0.0,-1.8892,0.0,0.0,0.0,0.0,0.0,0.0,0.0,0.0,0.0,0.0,0.0,0.0,0.0,0.0,-4.0424,-4.32,-4.4044,-4.4389,0.0,0.0,-4.3253,-4.2875,-4.2004,-4.1095,0.0,0.0,0.0,0.0,0.0,0.0,0.0,0.0,0.0,0.0,0.0,0.0,0.0,0.0,0.0,0.0,0.0,0.0,0.0,0.0,0.0,0.0,0.0,0.0,0.0,0.0,0.0,0.0,0.0,0.0,0.0,0.0,0.0,0.0,0.0,0.0,0.0,0.0,0.0,0.0,0.0,0.0,0.0,0.0,0.0,0.0,0.0,0.0,0.0,0.0,0.0,0.0,0.0,0.0,0.0,-3.7886,-3.7651,-3.7395,-3.6982,-3.4312,-3.236,-3.1278,-2.9985,-2.8449,0.0,0.0,0.0,0.0,0.0,0.0,0.0,0.0,0.0,0.0,0.0,0.0,0.0,0.0,0.0,0.0,0.0,0.0,0.0,0.0,0.0,0.0,0.0,0.0,0.0,0.0,0.0,0.0,0.0,0.0,0.0,0.0,0.0,0.0,0.0,0.0,0.0,0.0,0.0,0.0,0.0,-4.0662,-4.2739,-4.4475,-4.5597,0.0,-4.5321,-4.4835,-4.4268,-4.3864,-4.2882,-4.0905,0.0,0.0,0.0,0.0,0.0,0.0,0.0,0.0,0.0,0.0,0.0,0.0,0.0,0.0,0.0,0.0,0.0,0.0,0.0,0.0,0.0,0.0,0.0,0.0,0.0,0.0,0.0,0.0,0.0,0.0,0.0,0.0,0.0,0.0,0.0,0.0,0.0,0.0,0.0,0.0,0.0,0.0,0.0,0.0,0.0,0.0,0.0,0.0,0.0,0.0,0.0,0.0,0.0,-3.782,-3.7905,-3.7617,-3.7299,-3.6914,-3.4209,-3.2311,-3.1391,-3.0186,-2.8837,0.0,0.0,0.0,0.0,0.0,0.0,0.0,0.0,0.0,0.0,0.0,0.0,0.0,0.0,0.0,0.0,0.0,0.0,0.0,0.0,0.0,0.0,0.0,0.0,0.0,0.0,0.0,0.0,-2.4129,-2.4841,-2.5084,0.0,0.0,0.0,0.0,0.0,0.0,0.0,0.0,0.0,0.0,-4.1641,-4.3332,-4.4995,0.0,0.0,-4.5955,-4.5665,-4.5268,-4.4233,-4.3042,-4.1948,-4.0292,0.0,0.0,0.0,0.0,0.0,0.0,0.0,0.0,0.0,0.0,0.0,0.0,0.0,0.0,0.0,0.0,0.0,0.0,0.0,0.0,0.0,0.0,0.0,0.0,0.0,0.0,0.0,0.0,0.0,0.0,0.0,0.0,0.0,0.0,0.0,0.0,0.0,0.0,0.0,0.0,0.0,0.0,0.0,0.0,0.0,0.0,0.0,0.0,0.0,0.0,0.0,0.0,-3.7732,-3.7555,-3.7446,-3.7106,-3.6506,-3.4043,-3.2329,-3.1391,-3.0344,-2.9207,0.0,0.0,0.0,0.0,0.0,0.0,0.0,0.0,0.0,0.0,0.0,0.0,0.0,0.0,0.0,0.0,0.0,0.0,0.0,0.0,0.0,0.0,0.0,0.0,0.0,0.0,0.0,0.0,-2.6008,-2.6391,-2.6078,0.0,0.0,0.0,0.0,0.0,0.0,0.0,0.0,0.0,0.0,-4.2466,-4.3968,-4.5313,-4.6221,-4.635,-4.6253,-4.6122,-4.5922,-4.4557,-4.3321,-4.2843,0.0,0.0,0.0,0.0,0.0,0.0,0.0,0.0,0.0,0.0,0.0,0.0,0.0,0.0,0.0,0.0,0.0,0.0,0.0,0.0,0.0,0.0,0.0,0.0,0.0,0.0,0.0,-3.3026,0.0,0.0,-3.2805,0.0,0.0,0.0,0.0,0.0,0.0,0.0,0.0,0.0,0.0,0.0,0.0,0.0,0.0,0.0,0.0,0.0,0.0,0.0,0.0,0.0,0.0,-3.7588,-3.6771,-3.7196,-3.6841,-3.5649,-3.3852,-3.238,-3.135,-3.0517,-2.9387,-2.7947,0.0,0.0,0.0,0.0,0.0,0.0,0.0,0.0,0.0,0.0,0.0,0.0,0.0,0.0,0.0,0.0,0.0,0.0,0.0,0.0,0.0,0.0,0.0,0.0,0.0,0.0,-2.7495,-2.8152,-2.8276,0.0,0.0,0.0,0.0,0.0,0.0,0.0,0.0,0.0,0.0,-4.0927,-4.3009,-4.4638,-4.5597,-4.6186,-4.6221,-4.6221,-4.6189,-4.6172,-4.5057,-4.3991,0.0,0.0,0.0,0.0,0.0,0.0,0.0,0.0,0.0,0.0,0.0,0.0,0.0,0.0,0.0,0.0,0.0,0.0,0.0,0.0,0.0,0.0,0.0,0.0,0.0,0.0,0.0,-3.4012,-3.4808,0.0,0.0,0.0,0.0,0.0,0.0,0.0,0.0,0.0,0.0,0.0,-3.8399,-3.7812,0.0,0.0,0.0,0.0,0.0,0.0,0.0,0.0,0.0,0.0,0.0,0.0,-3.7602,-3.6752,-3.7196,-3.688,-3.566,-3.3626,-3.2329,-3.1826,-3.0435,-2.8888,-2.7129,0.0,0.0,0.0,0.0,0.0,0.0,0.0,0.0,0.0,0.0,0.0,0.0,0.0,0.0,0.0,0.0,0.0,0.0,0.0,0.0,0.0,0.0,0.0,0.0,0.0,-2.882,0.0,0.0,0.0,0.0,0.0,0.0,0.0,0.0,0.0,0.0,0.0,-3.7553,-3.8899,-4.0927,-4.274,-4.4055,-4.4909,-4.5642,0.0,0.0,0.0,0.0,0.0,0.0,0.0,0.0,0.0,0.0,0.0,0.0,0.0,0.0,-3.7345,-3.6085,-3.5854,-3.6195,-3.7065,0.0,0.0,0.0,0.0,0.0,0.0,0.0,0.0,0.0,0.0,0.0,0.0,0.0,0.0,-3.5225,0.0,-3.5344,0.0,0.0,0.0,0.0,0.0,0.0,0.0,0.0,-3.8684,-3.9117,-3.9367,-3.8791,-3.8634,0.0,-3.8565,-3.7308,0.0,0.0,0.0,0.0,0.0,0.0,0.0,0.0,-3.7224,-3.6291,-3.647,-3.6007,-3.4772,-3.2809,-3.1676,-3.1498,-3.0011,-2.848,-2.6872,-2.5657,-2.4559,0.0,0.0,0.0,0.0,0.0,0.0,0.0,0.0,0.0,0.0,0.0,0.0,0.0,0.0,0.0,0.0,0.0,0.0,0.0,0.0,0.0,0.0,0.0,-3.0837,0.0,0.0,0.0,0.0,0.0,0.0,0.0,0.0,0.0,-3.4642,-3.6987,-3.8956,-3.9696,-4.1306,-4.2748,-4.3734,0.0,0.0,0.0,0.0,0.0,0.0,0.0,-4.4519,-4.3912,-4.2815,-4.1913,-4.1289,-4.0313,-3.9762,-4.0164,0.0,0.0,-3.7863,-3.779,-3.8184,-3.8695,-3.9046,-3.9288,-3.9688,-3.9845,-3.9907,0.0,0.0,0.0,0.0,0.0,0.0,0.0,0.0,-3.7148,-3.7148,0.0,-3.6316,0.0,0.0,0.0,0.0,-3.7164,-3.8053,0.0,0.0,-3.9804,-4.0272,-4.0933,-3.939,-3.9049,-3.9754,-3.8955,-3.8091,-3.7287,-3.7102,0.0,0.0,0.0,0.0,0.0,0.0,-3.6402,-3.543,-3.5114,-3.4321,-3.3138,-3.1401,-3.0455,-3.0311,-2.9265,-2.824,-2.7166,-2.6453,-2.5462,-2.4027,-2.3533,0.0,0.0,0.0,0.0,0.0,0.0,0.0,0.0,0.0,0.0,0.0,0.0,0.0,0.0,0.0,0.0,0.0,0.0,0.0,0.0,-3.0895,0.0,0.0,0.0,0.0,0.0,0.0,0.0,0.0,0.0,0.0,-3.6285,-3.8214,-4.0008,-4.092,0.0,0.0,0.0,0.0,-4.5223,-4.5115,-4.5747,-4.6189,-4.6189,-4.5474,-4.4918,-4.4886,0.0,0.0,-4.3661,-4.22,-4.1156,-4.1255,-4.1181,-4.0853,-3.9738,-4.0037,-4.0221,-3.9511,-3.9962,-4.0321,-4.0187,-4.0331,-4.0283,-3.5618,0.0,0.0,0.0,0.0,-3.5711,-3.669,-3.8056,-3.7451,-3.7884,-3.893,-3.7454,0.0,0.0,0.0,0.0,0.0,0.0,-3.8703,-3.901,-4.0168,-4.0851,-4.1082,-4.0591,-4.0486,-4.0711,-4.046,-3.9891,-3.906,-3.8389,-3.7403,-3.6151,0.0,0.0,0.0,0.0,-3.6338,-3.5251,-3.5009,-3.4301,-3.3022,-3.1137,-2.9815,-2.9149,-2.9054,-2.848,-2.7399,-2.6745,-2.6051,-2.5341,-2.4532,0.0,0.0,0.0,0.0,0.0,0.0,0.0,0.0,0.0,0.0,0.0,0.0,0.0,0.0,0.0,0.0,0.0,0.0,0.0,-3.1102,-3.1882,-3.2369,0.0,0.0,0.0,0.0,0.0,0.0,0.0,0.0,0.0,-3.7708,-3.9122,-4.0323,0.0,0.0,-4.2146,-4.3009,-4.381,-4.4495,-4.501,-4.5747,0.0,-4.6189,-4.54,-4.476,-4.4753,-4.3354,-4.2278,-4.2613,-4.1515,-4.0955,-4.1931,-4.1716,-4.1213,-4.0983,-4.1229,-4.1412,-4.1167,-4.1517,-4.194,-4.1911,-4.1911,-4.1894,-3.7012,-3.7337,-3.6253,-3.5982,-3.6313,-3.6644,-3.7598,-3.8884,-3.8027,-3.824,-3.9151,-3.7433,-3.6693,-3.671,-3.6228,0.0,0.0,0.0,-3.8957,-3.9615,-4.0625,-4.1114,-4.1116,-4.1114,-4.1111,-4.1088,-4.0734,-4.0106,-3.9279,-3.838,-3.7391,-3.6306,0.0,0.0,-3.6129,-3.6257,-3.6078,-3.5592,-3.4698,-3.3501,-3.2005,-3.0205,-2.8954,-2.8278,-2.8898,-2.8748,-2.7745,-2.7071,-2.6549,-2.6258,-2.5474,-2.464,0.0,0.0,0.0,0.0,0.0,0.0,0.0,0.0,0.0,0.0,0.0,-2.2906,-2.439,0.0,0.0,0.0,-2.8423,-3.0386,-3.2602,-3.2898,0.0,0.0,0.0,0.0,0.0,0.0,0.0,-3.5031,-3.6572,-3.7826,-3.8529,-3.989,-4.094,-4.141,-4.1742,-4.2269,-4.3131,0.0,-4.4601,-4.5027,-4.5747,-4.6189,-4.6172,-4.5681,-4.525,-4.509,-4.3443,-4.2202,-4.2483,-4.1648,-4.111,-4.1789,-4.1723,-4.1326,-4.1044,-4.1502,-4.1814,-4.1559,-4.2077,-4.2539,-4.2508,-4.2587,-4.2571,-3.8246,-3.767,-3.6452,-3.6433,-3.7259,-3.7967,-3.8782,-3.9508,-3.8656,-3.833,-3.8266,-3.6688,-3.599,-3.6003,-3.6009,0.0,-3.8495,-3.8573,-3.9448,-4.1001,-4.106,-4.106,-4.0999,-4.0999,-4.0957,-4.087,-4.0014,-3.9193,-3.838,-3.7532,-3.7033,-3.6861,-3.6162,-3.6135,-3.6709,-3.5926,-3.5763,-3.6243,-3.4223,-3.2251,-3.0378,-2.9054,-2.8212,-2.7835,-2.8881,-2.9013,-2.8054,-2.7458,-2.6967,-2.6736,-2.6204,-2.545,-2.4341,0.0,0.0,0.0,0.0,0.0,0.0,0.0,0.0,0.0,0.0,0.0,0.0,0.0,0.0,0.0,-2.9445,0.0,-3.3367,-3.3502,0.0,0.0,0.0,-3.4755,-3.4819,-3.5519,-3.6099,-3.6365,0.0,0.0,-3.9033,-4.0457,-4.1771,-4.2822,-4.2886,-4.3061,-4.3799,-4.4577,-4.517,-4.508,-4.5747,-4.6172,-4.6172,-4.5982,-4.5693,-4.5372,-4.4211,-4.3044,-4.2913,-4.2078,-4.1375,-4.1442,-4.1375,-4.1143,-4.0498,-4.1091,-4.1531,-4.1047,-4.1817,-4.2508,-4.2381,-4.2445,-4.2508,-3.6616,-3.6721,-3.7087,-3.786,-3.8791,-3.8326,-3.8709,-3.9508,-3.8665,-3.8297,-3.8239,-3.726,-3.6514,-3.6016,-3.6016,-3.6593,-3.7636,-3.8281,-3.9157,-4.0201,-4.0821,-4.074,-4.0135,-4.0115,-3.9754,-3.9126,-3.8885,-3.8346,-3.752,-3.7299,-3.6786,-3.6017,-3.5766,-3.6052,-3.6749,-3.6529,-3.599,-3.5172,-3.366,-3.1836,-2.9744,-2.9747,-2.9404,-2.8508,-2.9034,-2.9045,-2.8348,-2.7575,-2.7167,-2.7063,-2.6616,-2.6158,-2.5802,-2.5124,0.0,0.0,0.0,0.0,0.0,0.0,0.0,0.0,0.0,-2.5545,-2.7263,0.0,-2.8776,0.0,-3.0203,-3.1101,-3.2415,-3.1869,0.0,0.0,-3.362,-3.4226,-3.486,-3.5573,-3.6099,-3.6381,-3.7568,-3.8788,-3.9912,-4.1328,-4.287,-4.4325,-4.3535,-4.3061,-4.3799,-4.4091,-4.446,-4.5045,-4.5747,-4.6172,-4.6119,-4.5349,-4.4714,-4.4612,-4.2822,-4.1631,-4.2148,-4.1371,-4.0779,-4.1243,-4.0961,-4.0597,-4.0431,-4.0582,-4.0761,-4.0804,-4.1585,-4.2238,-4.2174,-4.2174,-4.219,-3.5649,-3.5647,-3.6214,-3.7089,-3.8118,-3.8099,-3.8426,-3.886,-3.805,-3.7684,-3.7667,-3.691,-3.6548,-3.6524,-3.6144,-3.6689,-3.7851,-3.7988,-3.8495,-3.934,-3.9786,-3.9725,-3.9273,-3.9273,-3.899,-3.8482,-3.8101,-3.7678,-3.7221,-3.7138,-3.6992,-3.6764,-3.7123,-3.7244,-3.7179,-3.637,-3.5732,-3.5283,-3.298,-3.1178,-2.9868,-2.9508,-2.9042,-2.8323,-2.8756,-2.8779,-2.8266,-2.7604,-2.7284,-2.7167,-2.6721,-2.6404,-2.619,-2.5717,-2.514,0.0,0.0,0.0,0.0,0.0,0.0,0.0,0.0,0.0,0.0,0.0,-2.975,-3.1201,-3.1082,-3.1469,-3.2806,-3.1903,-3.179,-3.3208,-3.3947,-3.4671,-3.5485,-3.647,-3.7122,-3.7248,-3.7906,-3.8773,-3.9868,-4.1329,-4.2745,-4.4187,-4.399,-4.4003,-4.4764,-4.4922,-4.5098,-4.5536,-4.5677,-4.5663,-4.5632,-4.4704,-4.4006,-4.3993,-4.2501,-4.1218,-4.1355,-4.0976,-4.0679,-4.0901,-4.0878,-4.0845,-4.0862,-4.0992,-4.1173,-4.1336,-4.1717,-4.2029,-4.1996,-4.1916,-4.1851,-3.5025,-3.4776,-3.4715,-3.5305,-3.632,-3.7089,-3.7585,-3.7881,-3.7081,-3.6762,-3.6793,-3.6262,-3.6426,-3.6986,-3.6426,-3.6979,-3.8339,-3.7636,-3.7773,-3.8578,-3.86,-3.8539,-3.8436,-3.8436,-3.8408,-3.8296,-3.7561,-3.721,-3.7202,-3.7167,-3.7413,-3.7962,-3.8659,-3.852,-3.7506,-3.5798,-3.5153,-3.5556,-3.2346,-3.061,-3.0398,-2.913,-2.8289,-2.8023,-2.8436,-2.8431,-2.8005,-2.7604,-2.7299,-2.7181,-2.6736,-2.6365,-2.6165,-2.6002,-2.56,0.0,-2.488,0.0,0.0,0.0,0.0,0.0,0.0,0.0,0.0,-2.9239,-3.0786,-3.2485,-3.1994,-3.2189,-3.3673,-3.2675,-3.2515,-3.3955,-3.4845,-3.5623,-3.6384,-3.7517,-3.8262,-3.8262,-3.8019,-3.8245,-3.9343,-4.078,-4.2127,-4.3197,-4.4178,-4.4939,-4.5653,-4.5684,-4.5632,-4.593,-4.547,-4.5089,-4.4921,-4.4167,-4.3694,-4.3786,-4.2552,-4.1376,-4.0922,-4.0745,-4.0638,-4.0519,-4.0945,-4.1302,-4.1409,-4.1601,-4.1802,-4.1727,-4.1889,-4.1949,-4.1916,-4.1736,-4.1491,-3.4515,-3.5131,-3.3941,-3.4083,-3.504,-3.4053,-3.4952,-3.698,-3.6195,-3.5878,-3.5988,-3.6539,-3.6552,-3.6202,-3.6733,-3.7172,-3.7532,-3.7381,-3.7773,-3.8612,-3.8606,-3.8229,-3.7563,-3.7538,-3.75,-3.7444,-3.7279,-3.7175,-3.7125,-3.7705,-3.7644,-3.7057,-3.6968,-3.685,-3.6501,0.0,0.0,0.0,-3.2074,-3.1075,-3.0976,-3.0153,-2.9453,-2.9037,-2.8576,0.0,-2.8024,-2.7401,-2.7055,-2.7041,-2.6606,0.0,0.0,0.0,0.0,0.0,0.0,0.0,0.0,0.0,0.0,0.0,-2.7868,-2.8271,-2.9298,-3.1368,-3.2871,-3.3403,-3.2912,-3.274,-3.3193,-3.2999,-3.321,-3.4036,-3.5299,-3.6367,-3.7048,-3.7371,-3.7517,-3.7501,-3.7475,-3.7836,-3.8874,-4.0292,-4.1497,-4.2241,-4.3669,-4.4535,-4.4437,-4.4309,-4.4269,-4.4669,-4.4806,-4.4771,-4.4722,-4.4213,-4.382,-4.3821,-4.2292,-4.1045,-4.0836,-4.0491,-4.0326,-4.0393,-4.0849,-4.1321,-4.1368,-4.1239,-4.1262,-4.1147,-4.1395,-4.1689,-4.1981,-4.1785,-4.1299,-3.4358,-3.4541,-3.3876,-3.3751,0.0,-3.3734,-3.4285,-3.5288,-3.5033,-3.5172,-3.5706,-3.661,-3.6792,-3.6475,-3.6955,-3.7234,-3.7226,-3.6829,-3.6894,-3.7303,-3.7317,-3.7094,-3.6657,-3.7074,-3.7225,-3.7214,-3.7644,-3.7798,-3.7774,-3.8541,-3.8433,-3.7462,-3.767,-3.7192,-3.5984,-3.4279,-3.3471,-3.3606,-3.2232,-3.1341,-3.0842,-3.0074,-2.9273,-2.8494,-2.8253,0.0,0.0,0.0,0.0,0.0,0.0,0.0,0.0,-2.6272,0.0,-2.6165,-2.5948,-2.6111,-2.6788,-2.6669,-2.6957,-2.7899,-2.8614,-2.947,-3.0495,-3.1719,-3.2846,-3.3697,-3.3271,-3.3145,-3.3534,-3.2789,-3.2837,-3.4441,-3.5416,-3.6291,-3.7161,-3.763,-3.7841,-3.7825,-3.7866,-3.8041,-3.8319,-3.948,-4.0536,-4.1226,-4.2437,-4.3709,-4.464,-4.4709,-4.4657,-4.4538,-4.4605,-4.4433,-4.3716,-4.3168,-4.2963,-4.2839,-4.1844,-4.1037,-4.1055,-4.1127,-4.1222,-4.119,-4.1658,-4.2068,-4.1898,-4.2005,-4.2035,-4.1714,-4.1901,-4.2164,-4.2253,-4.1769,-4.108,-3.4379,-3.3963,-3.3854,-3.3634,-3.3355,-3.3872,-3.3923,-3.3665,-3.418,0.0,0.0,-3.6535,-3.689,-3.6774,-3.7053,-3.7118,-3.6934,-3.6316,-3.6015,-3.6012,-3.6007,-3.6074,-3.6228,-3.6865,-3.7336,-3.7681,-3.8344,-3.8669,-3.8669,-3.9145,-3.8929,-3.8105,-3.8276,-3.7302,-3.5212,-3.3195,-3.2557,-3.3183,-3.2103,-3.1148,-3.0342,-2.9504,-2.8574,-2.761,-2.774,-2.7655,-2.7386,-2.7144,-2.7003,-2.6951,-2.6447,-2.6272,-2.6418,-2.6111,-2.6002,-2.6056,-2.5893,-2.6096,-2.6811,-2.6797,-2.7063,-2.7891,-2.9139,-3.0288,-3.1144,-3.1573,-3.2353,-3.3646,-3.345,-3.3452,-3.3969,-3.2869,-3.2853,-3.494,-3.5695,-3.6393,-3.7193,-3.7825,-3.8132,-3.8213,-3.8042,-3.7942,-3.7715,-3.8562,-3.9343,-3.9883,-4.0881,-4.2532,-4.4711,-4.537,-4.5213,-4.4317,-4.4127,-4.382,-4.2791,-4.2277,-4.1918,-4.2202,-4.1657,-4.1188,-4.1442,-4.1865,-4.2009,-4.1678,-4.2439,-4.2692,-4.2485,-4.2583,-4.2857,-4.2315,-4.2402,-4.2456,-4.2061,-4.1412,-4.0758,-3.448,-3.4488,-3.3304,-3.3206,-3.3696,-3.23,-3.2219,-3.3128,-3.4538,-3.5215,-3.5417,-3.6395,-3.6435,-3.5834,-3.6717,-3.6748,-3.6094,-3.6013,-3.601,-3.6015,-3.6011,-3.6339,-3.6943,-3.7053,-3.7903,-3.9273,-3.9385,-3.9505,-3.9501,-3.8606,-3.7979,-3.7513,-3.6054,-3.4608,-3.3294,-3.2284,-3.1777,-3.1686,-3.0597,-2.9934,-2.9697,-2.8654,-2.7913,-2.753,-2.7284,-2.7196,-2.7233,-2.7093,-2.6937,-2.6846,-2.6578,-2.6365,-2.6165,-2.6111,-2.6071,-2.6125,-2.6056,-2.6286,-2.6765,-2.6878,-2.7358,-2.8479,-2.9585,-3.0248,-3.0418,-3.1781,-3.2817,-3.3187,-3.3443,-3.3649,-3.3761,-3.4253,-3.4578,-3.5062,-3.6766,-3.7834,-3.7355,-3.742,-3.7533,-3.7566,-3.7026,-3.6787,-3.7,-3.76,-3.8008,-3.7968,-3.9478,-4.1398,-4.3127,-4.4595,-4.4696,-4.351,-4.2963,-4.2652,-4.2196,-4.2416,-4.2328,-4.2409,-4.2055,-4.1765,-4.1862,-4.1743,-4.163,-4.1581,-4.207,-4.2439,-4.2606,-4.208,-4.1821,-4.1715,-4.1617,-4.1262,-4.0846,-4.0613,-4.0377,-3.4383,-3.3713,-3.3132,-3.2958,-3.3002,-3.2413,-3.2709,-3.3661,-3.4389,-3.4869,-3.5248,-3.6174,-3.6208,-3.5596,-3.6503,-3.6534,-3.5839,-3.5912,-3.5962,-3.6053,-3.6481,-3.6406,-3.6082,-3.752,-3.779,-3.7019,-3.8057,-3.8613,-3.8591,-3.7336,-3.6794,-3.6861,-3.4604,-3.3008,-3.2417,-3.1776,-3.113,-3.0573,-3.0182,-2.9724,-2.9182,-2.8403,-2.773,-2.7152,-2.6997,-2.7011,-2.7093,-2.6922,-2.687,-2.6899,-2.6592,-2.6351,-2.6312,-2.6111,-2.5907,-2.5812,-2.5757,-2.5962,-2.6394,-2.6945,-2.7476,-2.8002,-2.922,-2.9903,-2.9833,-3.1326,-3.2437,-3.278,-3.314,-3.3419,-3.3639,-3.4098,-3.439,-3.4361,-3.5808,-3.6843,-3.7132,-3.7252,-3.7469,-3.7792,-3.7614,-3.7258,-3.7031,-3.7151,-3.7215,-3.7112,-3.8735,-4.04,-4.1308,-4.1244,-4.1692,-4.2644,-4.261,-4.2034,-4.1504,-4.1493,-4.1641,-4.1798,-4.1715,-4.1756,-4.1986,-4.1803,-4.174,-4.1677,-4.1725,-4.1625,-4.1585,-4.1442,-4.1203,-4.0836,-4.1181,-4.0972,-4.07,-4.0224,-3.9783,-3.3897,-3.277,-3.2925,-3.2793,-3.2399,-3.27,-3.3146,-3.3652,-3.3799,-3.4064,-3.4517,-3.5496,-3.5598,-3.5111,-3.5576,-3.5422,-3.4897,-3.4982,-3.4956,-3.4937,-3.5896,-3.5723,-3.4883,-3.6807,-3.6547,-3.4716,-3.5883,-3.6678,-3.6772,-3.5488,-3.4892,-3.4891,-3.2729,-3.1422,-3.1273,-3.069,-3.0077,-2.9387,-2.9544,-2.93,-2.8592,-2.7936,-2.721,-2.6592,-2.6616,-2.6669,-2.6606,-2.6578,-2.6698,-2.6832,-2.6472,-2.6297,-2.6404,-2.6056,-2.5757,-2.555,-2.5605,-2.5812,-2.6218,-2.6893,-2.7357,-2.7467,-2.8771,-2.9559,-2.9624,-3.1106,-3.2144,-3.2468,-3.2641,-3.2926,-3.3324,-3.3482,-3.3514,-3.3662,-3.4505,-3.553,-3.6541,-3.6933,-3.7359,-3.8003,-3.8049,-3.7735,-3.7359,-3.7045,-3.683,-3.695,-3.7763,-3.862,-3.9232,-3.8356,-3.8947,-4.0707,-4.1622,-4.1355,-4.0678,-4.054,-4.0728,-4.1066,-4.1276,-4.1533,-4.1869,-4.1948,-4.1916,-4.1787,-4.1501,-4.1246,-4.078,-4.0942,-4.1039,-4.072,-4.0909,-4.0946,-4.0293,-3.9677,-3.9292,-3.2806,-3.2266,-3.2332,-3.2545,-3.2509,-3.2417,-3.2225,-3.2107,-3.2576,-3.275,-3.2757,-3.3746,-3.4116,-3.3844,-3.312,-3.2535,-3.2117,-3.2305,-3.2143,-3.1733,-3.2885,-3.3593,-3.3647,-3.3341,-3.3356,-3.3788,-3.3496,-3.3793,-3.442,-3.3115,-3.1855,-3.0771,-2.9687,-2.9267,-2.9147,-2.8514,-2.7951,-2.775,-2.7884,-2.7914,-2.784,-2.6602,-2.5865,-2.5742,-2.5879,-2.577,-2.5522,-2.6014,-2.6351,-2.6351,-2.6204,-2.6111,-2.6111,-2.5757,-2.5592,-2.5674,-2.5798,-2.6125,-2.6606,-2.651,-2.6774,-2.7548,-2.8545,-2.9317,-2.9615,-3.1501,-3.2518,-3.2266,-3.2038,-3.2388,-3.2897,-3.3013,-3.3099,-3.3159,-3.3925,-3.4793,-3.5419,-3.6068,-3.6759,-3.7397,-3.7385,-3.7266,-3.7156,-3.6927,-3.6735,-3.6294,-3.5764,-3.6013,-3.7497,-3.7644,-3.7454,-3.8262,-3.9048,-4.0042,-4.0167,-4.0091,-4.0306,-4.0642,-4.1164,-4.1546,-4.1688,-4.1654,-4.1654,-4.1654,-4.1446,-4.129,-4.1306,-4.1559,-4.1204,-4.0758,-4.051,-4.006,-3.922,-3.8797,-3.8797,-3.1601,-3.0937,-3.1151,-3.1213,-3.1182,-3.133,-3.0928,-3.0367,-3.1215,-3.1349,-3.1107,-3.1498,-3.22,-3.2976,-3.1898,-3.1741,-3.245,-3.1901,-3.1958,-3.2551,-3.4092,-3.4356,-3.3553,-3.4391,-3.3735,-3.1777,-3.2231,-3.2639,-3.2775,-3.2932,-3.2433,-3.1289,-3.0626,-2.999,-2.9312,-2.9007,-2.8312,-2.7174,-2.6992,-2.7074,-2.738,-2.6592,-2.5911,-2.555,-2.5619,-2.5688,-2.566,-2.5988,-2.6204,-2.6283,-2.6042,-2.5948,-2.6071,-2.5633,-2.5286,-2.5286,-2.5481,-2.566,-2.5839,-2.6312,-2.6789,-2.7229,-2.8305,-2.9363,-3.0389,-3.1545,-3.2362,-3.2825,-3.2713,-3.2562,-3.2206,-3.2624,-3.2858,-3.2641,-3.3107,-3.3717,-3.4319,-3.508,-3.5739,-3.6381,-3.6747,-3.6892,-3.6828,-3.6294,-3.575,-3.5212,-3.4441,-3.4601,-3.5384,-3.5879,-3.6614,-3.7374,-3.8072,-3.8841,-3.9713,-4.0181,-4.0467,-4.1004,-4.1399,-4.1588,-4.1588,-4.139,-4.1323,-4.139,-4.0857,-4.0489,-4.0153,-4.0112,-3.9893,-3.978,-3.9753,-3.9133,-3.856,-3.8352,-3.8501,-3.0073,-2.9556,-2.9648,-2.9717,-2.9744,-2.9905,-2.9492,-2.8866,-2.9648,-2.9723,-2.9284,-2.917,-2.9748,-3.0657,-3.0017,-3.0237,-3.084,-3.0245,-3.063,-3.1922,-3.3211,-3.3435,-3.3047,-3.3611,-3.2593,-3.0189,-3.0449,-3.0868,-3.0903,-3.1489,-3.1707,-3.1292,-3.0791,-3.0094,-2.9255,-2.9414,-2.8761,-2.7355,-2.7035,-2.7086,-2.7258,-2.687,-2.6431,-2.5964,-2.6106,-2.612,-2.5883,-2.6242,-2.6321,-2.619,-2.577,-2.5674,-2.5948,-2.5397,-2.5061,-2.5061,-2.5203,-2.53,-2.5272,-2.5893,-2.6458,-2.6803,-2.7837,-2.9057,-3.0221,-3.1262,-3.2117,-3.2792,-3.3096,-3.2777,-3.2397,-3.2695,-3.288,-3.2645,-3.2931,-3.3367,-3.4052,-3.462,-3.5251,-3.584,-3.6322,-3.6461,-3.6338,-3.5652,-3.4914,-3.4532,-3.3967,-3.3619,-3.366,-3.4408,-3.5383,-3.7163,-3.7467,-3.8049,-3.939,-3.996,-4.0609,-4.1254,-4.1522,-4.1456,-4.1456,-4.1122,-4.0919,-4.0857,-4.0069,-3.9657,-3.9742,-3.9343,-3.8873,-3.8522,-3.8516,-3.856,-3.8202,-3.8142,-3.8127,-2.8084,-2.8038,-2.8008,-2.8199,-2.8545,-2.8198,-2.7893,-2.7573,-2.7826,-2.7715,-2.7345,-2.6878,-2.6602,-2.6791,-2.7147,-2.6697,-2.5931,-2.6441,-2.7199,-2.8082,-2.851,-2.9612,-3.145,-2.955,-2.8899,-2.9361,-2.8371,-2.8049,-2.8633,-2.7867,-2.8119,-2.9884,-2.9204,-2.8468,-2.8523,-2.9049,-2.8803,-2.8068,-2.8295,-2.8201,-2.7313,-2.7332,-2.7326,-2.7193,-2.7681,-2.7199,-2.6062,-2.668,-2.6816,-2.5976,-2.5397,-2.523,-2.5619,-2.5104,-2.4892,-2.5118,-2.5174,-2.5258,-2.53,-2.5272,-2.5453,-2.6173,-2.7201,-2.8095,-2.8886,-3.064,-3.1754,-3.1892,-3.265,-3.3166,-3.3532,-3.3427,-3.3517,-3.3607,-3.3742,-3.4106,-3.4744,-3.4821,-3.5276,-3.5795,-3.6009,-3.6039,-3.5976,-3.5231,-3.4759,-3.4426,-3.385,-3.3366,-3.3408,-3.345,-3.4699,-3.6444,-3.7239,-3.759,-3.9109,-3.9519,-4.0037,-4.0745,-4.1021,-4.1158,-4.1055,-4.0867,-4.0631,-4.0324,-3.9698,-3.9384,-3.9474,-3.926,-3.8839,-3.8488,-3.8266,-3.8142,-3.7789,-3.7872,-3.7857,-2.7256,-2.7197,-2.6346,-2.6261,-2.6436,-2.5741,-2.5742,-2.6301,-2.6314,-2.6362,-2.6321,-2.6144,-2.5687,-2.4978,-2.5123,-2.5369,-2.5499,-2.5176,-2.6249,-2.841,-2.9223,-3.0696,-3.2577,-3.188,-3.1138,-3.0658,-2.9945,-2.9436,-2.9356,-2.9888,-3.0157,-3.0163,-3.0417,-3.0158,-2.9613,-2.9714,-2.9342,-2.8482,-2.8813,-2.8757,-2.8204,-2.8354,-2.8521,-2.8552,-2.8054,-2.7134,-2.5842,-2.6594,-2.6526,-2.5467,-2.5174,-2.5061,-2.5061,-2.4708,-2.458,-2.4765,-2.4878,-2.4948,-2.4991,-2.4991,-2.5281,-2.5905,-2.6444,-2.7432,-2.882,-3.0319,-3.1389,-3.1782,-3.245,-3.315,-3.3617,-3.3692,-3.3561,-3.3469,-3.3653,-3.3849,-3.4105,-3.439,-3.4766,-3.5022,-3.5368,-3.5582,-3.5364,-3.5034,-3.4698,-3.446,-3.3825,-3.3398,-3.3395,-3.3676,-3.4565,-3.5587,-3.6428,-3.7234,-3.8279,-3.8746,-3.9147,-3.9866,-4.0333,-4.0146,-4.0063,-3.9768,-3.9571,-3.9113,-3.8708,-3.8442,-3.8368,-3.8144,-3.7872,-3.7886,-3.7687,-3.7605,-3.7247,-3.7486,-3.7519,-2.6207,-2.6035,-2.5097,-2.4753,-2.4858,-2.4115,-2.4093,-2.46,-2.4568,-2.4495,-2.4277,-2.4154,-2.3747,-2.3226,-2.3062,-2.3401,-2.4099,-2.3863,-2.5193,-2.7649,-2.7681,-2.9381,-3.2125,-3.1835,-3.1625,-3.1627,-3.1046,-3.0457,-3.0243,-3.1098,-3.1336,-3.115,-3.1724,-3.1551,-3.0758,-3.0837,-3.0407,-2.9574,-2.9702,-2.9781,-2.9368,-2.9226,-2.9334,-2.9336,-2.8517,-2.7611,-2.684,-2.6998,-2.6594,-2.5643,-2.4872,-2.4465,-2.4408,-2.4176,-2.4221,-2.4536,-2.4721,-2.4721,-2.4664,-2.4821,-2.5111,-2.549,-2.588,-2.6721,-2.8236,-2.9224,-3.0066,-3.0918,-3.1706,-3.2478,-3.3289,-3.3691,-3.3813,-3.3735,-3.3925,-3.405,-3.3955,-3.4356,-3.4579,-3.4713,-3.5026,-3.5155,-3.494,-3.4796,-3.4651,-3.4379,-3.3923,-3.3686,-3.3752,-3.4164,-3.4752,-3.5163,-3.5792,-3.643,-3.6923,-3.7113,-3.8369,-3.921,-3.9303,-3.9207,-3.8963,-3.8701,-3.8355,-3.7943,-3.7595,-3.7295,-3.7056,-3.69,-3.69,-3.6978,-3.7148,-3.7141,-3.7076,-3.7215,-3.7002,-2.4848,-2.4669,-2.4153,-2.3896,-2.3831,-2.3472,-2.2979,-2.2532,-2.2639,-2.2216,-2.1472,-2.0808,-2.1094,-2.0983,-2.0973,-2.0852,-2.1441,-2.2179,-2.3431,-2.4848,-2.3253,-2.5414,-3.0145,-2.8704,-2.9425,-3.1712,-3.053,-3.0118,-3.0599,-3.0715,-3.1236,-3.2219,-3.2233,-3.2121,-3.1705,-3.2081,-3.1921,-3.1243,-3.1213,-3.1101,-3.0615,-2.9869,-2.9588,-2.97,-2.9139,-2.8739,-2.8489,-2.7883,-2.7165,-2.6194,-2.4609,-2.3616,-2.3708,-2.3636,-2.3884,-2.4376,-2.4677,-2.4607,-2.4421,-2.4593,-2.4677,-2.4953,-2.5356,-2.6009,-2.6714,-2.7377,-2.8285,-2.949,-3.0307,-3.1209,-3.2511,-3.3288,-3.3999,-3.4758,-3.4714,-3.4699,-3.4773,-3.4876,-3.492,-3.4876,-3.5001,-3.4935,-3.4853,-3.4679,-3.4498,-3.4475,-3.4394,-3.4377,-3.4434,-3.4647,-3.5171,-3.5559,-3.563,-3.5795,-3.5582,-3.5469,-3.7167,-3.8458,-3.8305,-3.8129,-3.7771,-3.7492,-3.7008,-3.6618,-3.6549,-3.6253,-3.6401,-3.6258,-3.63,-3.6392,-3.6554,-3.6331,-3.6046,-3.5885,-3.6226,-2.4026,-2.3602,-2.3138,-2.2993,-2.2868,-2.1882,-2.1474,-2.1646,-2.1498,-2.1114,-2.0656,-2.0528,-2.0505,-2.0557,-2.0335,-2.0424,-2.0735,-2.0813,-2.1758,-2.3105,-2.2631,-2.3931,-2.6508,-2.6709,-2.7775,-2.9787,-3.0194,-3.0261,-3.0598,-3.1443,-3.1952,-3.1566,-3.2147,-3.2573,-3.2476,-3.2525,-3.232,-3.2155,-3.2201,-3.1807,-3.0837,-3.0587,-3.0206,-2.9559,-2.9505,-2.911,-2.8099,-2.8285,-2.7537,-2.5719,-2.5536,-2.4877,-2.3726,-2.3365,-2.3352,-2.3616,-2.4028,-2.4274,-2.4189,-2.4073,-2.4131,-2.4464,-2.5043,-2.5647,-2.6215,-2.7404,-2.8186,-2.8505,-2.8838,-2.9564,-3.0443,-3.1128,-3.2424,-3.4298,-3.4549,-3.4668,-3.4802,-3.4868,-3.4935,-3.4935,-3.4935,-3.4935,-3.492,-3.4706,-3.4712,-3.4697,-3.4733,-3.4823,-3.5076,-3.4921,-3.5044,-3.5292,-3.5205,-3.5021,-3.4875,-3.4758,-3.5577,-3.6558,-3.6558,-3.679,-3.6558,-3.6415,-3.5925,-3.5613,-3.5471,-3.5452,-3.5521,-3.5483,-3.5497,-3.5384,-3.5269,-3.4849,-3.4244,-3.4499,-3.5155,-2.3074,-2.2517,-2.2325,-2.2143,-2.1944,-2.0853,-2.0599,-2.0747,-2.0348,-1.9947,-1.9523,-1.9373,-1.942,-1.9474,-1.9357,-1.9459,-1.9747,-1.9423,-1.9829,-2.0894,-2.1039,-2.2178,-2.4325,-2.5573,-2.6653,-2.7926,-2.8775,-2.9249,-2.9455,-3.0132,-3.0176,-2.9727,-3.0951,-3.1659,-3.1891,-3.2579,-3.2918,-3.2848,-3.2788,-3.2338,-3.1475,-3.1162,-3.0711,-2.987,-2.9491,-2.9078,-2.8514,-2.8785,-2.7788,-2.5734,-2.5333,-2.4531,-2.3245,-2.3053,-2.3017,-2.3198,-2.3569,-2.3865,-2.3721,-2.378,-2.3721,-2.3922,-2.451,-2.5126,-2.5779,-2.7103,-2.7861,-2.8365,-2.9003,-2.9595,-3.0459,-3.0665,-3.1668,-3.3192,-3.3959,-3.4264,-3.4467,-3.4534,-3.4549,-3.4481,-3.4534,-3.4601,-3.4601,-3.4668,-3.4668,-3.4587,-3.4551,-3.4787,-3.4963,-3.4773,-3.4617,-3.4579,-3.461,-3.4397,-3.4269,-3.4182,-3.4214,-3.4488,-3.4675,-3.5006,-3.5125,-3.5444,-3.5278,-3.5016,-3.4838,-3.4634,-3.4662,-3.4364,-3.4219,-3.4068,-3.3968,-3.3964,-3.3801,-3.4121,-3.4637,-2.1913,-2.1303,-2.1451,-2.1181,-2.072,-2.0352,-1.9946,-1.9584,-1.917,-1.8588,-1.7951,-1.7613,-1.7646,-1.7856,-1.7839,-1.7995,-1.8355,-1.8052,-1.7899,-1.8104,-1.8354,-1.9649,-2.2104,-2.4074,-2.5352,-2.6104,-2.672,-2.7301,-2.7941,-2.7634,-2.6845,-2.7589,-2.9454,-3.0052,-3.0541,-3.2394,-3.3515,-3.3144,-3.3187,-3.2825,-3.2076,-3.1719,-3.1251,-3.0644,-2.9631,-2.9189,-2.9263,-2.8764,-2.7686,-2.5754,-2.4398,-2.3368,-2.2811,-2.2836,-2.2957,-2.3078,-2.3378,-2.345,-2.3378,-2.3662,-2.376,-2.3336,-2.405,-2.4594,-2.5318,-2.6458,-2.7584,-2.8721,-2.9663,-3.0686,-3.1311,-3.148,-3.1555,-3.2027,-3.2972,-3.3514,-3.3671,-3.3599,-3.3471,-3.3611,-3.3794,-3.3848,-3.369,-3.384,-3.3815,-3.3736,-3.3579,-3.3941,-3.4315,-3.4103,-3.3579,-3.3593,-3.3819,-3.3725,-3.3492,-3.352,-3.348,-3.3396,-3.3452,-3.369,-3.3884,-3.421,-3.4547,-3.4263,-3.4025,-3.3927,-3.3783,-3.3512,-3.312,-3.2922,-3.2999,-3.3221,-3.3165,-3.3028,-3.3176,-1.962,-1.8883,-1.9091,-1.9316,-1.9289,-1.865,-1.8547,-1.8735,-1.7673,-1.7217,-1.7144,-1.6669,-1.6629,-1.6984,-1.6726,-1.6871,-1.7098,-1.669,-1.6822,-1.7329,-1.6988,-1.7777,-1.9406,-2.1176,-2.2794,-2.3967,-2.4873,-2.6058,-2.7153,-2.6768,-2.6892,-2.7388,-2.9156,-3.0354,-3.058,-3.276,-3.3762,-3.3206,-3.3473,-3.3395,-3.2756,-3.2529,-3.2028,-3.1344,-3.09,-2.9985,-2.8768,-2.7566,-2.7053,-2.6584,-2.4296,-2.309,-2.3138,-2.3078,-2.2957,-2.2775,-2.333,-2.3509,-2.3138,-2.3463,-2.3688,-2.3851,-2.4356,-2.5294,-2.6248,-2.6713,-2.7344,-2.8131,-2.8695,-2.9197,-2.9548,-3.0418,-3.1398,-3.243,-3.1972,-3.1734,-3.1832,-3.1664,-3.1718,-3.18,-3.1951,-3.1994,-3.2033,-3.2047,-3.2188,-3.2345,-3.2554,-3.2764,-3.3312,-3.3466,-3.2933,-3.2877,-3.2975,-3.2861,-3.2832,-3.2832,-3.2717,-3.253,-3.2526,-3.264,-3.2791,-3.2837,-3.3131,-3.3268,-3.3073,-3.2903,-3.2903,-3.2791,-3.2354,-3.1746,-3.1655,-3.1615,-3.0881,-3.0547,-3.0907,-1.8193,-1.7584,-1.7869,-1.8035,-1.8026,-1.7254,-1.7128,-1.7268,-1.6322,-1.6006,-1.6183,-1.5824,-1.5741,-1.6064,-1.5816,-1.5809,-1.5891,-1.547,-1.5621,-1.6175,-1.6557,-1.7235,-1.8257,-1.9345,-2.0379,-2.1425,-2.2471,-2.3272,-2.3921,-2.412,-2.4162,-2.4553,-2.6693,-2.7974,-2.8597,-3.1279,-3.3007,-3.2978,-3.3533,-3.3518,-3.2832,-3.3117,-3.2746,-3.1992,-3.1588,-3.0526,-2.8771,-2.746,-2.6627,-2.6096,-2.4732,-2.3704,-2.3296,-2.333,-2.3078,-2.2665,-2.321,-2.3271,-2.286,-2.3131,-2.343,-2.364,-2.4375,-2.5498,-2.6388,-2.6822,-2.7322,-2.8388,-2.864,-2.9009,-2.9502,-3.0037,-3.0184,-2.9877,-2.9562,-2.9875,-3.1474,-3.2054,-3.1777,-3.1542,-3.1417,-3.1279,-3.095,-3.0881,-3.1184,-3.1544,-3.1764,-3.2009,-3.2331,-3.2403,-3.2345,-3.216,-3.216,-3.2114,-3.2128,-3.2128,-3.2128,-3.1936,-3.1863,-3.1963,-3.1897,-3.1897,-3.2064,-3.2332,-3.2137,-3.192,-3.1863,-3.1612,-3.0919,-3.0428,-3.0228,-3.0203,-2.9806,-2.9484,-2.9716,-1.7355,-1.687,-1.718,-1.7172,-1.674,-1.6047,-1.5853,-1.5831,-1.4946,-1.4802,-1.5108,-1.4803,-1.481,-1.5137,-1.4817,-1.4748,-1.4566,-1.4132,-1.4307,-1.488,-1.5786,-1.682,-1.7337,-1.8394,-1.8966,-1.936,-1.9752,-2.0178,-2.0529,-2.006,-2.0227,-2.1905,-2.3467,-2.5097,-2.7844,-3.0004,-3.1592,-3.3034,-3.3789,-3.3752,-3.3254,-3.355,-3.3358,-3.2598,-3.1736,-3.088,-2.9551,-2.8271,-2.7092,-2.5668,-2.5342,-2.4442,-2.3479,-2.3535,-2.3384,-2.3083,-2.317,-2.3133,-2.2577,-2.3215,-2.3344,-2.3287,-2.4329,-2.5357,-2.6037,-2.6528,-2.7142,-2.8321,-2.8997,-2.9353,-3.009,-2.983,-2.8982,-2.8105,-2.7408,-2.9056,-3.1708,-3.2807,-3.2361,-3.1599,-3.1474,-3.1158,-3.0787,-3.0554,-3.0596,-3.0335,-3.0672,-3.1128,-3.1468,-3.1723,-3.1516,-3.122,-3.1233,-3.1421,-3.1421,-3.1421,-3.1482,-3.1408,-3.1408,-3.1447,-3.1307,-3.136,-3.135,-3.1402,-3.1761,-3.1431,-3.0788,-3.0343,-2.993,-2.9592,-2.9689,-2.9883,-2.9947,-2.9639,-2.9639,-1.6085,-1.5492,-1.5394,-1.5379,-1.5245,-1.4468,-1.4564,-1.5313,-1.3877,-1.3668,-1.4323,-1.3944,-1.3704,-1.3789,-1.3457,-1.3385,-1.3385,-1.2607,-1.2437,-1.3464,-1.4622,-1.5389,-1.6186,-1.7601,-1.8417,-1.8497,-1.8761,-1.8903,-1.8762,-1.9077,-2.0162,-2.2518,-2.4102,-2.7376,-2.9318,-3.1105,-3.3859,-3.404,-3.4225,-3.3946,-3.3587,-3.371,-3.3746,-3.331,-3.2222,-3.1304,-3.0458,-2.9425,-2.8538,-2.7509,-2.6116,-2.4891,-2.4175,-2.387,-2.3728,-2.3542,-2.3725,-2.3729,-2.3518,-2.3798,-2.4157,-2.3895,-2.4374,-2.5123,-2.5805,-2.591,-2.6367,-2.7135,-2.7548,-2.8164,-2.886,-2.8975,-2.8537,-2.8285,-2.826,-2.876,-3.0156,-2.9644,-2.9105,-2.8716,-2.8718,-2.8451,-2.8305,-2.8411,-2.8677,-2.8976,-2.9614,-3.0156,-3.0626,-3.1154,-3.0996,-3.0784,-3.0633,-3.0735,-3.0659,-3.0646,-3.0722,-3.0797,-3.0859,-3.0709,-3.0649,-3.0942,-3.1005,-3.1329,-3.1696,-3.1097,-3.0101,-3.033,-3.019,-2.9677,-2.9197,-2.9419,-2.9574,-2.9496,-2.9586,-1.4097,-1.3661,-1.3367,-1.3258,-1.3035,-1.2419,-1.2349,-1.27,-1.191,-1.179,-1.2331,-1.219,-1.2169,-1.2248,-1.1918,-1.1837,-1.1746,-1.1139,-1.1311,-1.2425,-1.3347,-1.4021,-1.4866,-1.5944,-1.6683,-1.6838,-1.7658,-1.7755,-1.7674,-1.8231,-1.9389,-2.1058,-2.2816,-2.3829,-2.6224,-2.8494,-2.8834,-2.9402,-3.0098,-3.0286,-3.0184,-3.1582,-3.3018,-3.3307,-3.2323,-3.1233,-3.114,-3.0002,-2.9096,-2.8246,-2.7209,-2.6008,-2.5009,-2.4571,-2.4316,-2.4114,-2.4248,-2.4054,-2.3815,-2.3989,-2.4365,-2.4381,-2.4642,-2.537,-2.5757,-2.5708,-2.5781,-2.6433,-2.6688,-2.6735,-2.7211,-2.761,-2.7893,-2.7531,-2.7506,-2.7634,-2.7958,-2.8226,-2.8245,-2.802,-2.8262,-2.8065,-2.7747,-2.7416,-2.7991,-2.8817,-2.9021,-2.964,-3.065,-3.1022,-3.0934,-3.0722,-3.0343,-3.019,-2.9947,-2.9871,-2.9871,-3.0024,-3.0177,-2.9935,-2.9767,-3.0216,-3.0735,-3.0859,-3.0784,-3.0343,-2.9651,-3.0024,-3.0165,-2.9484,-2.904,-2.904,-2.9197,-2.9341,-2.9419,-1.238,-1.1954,-1.1757,-1.1398,-1.0991,-1.0587,-1.0362,-1.0135,-0.9652,-0.9921,-1.011,-1.0272,-1.0297,-1.0524,-1.0188,-1.0014,-0.9923,-1.0096,-1.0524,-1.13,-1.1804,-1.2401,-1.3171,-1.3685,-1.4015,-1.442,-1.5846,-1.6355,-1.6445,-1.7171,-1.8038,-1.8779,-1.9165,-2.1243,-2.2119,-2.244,-2.423,-2.5769,-2.6113,-2.6159,-2.622,-2.8212,-3.0203,-3.1715,-3.2372,-3.1551,-3.1465,-3.0554,-2.9593,-2.8699,-2.8479,-2.7639,-2.6596,-2.5514,-2.5133,-2.496,-2.4993,-2.4615,-2.4162,-2.4241,-2.4606,-2.4594,-2.4859,-2.5432,-2.5864,-2.5493,-2.5552,-2.5827,-2.6019,-2.5562,-2.5779,-2.6214,-2.6008,-2.5587,-2.5431,-2.5465,-2.5963,-2.7736,-2.7862,-2.801,-2.7806,-2.7758,-2.7372,-2.7011,-2.7911,-2.8562,-2.8679,-2.9117,-3.0115,-3.0659,-3.0343,-3.0024,-2.9574,-2.9106,-2.8791,-2.87,-2.8767,-2.9003,-2.9238,-2.9081,-2.8767,-2.8991,-2.9291,-2.9549,-2.9406,-2.9275,-2.9341,-2.9639,-2.9484,-2.9028,-2.8961,-2.8961,-2.9118,-2.9263,-2.9287,-1.233,-1.1702,-1.1481,-1.1054,-1.06,-1.0152,-0.9843,-0.9723,-0.8692,-0.8871,-0.9411,-0.8537,-0.8307,-0.857,-0.8257,-0.8086,-0.8261,-0.8615,-0.9226,-0.9744,-1.0163,-1.0682,-1.06,-1.1375,-1.1466,-1.1563,-1.3081,-1.4357,-1.4796,-1.5065,-1.6564,-1.8674,-1.9021,-2.0354,-2.2185,-2.3755,-2.3227,-2.3811,-2.4129,-2.4355,-2.4956,-2.5789,-2.7535,-2.9766,-3.1402,-3.2167,-3.1851,-3.1414,-3.0939,-3.044,-2.9082,-2.8594,-2.816,-2.694,-2.6155,-2.6012,-2.5854,-2.5462,-2.5042,-2.5199,-2.4968,-2.4565,-2.4767,-2.5075,-2.5195,-2.4908,-2.5015,-2.511,-2.506,-2.4568,-2.4919,-2.5134,-2.5111,-2.4897,-2.4814,-2.4897,-2.5182,-2.561,-2.5934,-2.6119,-2.6741,-2.7356,-2.6845,-2.6596,-2.7062,-2.7616,-2.7848,-2.825,-2.9139,-2.9334,-2.9184,-2.887,-2.8486,-2.8018,-2.7615,-2.7522,-2.7522,-2.7822,-2.7983,-2.7983,-2.7742,-2.7568,-2.773,-2.8383,-2.9094,-2.9484,-2.9484,-2.9328,-2.925,-2.904,-2.8961,-2.8961,-2.9064,-2.918,-2.9175,-1.0201,-0.9776,-0.9022,-0.8465,-0.8143,-0.7722,-0.7484,-0.7327,-0.6833,-0.692,-0.7119,-0.6642,-0.6458,-0.6555,-0.6236,-0.6154,-0.6508,-0.6773,-0.7386,-0.7994,-0.8515,-0.886,-0.8607,-0.9383,-0.9387,-0.9479,-1.0595,-1.2151,-1.3379,-1.3789,-1.4962,-1.6208,-1.6707,-1.7634,-1.9048,-1.9274,-2.013,-2.0655,-2.0731,-2.0959,-2.1684,-2.2374,-2.4893,-2.8538,-3.0278,-3.1618,-3.299,-3.2704,-3.2164,-3.1486,-3.0746,-3.0338,-2.9629,-2.8606,-2.7327,-2.7039,-2.6591,-2.6126,-2.5721,-2.5606,-2.504,-2.4957,-2.5111,-2.5028,-2.4874,-2.4683,-2.455,-2.455,-2.4322,-2.397,-2.4139,-2.42,-2.4189,-2.4177,-2.4189,-2.4322,-2.436,-2.4276,-2.436,-2.4515,-2.5241,-2.5898,-2.6176,-2.6103,-2.634,-2.6626,-2.6967,-2.7575,-2.822,-2.8367,-2.8395,-2.8327,-2.8087,-2.7696,-2.7301,-2.7056,-2.6962,-2.7115,-2.7115,-2.7115,-2.7278,-2.7348,-2.7429,-2.7822,-2.853,-2.9081,-2.9106,-2.8803,-2.8882,-2.904,-2.8961,-2.8973,-2.9047,-2.9108,-2.9242,-0.7947,-0.7523,-0.6519,-0.5978,-0.5662,-0.5393,-0.5181,-0.4965,-0.4955,-0.4984,-0.4999,-0.4644,-0.4374,-0.4263,-0.4107,-0.4109,-0.4469,-0.4559,-0.5351,-0.6142,-0.658,-0.6933,-0.7285,-0.7636,-0.7636,-0.7727,-0.8165,-0.9479,-1.1569,-1.2339,-1.3021,-1.3701,-1.3561,-1.3685,-1.4691,-1.5165,-1.5018,-1.5282,-1.5636,-1.5982,-1.7055,-1.9366,-2.2585,-2.7343,-2.7881,-2.9502,-3.1935,-3.2294,-3.2433,-3.2228,-3.2007,-3.1773,-3.0955,-2.9827,-2.8839,-2.8065,-2.7258,-2.665,-2.6126,-2.5861,-2.5535,-2.5111,-2.5111,-2.4945,-2.4647,-2.4443,-2.4177,-2.3959,-2.3751,-2.3457,-2.3446,-2.3519,-2.3372,-2.315,-2.3446,-2.3751,-2.3434,-2.335,-2.3423,-2.3632,-2.412,-2.4409,-2.4624,-2.5254,-2.5385,-2.5902,-2.6171,-2.6978,-2.7546,-2.7806,-2.7846,-2.7926,-2.7765,-2.7452,-2.7126,-2.6974,-2.688,-2.6951,-2.688,-2.6809,-2.7044,-2.736,-2.7452,-2.7383,-2.7592,-2.8063,-2.8087,-2.8431,-2.8736,-2.8882,-2.8882,-2.9083,-2.9371,-2.9635,-2.9875,-0.7,-0.6157,-0.588,-0.5558,-0.5009,-0.4751,-0.478,-0.4667,-0.3847,-0.3676,-0.3584,-0.2617,-0.2016,-0.1689,-0.1784,-0.2142,-0.259,-0.2854,-0.3298,-0.392,-0.4277,-0.4459,-0.4823,-0.5447,-0.5612,-0.5786,-0.6231,-0.7906,-0.9479,-1.0269,-1.0971,-1.1397,-1.1305,-1.1402,-1.2174,-1.2077,-1.1906,-1.231,-1.319,-1.4223,-1.5423,-1.7968,-1.9791,-2.1434,-2.353,-2.6227,-2.8827,-2.9712,-3.0481,-3.2321,-3.2029,-3.1925,-3.1747,-3.0896,-3.0329,-2.9608,-2.8597,-2.7364,-2.6879,-2.6471,-2.6,-2.5253,-2.4826,-2.4719,-2.4576,-2.4131,-2.3706,-2.3446,-2.3224,-2.3001,-2.3001,-2.3224,-2.2927,-2.2553,-2.2467,-2.2553,-2.2392,-2.2467,-2.2553,-2.2617,-2.3032,-2.2957,-2.3043,-2.383,-2.4464,-2.5013,-2.5519,-2.6279,-2.6898,-2.714,-2.7196,-2.7278,-2.736,-2.7126,-2.7044,-2.6891,-2.6798,-2.6869,-2.6809,-2.6678,-2.6956,-2.7227,-2.6877,-2.6877,-2.7101,-2.7464,-2.7926,-2.8339,-2.8645,-2.8882,-2.8961,-2.9358,-2.9831,-3.0165,-3.0431,-0.4858,-0.4825,-0.392,-0.3474,-0.3164,-0.2689,-0.2436,-0.2375,-0.1894,-0.1592,-0.1461,-0.0694,-0.0088,0.0267,0.0446,0.0268,-0.0268,-0.0446,-0.0802,-0.1427,-0.1784,-0.2144,-0.2145,-0.2502,-0.2856,-0.339,-0.3833,-0.4723,-0.6401,-0.7731,-0.8703,-0.9392,-0.9131,-0.9213,-1.0091,-0.9822,-1.0062,-1.0565,-1.1252,-1.194,-1.2731,-1.4381,-1.636,-1.7949,-2.0147,-2.2737,-2.5207,-2.6698,-2.7262,-2.8802,-2.9577,-3.1041,-3.1116,-3.1218,-3.1622,-3.1723,-2.9406,-2.8038,-2.767,-2.6799,-2.6,-2.5606,-2.5182,-2.4897,-2.4683,-2.4009,-2.3644,-2.3813,-2.3075,-2.2628,-2.2392,-2.2317,-2.2014,-2.1721,-2.1711,-2.1787,-2.1797,-2.1731,-2.1731,-2.1797,-2.1787,-2.17,-2.1842,-2.2639,-2.3619,-2.4537,-2.497,-2.562,-2.6091,-2.6449,-2.6528,-2.6467,-2.6633,-2.6727,-2.6809,-2.6727,-2.6727,-2.6798,-2.6974,-2.6922,-2.7037,-2.7071,-2.687,-2.6954,-2.7345,-2.7635,-2.7975,-2.8179,-2.8498,-2.8816,-2.9131,-2.9665,-3.0214,-3.0654,-3.1116,-0.2509,-0.2839,-0.2054,-0.1696,-0.1459,-0.0872,-0.0632,-0.0557,-0.0244,0.0083,0.0594,0.13,0.1943,0.2139,0.2502,0.2499,0.2052,0.2142,0.1696,0.1071,0.0535,0.0179,-0.0179,-0.0268,-0.0447,-0.0805,-0.116,-0.1961,-0.3029,-0.4362,-0.5687,-0.7544,-0.6923,-0.7365,-0.7891,-0.7701,-0.7596,-0.8463,-0.8702,-0.913,-0.961,-1.0399,-1.2372,-1.4229,-1.6177,-1.8118,-2.1262,-2.2203,-2.2304,-2.4126,-2.6058,-2.7336,-2.7629,-2.9546,-3.0788,-3.1083,-2.9735,-2.9473,-2.8602,-2.7432,-2.6195,-2.5804,-2.5594,-2.504,-2.449,-2.3813,-2.3372,-2.3593,-2.2681,-2.2166,-2.1939,-2.1634,-2.1482,-2.1339,-2.1185,-2.1262,-2.1262,-2.1031,-2.0722,-2.0537,-2.0527,-2.0518,-2.0817,-2.1583,-2.2611,-2.3856,-2.456,-2.4967,-2.5267,-2.5525,-2.5495,-2.5421,-2.5443,-2.5611,-2.579,-2.5957,-2.6207,-2.6512,-2.67,-2.6952,-2.7015,-2.7272,-2.7361,-2.7446,-2.7629,-2.7908,-2.8257,-2.8267,-2.8387,-2.9059,-2.9665,-3.0041,-3.0586,-3.1103,-3.173,-0.017,0.0259,-0.0809,-0.0957,-0.0488,-0.0556,-0.0477,-0.0162,0.0249,0.1017,0.208,0.3358,0.4009,0.4018,0.4289,0.4376,0.3837,0.4198,0.3838,0.3303,0.2856,0.2232,0.1875,0.1606,0.1428,0.0893,0.107,0.098,0.0357,-0.0267,-0.2843,-0.5695,-0.4438,-0.5593,-0.5946,-0.523,-0.523,-0.5838,-0.5917,-0.6259,-0.6779,-0.7476,-0.8251,-0.8981,-0.9591,-1.1069,-1.4972,-1.6041,-1.7219,-1.9345,-2.1341,-2.2494,-2.3442,-2.6514,-2.8127,-2.8221,-2.9149,-2.9075,-2.8708,-2.766,-2.665,-2.6057,-2.5581,-2.4945,-2.425,-2.2723,-2.236,-2.2596,-2.168,-2.1242,-2.1252,-2.1425,-2.1021,-2.0867,-2.0634,-2.0722,-2.0566,-2.0255,-1.9863,-1.9362,-1.9353,-1.9511,-1.958,-2.0353,-2.1322,-2.2503,-2.3742,-2.4231,-2.4074,-2.4224,-2.417,-2.4104,-2.4135,-2.4231,-2.4413,-2.4754,-2.5179,-2.5593,-2.5786,-2.6332,-2.6777,-2.7117,-2.7502,-2.8038,-2.8189,-2.8407,-2.8549,-2.8598,-2.8831,-2.9533,-3.0109,-3.0362,-3.1178,-3.1981,-3.2487,0.1238,0.1991,0.1908,0.136,0.0662,0.0718,0.0875,0.1221,0.2077,0.3251,0.4408,0.5343,0.563,0.5625,0.598,0.6248,0.6062,0.6065,0.5885,0.5528,0.5171,0.4552,0.4105,0.3926,0.3926,0.3566,0.3827,0.3556,0.2667,0.3019,0.2039,0.0265,-0.0798,-0.1868,-0.2223,-0.2578,-0.2847,-0.3206,-0.3382,-0.3645,-0.3997,-0.496,-0.5489,-0.5841,-0.7421,-0.8275,-1.0187,-1.123,-1.2301,-1.376,-1.6099,-1.7119,-1.8346,-2.2026,-2.3767,-2.4035,-2.5324,-2.6291,-2.734,-2.678,-2.6591,-2.5487,-2.4945,-2.4515,-2.3852,-2.2627,-2.1628,-2.1247,-2.0653,-2.0138,-1.9885,-2.007,-2.0079,-2.0079,-2.0167,-2.0186,-1.9942,-1.9548,-1.9311,-1.8886,-1.8895,-1.8993,-1.8984,-1.8975,-2.0102,-2.123,-2.2414,-2.3363,-2.3169,-2.3075,-2.3018,-2.3231,-2.327,-2.3464,-2.3724,-2.3983,-2.4241,-2.4522,-2.4815,-2.5609,-2.6322,-2.7001,-2.7482,-2.811,-2.8587,-2.8601,-2.8694,-2.8841,-2.9154,-2.9573,-3.0114,-3.0548,-3.1527,-3.2667,-3.3009,0.2657,0.3396,0.3712,0.3109,0.2125,0.2227,0.2373,0.2737,0.3613,0.4907,0.6219,0.643,0.6806,0.7068,0.7327,0.7804,0.799,0.8097,0.7921,0.7738,0.7383,0.6946,0.677,0.6678,0.658,0.6313,0.6486,0.6295,0.5585,0.5923,0.5561,0.468,0.3542,0.248,0.0622,0.0445,0.0,-0.0179,-0.0268,-0.0268,-0.0445,-0.0978,-0.1862,-0.2038,-0.3177,-0.4039,-0.4732,-0.5524,-0.5803,-0.7175,-0.891,-1.0909,-1.3038,-1.5425,-1.7895,-1.888,-2.0682,-2.2265,-2.2179,-2.5571,-2.6622,-2.582,-2.5356,-2.4506,-2.3356,-2.2392,-2.1247,-2.071,-1.9866,-1.9097,-1.8948,-1.9497,-1.9631,-1.9739,-1.9692,-1.9613,-1.9152,-1.8825,-1.8665,-1.8496,-1.8264,-1.7797,-1.7622,-1.759,-1.9016,-2.009,-2.1139,-2.1973,-2.2202,-2.2073,-2.2045,-2.2268,-2.258,-2.2853,-2.3115,-2.3212,-2.3309,-2.3593,-2.4017,-2.4982,-2.572,-2.6532,-2.7423,-2.813,-2.8588,-2.8779,-2.8984,-2.9132,-2.932,-2.9476,-3.0074,-3.0799,-3.1767,-3.2855,-3.2908,0.3972,0.4364,0.4029,0.3837,0.3777,0.3759,0.3761,0.3957,0.4603,0.5612,0.6759,0.6956,0.7621,0.8312,0.8606,0.9121,0.9643,0.9932,0.985,0.9488,0.9392,0.9126,0.9035,0.8948,0.903,0.8678,0.8931,0.9109,0.8678,0.8913,0.8909,0.8827,0.7937,0.634,0.3183,0.3015,0.3377,0.3918,0.3735,0.3474,0.3295,0.2847,0.2222,0.1686,0.1415,0.0529,-0.0265,-0.0441,-0.0704,-0.1208,-0.2305,-0.3435,-0.4042,-0.881,-1.0667,-0.9806,-1.9879,-2.0746,-1.499,-2.3549,-2.4886,-2.3624,-2.1981,-2.2708,-2.2364,-2.1618,-2.0478,-1.9847,-1.9,-1.8772,-1.8994,-1.9288,-1.9164,-1.8887,-1.8754,-1.8629,-1.8086,-1.7997,-1.7917,-1.7594,-1.6796,-1.6118,-1.5995,-1.6212,-1.7752,-1.8958,-1.9944,-2.0569,-2.0863,-2.0729,-2.0488,-2.1016,-2.1329,-2.1686,-2.1872,-2.2078,-2.2293,-2.2555,-2.32,-2.4317,-2.5118,-2.5747,-2.6703,-2.7918,-2.8343,-2.8412,-2.897,-2.95,-2.9792,-3.0143,-3.0516,-3.1232,-3.2251,-3.2694,-3.263,0.4838,0.5178,0.5677,0.5851,0.5616,0.4126,0.3851,0.4728,0.581,0.6969,0.7954,0.8363,0.8869,0.9498,0.9937,1.0449,1.1107,1.0539,1.0453,1.1214,1.1209,1.0859,1.0854,1.1187,1.1445,1.1439,1.1707,1.1712,1.137,1.1616,1.1707,1.1627,1.1155,0.909,0.6371,0.5175,0.4782,0.4642,0.4408,0.4279,0.4368,0.4275,0.4184,0.3909,0.4242,0.4062,0.3361,0.3442,0.3351,0.309,0.2023,0.167,0.1225,-0.2979,-0.3338,-0.2974,-0.9825,-1.0764,-0.8564,-1.2515,-1.3546,-1.4289,-1.4906,-1.6908,-2.1552,-2.1595,-2.0323,-1.8559,-1.7446,-1.7107,-1.6992,-1.7719,-1.7736,-1.7147,-1.6935,-1.6911,-1.6724,-1.6985,-1.7001,-1.6593,-1.5959,-1.6194,-1.6167,-1.5265,-1.6195,-1.7745,-1.8696,-1.9082,-1.9446,-1.8867,-1.8514,-1.9273,-1.9786,-2.0249,-2.0619,-2.1078,-2.1544,-2.1857,-2.2706,-2.3779,-2.4493,-2.5083,-2.6023,-2.7239,-2.77,-2.8111,-2.9058,-2.9997,-3.0509,-3.0955,-3.0821,-3.1169,-3.1988,-3.2198,-3.1927,0.5914,0.6222,0.6983,0.7318,0.7003,0.544,0.5263,0.6248,0.7477,0.8547,0.928,0.9737,1.0381,1.0931,1.1449,1.2043,1.2826,1.2504,1.2334,1.3093,1.3002,1.2911,1.3081,1.3406,1.349,1.3672,1.3762,1.3853,1.3432,1.3866,1.3944,1.3924,1.3794,1.2502,1.0242,0.8785,0.7585,0.7444,0.7323,0.697,0.7041,0.6947,0.688,0.6934,0.7101,0.7125,0.6686,0.6415,0.6222,0.588,0.5703,0.5529,0.5165,0.4617,0.4161,0.4157,0.3966,0.1881,0.072,0.4339,0.3275,0.0689,-0.1123,-0.69,-1.3785,-1.2888,-1.4394,-1.4207,-1.4693,-1.5011,-1.4985,-1.5793,-1.5763,-1.5101,-1.4483,-1.4469,-1.5253,-1.5433,-1.5228,-1.4901,-1.4613,-1.5255,-1.5625,-1.5156,-1.4654,-1.6102,-1.749,-1.7699,-1.7885,-1.7309,-1.7043,-1.7787,-1.8503,-1.9063,-1.9704,-2.0257,-2.0718,-2.1177,-2.2141,-2.3252,-2.3894,-2.4447,-2.5452,-2.6453,-2.7268,-2.8228,-2.9557,-3.0425,-3.0599,-3.0447,-3.0104,-3.0737,-3.1743,-3.1726,-3.1474,0.733,0.7557,0.794,0.8178,0.8097,0.7744,0.8137,0.8923,0.9627,1.0018,1.0252,1.1117,1.1786,1.2459,1.3136,1.3801,1.4434,1.4706,1.4789,1.4963,1.4873,1.4956,1.5199,1.5598,1.5591,1.5274,1.5289,1.5613,1.5296,1.5455,1.5711,1.6026,1.6203,1.5315,1.3987,1.2692,1.1324,1.069,1.0184,0.9976,1.0006,1.0626,1.0358,1.0511,1.0731,1.066,1.0434,1.0363,1.0459,1.0787,1.1272,1.1883,1.1934,1.1511,1.2122,1.2475,1.2553,1.1254,1.108,1.5328,1.7631,1.3555,1.177,0.5941,-0.0228,-0.4039,-0.6836,-0.9544,-1.0963,-1.2009,-1.2796,-1.3045,-1.3294,-1.2504,-1.1724,-1.2242,-1.3288,-1.3489,-1.3205,-1.2775,-1.2323,-1.2439,-1.274,-1.2549,-1.2563,-1.3832,-1.5019,-1.5805,-1.5981,-1.6001,-1.596,-1.6591,-1.7296,-1.8048,-1.8696,-1.9239,-2.0167,-2.0727,-2.1545,-2.2535,-2.3142,-2.376,-2.4705,-2.5776,-2.7078,-2.8287,-2.9381,-3.0044,-3.0325,-3.0072,-2.9845,-3.0232,-3.1217,-3.1415,-3.1286,0.808,0.8246,0.8923,0.9296,0.9554,1.0331,1.1306,1.2215,1.1561,1.1346,1.2189,1.2613,1.3212,1.3777,1.4392,1.5036,1.535,1.5553,1.5794,1.6041,1.637,1.6527,1.6854,1.7261,1.7432,1.7585,1.7504,1.7342,1.7342,1.735,1.7342,1.7496,1.7937,1.7493,1.699,1.6207,1.4918,1.3632,1.3,1.2624,1.2481,1.2624,1.2668,1.287,1.3294,1.3195,1.3109,1.3056,1.2983,1.2808,1.3174,1.3426,1.2783,1.3207,1.3778,1.3226,1.352,1.3774,1.4706,1.9678,2.3006,2.3719,2.3927,1.8111,0.9917,0.327,0.0503,-0.2436,-0.5647,-0.6852,-0.7789,-0.8398,-0.9132,-0.9181,-0.8328,-0.8422,-0.9475,-1.0294,-1.0008,-0.9584,-0.908,-0.9722,-0.9966,-0.9908,-1.0082,-1.1419,-1.2522,-1.3369,-1.4136,-1.4153,-1.476,-1.5386,-1.5886,-1.6546,-1.7483,-1.8126,-1.9338,-2.0382,-2.121,-2.1853,-2.2333,-2.3033,-2.3947,-2.5276,-2.6829,-2.8076,-2.9074,-2.9503,-2.9834,-2.9949,-2.9792,-3.0152,-3.0566,-3.0808,-3.0942,0.8947,0.9243,0.9912,1.055,1.1327,1.2351,1.3639,1.4503,1.308,1.2772,1.346,1.4056,1.4522,1.4885,1.5539,1.6131,1.6468,1.687,1.7107,1.7432,1.7594,1.8069,1.839,1.8718,1.8877,1.9125,1.9195,1.9097,1.9107,1.9413,1.9483,1.9307,1.9552,1.9528,1.9388,1.9325,1.8602,1.6888,1.5562,1.4719,1.4473,1.4344,1.4528,1.4668,1.5204,1.5264,1.5209,1.517,1.4928,1.4844,1.5367,1.5614,1.5389,1.6009,1.7016,1.6895,1.7471,1.8241,1.9253,2.1721,2.4503,2.7065,3.108,2.8428,2.3329,1.7403,1.1639,0.654,0.2177,-0.1187,-0.231,-0.3415,-0.4475,-0.5548,-0.4793,-0.4116,-0.5217,-0.6526,-0.6388,-0.5977,-0.6183,-0.696,-0.7271,-0.7267,-0.7681,-0.8995,-0.9912,-1.0546,-1.1441,-1.2141,-1.3087,-1.4154,-1.4459,-1.4943,-1.588,-1.7008,-1.8126,-1.9496,-2.0915,-2.1499,-2.1707,-2.2786,-2.4276,-2.5482,-2.6835,-2.7888,-2.8769,-2.897,-2.9201,-2.934,-2.9504,-2.9714,-2.9957,-3.0327,-3.0522,0.9844,1.0509,1.0954,1.2018,1.3273,1.398,1.5087,1.6397,1.4741,1.4225,1.4681,1.5494,1.6018,1.639,1.6952,1.7204,1.761,1.8086,1.8479,1.8825,1.9274,1.9659,2.0041,2.0313,2.0372,2.0119,2.0119,2.0518,2.0663,2.0894,2.1125,2.1334,2.2048,2.2008,2.1362,2.1965,2.1333,2.0196,1.8599,1.7534,1.7169,1.7077,1.7125,1.7154,1.7363,1.7499,1.7315,1.7261,1.735,1.7755,1.823,1.8612,1.9191,1.9427,2.0526,2.1115,2.1245,2.1721,2.235,2.3989,2.6141,2.8525,3.1128,3.1864,2.8692,2.5319,1.9136,1.5198,1.1087,0.6937,0.5175,0.3109,0.1511,-0.0,-0.0346,-0.0785,-0.2112,-0.2966,-0.279,-0.2562,-0.2978,-0.3804,-0.5143,-0.52,-0.5775,-0.6878,-0.7211,-0.7657,-0.8948,-0.987,-1.1274,-1.2566,-1.3006,-1.3397,-1.4561,-1.569,-1.6821,-1.8225,-1.9979,-2.1007,-2.1266,-2.2758,-2.4737,-2.5775,-2.6697,-2.7623,-2.8449,-2.8609,-2.888,-2.9018,-2.918,-2.9175,-2.9456,-2.9921,-3.0228,1.093,1.1214,1.2624,1.4068,1.5242,1.5666,1.6106,1.6708,1.6676,1.6879,1.7476,1.7632,1.7844,1.8078,1.8256,1.8505,1.8665,1.9283,1.9678,1.9913,2.0304,2.1048,2.1497,2.1527,2.168,2.2124,2.2199,2.1983,2.2124,2.2295,2.2446,2.2542,2.3169,2.311,2.2988,2.3568,2.333,2.2689,2.2024,2.0329,1.9233,1.9393,1.9475,1.9499,1.9629,1.964,1.9531,1.9437,1.9191,1.9279,2.0382,2.148,2.2739,2.2624,2.3229,2.395,2.3588,2.3852,2.4409,2.5064,2.6324,2.7489,2.9295,3.1258,3.1156,2.9132,2.6627,2.3499,2.0265,1.61,1.2379,1.0007,0.7472,0.584,0.4235,0.2781,0.1313,0.1094,0.1041,0.0576,0.0291,-0.0983,-0.2388,-0.3388,-0.4069,-0.4336,-0.4204,-0.4772,-0.6557,-0.7855,-0.9264,-1.0417,-1.123,-1.1935,-1.3204,-1.4453,-1.5582,-1.7001,-1.8698,-1.9779,-2.0817,-2.2723,-2.4646,-2.5541,-2.6468,-2.7395,-2.8057,-2.8419,-2.8623,-2.8751,-2.8979,-2.9101,-2.9365,-2.9831,-3.0139,1.2289,1.2675,1.4227,1.5293,1.6026,1.6624,1.7033,1.735,1.7997,1.8727,1.9292,1.8895,1.8816,1.9274,1.9371,1.9529,1.9687,2.0294,2.0605,2.0847,2.1527,2.2134,2.251,2.2723,2.2947,2.3401,2.3632,2.3632,2.3706,2.4192,2.4385,2.4362,2.4446,2.4517,2.466,2.4945,2.4908,2.4553,2.4602,2.3522,2.1604,2.1543,2.149,2.1495,2.1509,2.1502,2.1432,2.1273,2.1054,2.0824,2.14,2.2081,2.2859,2.2944,2.3743,2.4566,2.4815,2.4826,2.5554,2.6064,2.6658,2.8206,2.9303,3.2063,3.5028,3.3253,3.1886,2.9195,2.916,2.5651,2.133,1.8439,1.4585,1.1994,1.0914,0.9692,0.7872,0.656,0.5637,0.4319,0.3303,0.1577,0.0298,-0.0399,-0.1186,-0.233,-0.2125,-0.2716,-0.4294,-0.5618,-0.7046,-0.8423,-0.9225,-1.0471,-1.1945,-1.3193,-1.4327,-1.5846,-1.7461,-1.9405,-2.097,-2.2824,-2.4498,-2.5359,-2.6207,-2.7008,-2.758,-2.8099,-2.8351,-2.8515,-2.8821,-2.9143,-2.9443,-2.9741,-3.0139,1.3824,1.4511,1.5613,1.6281,1.6527,1.735,1.7997,1.8399,1.9134,1.9854,2.0479,1.9529,1.945,1.9756,2.006,2.0285,2.074,2.1573,2.1821,2.2349,2.3106,2.361,2.3902,2.4059,2.4204,2.4552,2.4909,2.5276,2.5487,2.5824,2.602,2.6433,2.6582,2.6526,2.6676,2.6786,2.6591,2.6202,2.6095,2.5906,2.4937,2.3833,2.3235,2.305,2.3078,2.3161,2.3139,2.3103,2.2892,2.3029,2.3029,2.38,2.4304,2.4649,2.5259,2.614,2.6314,2.6782,2.7537,2.8093,2.9503,3.0977,3.1674,3.3349,3.6147,3.6563,3.5147,3.5116,3.5117,3.3512,2.9155,2.5274,2.1229,1.7459,1.65,1.4925,1.2832,1.1074,0.9539,0.7939,0.6483,0.4606,0.3255,0.2573,0.1471,0.0385,-0.0767,-0.1442,-0.232,-0.3422,-0.4608,-0.6108,-0.7273,-0.8784,-1.0476,-1.1838,-1.308,-1.4607,-1.6216,-1.8808,-2.1025,-2.2463,-2.3887,-2.5105,-2.5946,-2.6798,-2.7452,-2.795,-2.8191,-2.8455,-2.8736,-2.9143,-2.9287,-2.9677,-3.0139,1.509,1.6198,1.6617,1.7513,1.8559,1.9036,1.952,2.0079,2.0245,2.0644,2.0964,2.1108,2.1108,2.1339,2.1415,2.169,2.2392,2.2999,2.3649,2.423,2.4492,2.4992,2.5346,2.5276,2.5358,2.5755,2.6158,2.6488,2.6718,2.6841,2.6976,2.7338,2.7338,2.7417,2.759,2.7656,2.7749,2.7617,2.7644,2.7578,2.7262,2.6108,2.4841,2.457,2.4648,2.4767,2.4909,2.5252,2.5392,2.5521,2.5624,2.614,2.6468,2.6739,2.7406,2.767,2.7934,2.8066,2.8682,2.9039,3.0241,3.0902,3.1619,3.2936,3.5148,3.6568,3.6186,3.7198,3.7077,3.6461,3.2981,2.9751,2.5955,2.1823,1.9558,1.6461,1.3821,1.3003,1.2029,1.1263,1.0622,0.8419,0.6173,0.5225,0.4076,0.2497,0.0291,-0.0389,-0.0294,-0.1279,-0.2265,-0.377,-0.5304,-0.6913,-0.8609,-1.0386,-1.1736,-1.3273,-1.5272,-1.8257,-2.0494,-2.1765,-2.3096,-2.4744,-2.5801,-2.6655,-2.7313,-2.8137,-2.8354,-2.8607,-2.8852,-2.9131,-2.9287,-2.9677,-3.0216]},{"header":{"parameterUnit":"m.s-1","parameterCategory":1,"la1":31.0,"la2":29.5877,"lo1":-88.7671,"lo2":-86.6584,"dy":0.0162,"dx":0.0185,"nx":115,"ny":88,"refTime":"2024-03-02T06:00:00:Z","depth":0,"parameterNumber":3,"parameterNumberName":"V-component_of_WINDS"},"data":[0.0,0.0,0.0,0.0,0.0,0.0,0.0,0.0,0.0,0.0,0.0,0.0,0.0,0.0,0.0,0.0,0.0,0.0,0.0,0.0,0.0,0.0,0.0,0.0,0.0,0.0,0.0,0.0,0.0,0.0,0.0,0.0,0.0,0.0,0.0,0.0,0.0,0.0,0.0,0.0,0.0,0.0,0.0,0.0,0.0,0.0,0.0,0.0,0.0,0.0,0.0,0.0,0.0,0.0,0.0,0.0,0.0,0.0,0.0,0.0,0.0,0.0,0.0,0.0,0.0,0.0,0.0,0.0,0.0,0.0,0.0,0.0,0.0,0.0,0.0,0.0,0.0,0.0,0.0,0.0,0.0,0.0,0.0,0.0,0.0,0.0,0.0,0.0,0.0,0.0,0.0,0.0,0.0,0.0,0.0,0.0,0.0,0.0,0.0,0.0,0.0,0.0,0.0,0.0,0.0,0.0,0.0,0.0,0.0,0.0,0.0,0.0,0.0,0.0,0.0,0.0,0.0,0.0,0.0,0.0,0.0,0.0,0.0,0.0,0.0,0.0,0.0,0.0,0.0,0.0,0.0,0.0,0.0,0.0,0.0,0.0,0.0,0.0,0.0,0.0,0.0,0.0,0.0,0.0,0.0,0.0,0.0,0.0,0.0,0.0,0.0,0.0,0.0,0.0,0.0,0.0,0.0,0.0,0.0,0.0,0.0,0.0,0.0,0.0,0.0,0.0,0.0,0.0,0.0,0.0,0.0,0.0,0.0,0.0,0.0,0.0,0.0,0.0,0.0,0.0,0.0,0.0,0.0,0.0,0.0,0.0,0.0,0.0,0.0,0.0,0.0,0.0,0.0,0.0,0.0,0.0,0.0,0.0,0.0,0.0,0.0,0.0,0.0,0.0,0.0,0.0,0.0,0.0,0.0,0.0,0.0,0.0,0.0,0.0,0.0,0.0,0.0,0.0,0.0,0.0,0.0,0.0,0.0,0.0,0.0,0.0,0.0,0.0,0.0,0.0,0.0,0.0,0.0,0.0,0.0,0.0,0.0,0.0,0.0,0.0,0.0,0.0,0.0,0.0,0.0,0.0,0.0,0.0,0.0,0.0,0.0,0.0,0.0,0.0,0.0,0.0,0.0,0.0,0.0,0.0,0.0,0.0,0.0,0.0,0.0,0.0,0.0,0.0,0.0,0.0,0.0,0.0,0.0,0.0,0.0,0.0,0.0,0.0,0.0,0.0,0.0,0.0,0.0,0.0,0.0,0.0,0.0,0.0,0.0,0.0,0.0,0.0,0.0,0.0,0.0,0.0,0.0,0.0,0.0,0.0,0.0,0.0,0.0,0.0,0.0,0.0,0.0,0.0,0.0,0.0,0.0,0.0,0.0,0.0,0.0,0.0,0.0,0.0,0.0,0.0,0.0,0.0,0.0,0.0,0.0,0.0,0.0,0.0,0.0,0.0,0.0,0.0,0.0,0.0,0.0,0.0,0.0,0.0,0.0,0.0,0.0,0.0,0.0,0.0,0.0,0.0,0.0,0.0,0.0,0.0,0.0,0.0,0.0,0.0,0.0,0.0,0.0,0.0,0.0,0.0,0.0,0.0,0.0,0.0,0.0,0.0,0.0,0.0,0.0,0.0,0.0,0.0,0.0,0.0,0.0,0.0,0.0,0.0,0.0,0.0,0.0,0.0,0.0,0.0,0.0,0.0,0.0,0.0,0.0,0.0,0.0,0.0,0.0,0.0,0.0,0.0,0.0,0.0,0.0,0.0,0.0,0.0,0.0,0.0,0.0,0.0,0.0,0.0,0.0,0.0,0.0,0.0,0.0,0.0,0.0,0.0,0.0,0.0,0.0,0.0,0.0,0.0,0.0,0.0,0.0,0.0,0.0,0.0,0.0,0.0,0.0,0.0,0.0,0.0,0.0,0.0,0.0,0.0,0.0,0.0,0.0,0.0,0.0,0.0,0.0,0.0,0.0,0.0,0.0,0.0,0.0,0.0,0.0,0.0,0.0,0.0,0.0,0.0,0.0,0.0,0.0,0.0,0.0,0.0,0.0,0.0,0.0,0.0,0.0,0.0,0.0,0.0,0.0,0.0,0.0,0.0,0.0,0.0,0.0,0.0,0.0,0.0,0.0,0.0,0.0,0.0,0.0,0.0,0.0,0.0,0.0,0.0,0.0,0.0,0.0,0.0,0.0,0.0,0.0,0.0,0.0,0.0,0.0,0.0,0.0,0.0,0.0,0.0,0.0,0.0,0.0,0.0,0.0,0.0,0.0,0.0,0.0,0.0,0.0,0.0,0.0,0.0,0.0,0.0,0.0,0.0,0.0,0.0,0.0,0.0,0.0,0.0,0.0,0.0,0.0,0.0,0.0,0.0,0.0,0.0,0.0,0.0,0.0,0.0,0.0,0.0,0.0,0.0,0.0,0.0,0.0,0.0,0.0,0.0,0.0,0.0,0.0,0.0,0.0,0.0,0.0,0.0,0.0,0.0,0.0,0.0,0.0,0.0,0.0,0.0,0.0,0.0,0.0,0.0,0.0,0.0,0.0,0.0,0.0,0.0,0.0,0.0,0.0,0.0,0.0,0.0,0.0,0.0,0.0,0.0,0.0,0.0,0.0,0.0,0.0,0.0,0.0,0.0,0.0,0.0,0.0,0.0,0.0,0.0,0.0,0.0,0.0,0.0,0.0,0.0,0.0,0.0,0.0,0.0,0.0,0.0,0.0,0.0,0.0,0.0,0.0,0.0,0.0,0.0,0.0,0.0,0.0,0.0,0.0,0.0,0.0,0.0,0.0,0.0,0.0,0.0,0.0,0.0,0.0,0.0,0.0,0.0,0.0,0.0,0.0,0.0,0.0,0.0,0.0,0.0,0.0,0.0,0.0,0.0,0.0,0.0,0.0,0.0,0.0,0.0,0.0,0.0,0.0,0.0,0.0,0.0,0.0,0.0,0.0,0.0,0.0,0.0,0.0,0.0,0.0,0.0,0.0,0.0,0.0,0.0,0.0,0.0,0.0,0.0,0.0,0.0,0.0,0.0,0.0,0.0,0.0,0.0,0.0,0.0,0.0,0.0,0.0,0.0,0.0,0.0,0.0,0.0,0.0,0.0,0.0,0.0,0.0,0.0,0.0,0.0,0.0,0.0,0.0,0.0,0.0,0.0,0.0,0.0,0.0,0.0,0.0,0.0,0.0,0.0,0.0,0.0,0.0,0.0,0.0,0.0,0.0,0.0,0.0,0.0,0.0,0.0,0.0,0.0,0.0,0.0,0.0,0.0,0.0,0.0,0.0,0.0,0.0,0.0,0.0,0.0,0.0,0.0,0.0,0.0,0.0,0.0,0.0,0.0,0.0,0.0,0.0,0.0,0.0,0.0,0.0,0.0,0.0,0.0,0.0,0.0,0.0,0.0,0.0,0.0,0.0,0.0,0.0,0.0,0.0,0.0,0.0,0.0,0.0,0.0,0.0,0.0,0.0,0.0,0.0,0.0,0.0,0.0,0.0,0.0,0.0,0.0,0.0,0.0,0.0,0.0,0.0,0.0,0.0,0.0,0.0,0.0,0.0,0.0,0.0,0.0,0.0,0.0,0.0,0.0,0.0,0.0,0.0,0.0,0.0,0.0,0.0,0.0,0.0,0.0,0.0,0.0,0.0,0.0,0.0,0.0,0.0,0.0,0.0,0.0,0.0,0.0,0.0,0.0,0.0,0.0,0.0,0.0,0.0,0.0,0.0,0.0,0.0,0.0,0.0,0.0,0.0,0.0,0.0,0.0,0.0,0.0,0.0,0.0,0.0,0.0,0.0,0.0,0.0,0.0,0.0,0.0,0.0,0.0,0.0,0.0,0.0,0.0,0.0,0.0,0.0,0.0,0.0,0.0,0.0,0.0,0.0,0.0,0.0,0.0,0.0,0.0,0.0,0.0,0.0,0.0,0.0,0.0,0.0,0.0,0.0,0.0,0.0,0.0,0.0,0.0,0.0,0.0,0.0,0.0,0.0,0.0,0.0,0.0,0.0,0.0,0.0,0.0,0.0,0.0,0.0,0.0,0.0,0.0,0.0,0.0,0.0,0.0,0.0,0.0,0.0,0.0,0.0,0.0,0.0,0.0,0.0,0.0,0.0,0.0,0.0,0.0,0.0,0.0,0.0,0.0,0.0,0.0,0.0,0.0,0.0,0.0,0.0,0.0,0.0,0.0,0.0,0.0,0.0,0.0,0.0,0.0,0.0,0.0,0.0,0.0,0.0,0.0,0.0,0.0,0.0,0.0,-3.5706,0.0,0.0,0.0,0.0,0.0,0.0,0.0,0.0,0.0,0.0,0.0,0.0,0.0,0.0,0.0,0.0,0.0,0.0,0.0,0.0,0.0,0.0,0.0,0.0,0.0,0.0,0.0,0.0,0.0,0.0,0.0,0.0,0.0,0.0,0.0,0.0,0.0,0.0,0.0,0.0,0.0,0.0,0.0,0.0,0.0,0.0,0.0,0.0,0.0,0.0,0.0,0.0,0.0,0.0,0.0,0.0,0.0,0.0,0.0,0.0,0.0,0.0,0.0,0.0,0.0,0.0,0.0,0.0,0.0,0.0,0.0,0.0,0.0,0.0,0.0,0.0,0.0,0.0,0.0,0.0,0.0,0.0,0.0,0.0,0.0,0.0,0.0,0.0,0.0,0.0,0.0,0.0,0.0,0.0,0.0,0.0,0.0,0.0,0.0,0.0,0.0,0.0,0.0,0.0,0.0,0.0,0.0,0.0,0.0,0.0,-3.5713,-3.5637,-3.5596,-3.5554,-3.5469,0.0,0.0,0.0,0.0,0.0,0.0,0.0,0.0,0.0,0.0,0.0,0.0,0.0,0.0,0.0,0.0,0.0,0.0,0.0,0.0,0.0,0.0,0.0,0.0,0.0,0.0,0.0,0.0,0.0,0.0,0.0,0.0,0.0,0.0,0.0,0.0,0.0,0.0,0.0,0.0,0.0,0.0,0.0,0.0,0.0,0.0,0.0,0.0,0.0,0.0,0.0,0.0,0.0,0.0,0.0,0.0,0.0,0.0,0.0,0.0,0.0,0.0,0.0,0.0,0.0,0.0,0.0,0.0,0.0,0.0,0.0,0.0,0.0,0.0,0.0,0.0,0.0,0.0,0.0,0.0,0.0,0.0,0.0,0.0,0.0,0.0,0.0,0.0,0.0,0.0,0.0,0.0,0.0,0.0,0.0,0.0,0.0,0.0,0.0,0.0,0.0,0.0,0.0,0.0,0.0,0.0,0.0,0.0,0.0,0.0,0.0,0.0,-3.5283,-3.5239,-3.5239,0.0,0.0,0.0,0.0,0.0,0.0,0.0,0.0,0.0,0.0,0.0,0.0,0.0,0.0,0.0,0.0,0.0,0.0,0.0,0.0,0.0,0.0,0.0,0.0,0.0,0.0,0.0,0.0,0.0,0.0,0.0,0.0,0.0,0.0,0.0,0.0,0.0,0.0,0.0,0.0,0.0,0.0,0.0,0.0,0.0,0.0,0.0,0.0,0.0,0.0,0.0,0.0,0.0,0.0,0.0,0.0,0.0,0.0,0.0,0.0,0.0,0.0,0.0,0.0,0.0,0.0,0.0,0.0,0.0,0.0,0.0,0.0,0.0,0.0,0.0,0.0,0.0,0.0,0.0,0.0,0.0,0.0,0.0,0.0,0.0,0.0,0.0,0.0,0.0,0.0,0.0,0.0,0.0,0.0,0.0,0.0,0.0,0.0,0.0,0.0,0.0,0.0,0.0,0.0,0.0,0.0,0.0,0.0,0.0,0.0,-3.5054,-3.4868,-3.4794,0.0,-3.5013,0.0,0.0,0.0,0.0,0.0,0.0,0.0,0.0,0.0,0.0,0.0,0.0,0.0,0.0,0.0,0.0,0.0,0.0,0.0,0.0,0.0,0.0,0.0,0.0,0.0,0.0,0.0,0.0,0.0,0.0,0.0,0.0,0.0,0.0,0.0,0.0,0.0,0.0,0.0,0.0,0.0,0.0,0.0,0.0,0.0,0.0,0.0,0.0,0.0,0.0,0.0,0.0,0.0,0.0,0.0,0.0,0.0,0.0,0.0,0.0,0.0,0.0,0.0,0.0,0.0,0.0,0.0,0.0,0.0,0.0,0.0,0.0,0.0,0.0,0.0,0.0,0.0,0.0,0.0,0.0,0.0,0.0,0.0,0.0,0.0,0.0,0.0,0.0,0.0,0.0,0.0,0.0,0.0,0.0,0.0,0.0,0.0,0.0,0.0,0.0,0.0,0.0,0.0,0.0,0.0,0.0,0.0,0.0,0.0,0.0,-3.4579,-3.4386,-3.4319,-3.4117,0.0,0.0,0.0,0.0,0.0,0.0,0.0,0.0,0.0,0.0,0.0,0.0,0.0,0.0,0.0,0.0,0.0,0.0,0.0,0.0,0.0,0.0,0.0,0.0,0.0,0.0,0.0,0.0,0.0,0.0,0.0,0.0,0.0,0.0,0.0,0.0,0.0,0.0,0.0,0.0,0.0,0.0,0.0,0.0,0.0,0.0,0.0,0.0,0.0,0.0,0.0,0.0,0.0,0.0,0.0,0.0,0.0,0.0,0.0,0.0,0.0,0.0,0.0,0.0,0.0,0.0,0.0,0.0,0.0,0.0,0.0,0.0,0.0,0.0,0.0,0.0,0.0,0.0,0.0,0.0,0.0,0.0,0.0,0.0,0.0,0.0,0.0,0.0,0.0,0.0,0.0,0.0,0.0,0.0,0.0,0.0,0.0,0.0,0.0,0.0,0.0,0.0,0.0,0.0,0.0,0.0,0.0,0.0,0.0,0.0,-3.4251,-3.3988,-3.3739,-3.3705,-3.3482,-3.3038,0.0,0.0,0.0,0.0,0.0,0.0,0.0,0.0,0.0,0.0,0.0,0.0,0.0,0.0,0.0,0.0,0.0,0.0,0.0,0.0,0.0,0.0,0.0,0.0,0.0,0.0,0.0,0.0,0.0,0.0,0.0,0.0,0.0,0.0,0.0,0.0,0.0,0.0,0.0,0.0,0.0,0.0,0.0,0.0,0.0,0.0,0.0,0.0,0.0,0.0,0.0,0.0,0.0,0.0,0.0,0.0,0.0,0.0,0.0,0.0,0.0,0.0,0.0,0.0,0.0,0.0,0.0,0.0,0.0,0.0,0.0,0.0,0.0,0.0,0.0,0.0,0.0,0.0,0.0,0.0,0.0,0.0,0.0,0.0,0.0,0.0,0.0,0.0,0.0,0.0,0.0,0.0,0.0,0.0,0.0,0.0,0.0,0.0,0.0,0.0,0.0,0.0,0.0,0.0,0.0,0.0,0.0,0.0,-3.3776,-3.3533,-3.3248,-3.2872,-3.2903,-3.3082,0.0,0.0,0.0,0.0,0.0,0.0,0.0,0.0,0.0,0.0,0.0,0.0,0.0,0.0,0.0,0.0,0.0,0.0,0.0,0.0,0.0,0.0,0.0,0.0,0.0,0.0,0.0,0.0,0.0,0.0,0.0,0.0,0.0,0.0,0.0,0.0,0.0,0.0,0.0,0.0,0.0,0.0,0.0,0.0,0.0,0.0,0.0,0.0,0.0,0.0,0.0,0.0,0.0,0.0,0.0,0.0,0.0,0.0,0.0,0.0,0.0,0.0,0.0,0.0,0.0,0.0,0.0,0.0,0.0,0.0,0.0,0.0,0.0,0.0,0.0,0.0,0.0,0.0,0.0,0.0,0.0,0.0,0.0,0.0,0.0,0.0,0.0,0.0,0.0,0.0,0.0,0.0,0.0,0.0,0.0,0.0,0.0,0.0,0.0,0.0,0.0,0.0,0.0,0.0,0.0,0.0,0.0,0.0,0.0,-3.2888,-3.2429,-3.2092,-3.1933,-3.2092,-3.2348,0.0,0.0,0.0,0.0,0.0,0.0,0.0,0.0,0.0,0.0,0.0,0.0,0.0,0.0,0.0,0.0,0.0,0.0,0.0,0.0,0.0,0.0,0.0,0.0,0.0,0.0,0.0,0.0,0.0,0.0,0.0,0.0,0.0,0.0,0.0,0.0,0.0,0.0,0.0,0.0,0.0,0.0,0.0,0.0,0.0,0.0,0.0,0.0,0.0,0.0,0.0,0.0,0.0,0.0,0.0,0.0,0.0,0.0,0.0,0.0,0.0,0.0,0.0,0.0,0.0,0.0,0.0,0.0,0.0,0.0,0.0,0.0,0.0,0.0,0.0,0.0,0.0,0.0,0.0,0.0,0.0,0.0,0.0,0.0,0.0,0.0,0.0,0.0,0.0,0.0,0.0,0.0,0.0,0.0,0.0,0.0,0.0,0.0,0.0,0.0,0.0,0.0,0.0,0.0,0.0,0.0,0.0,0.0,0.0,-3.1688,0.0,-3.092,-3.0937,-3.121,-3.1497,0.0,0.0,0.0,0.0,0.0,0.0,0.0,0.0,0.0,0.0,0.0,0.0,0.0,0.0,0.0,0.0,0.0,0.0,0.0,0.0,0.0,0.0,0.0,0.0,0.0,0.0,0.0,0.0,0.0,0.0,0.0,0.0,0.0,0.0,0.0,0.0,0.0,0.0,0.0,0.0,0.0,0.0,0.0,0.0,0.0,0.0,0.0,0.0,0.0,0.0,0.0,0.0,0.0,0.0,0.0,0.0,0.0,0.0,0.0,0.0,0.0,0.0,0.0,0.0,0.0,0.0,0.0,0.0,0.0,0.0,0.0,0.0,0.0,0.0,0.0,0.0,0.0,0.0,0.0,0.0,0.0,0.0,0.0,0.0,0.0,0.0,0.0,0.0,0.0,0.0,0.0,0.0,0.0,0.0,0.0,0.0,0.0,0.0,0.0,0.0,0.0,0.0,0.0,0.0,0.0,0.0,0.0,0.0,-3.1305,-3.0236,-2.9876,-2.981,-2.9919,-3.0234,-3.0616,0.0,0.0,0.0,0.0,0.0,0.0,0.0,0.0,0.0,0.0,0.0,0.0,0.0,0.0,0.0,0.0,0.0,0.0,0.0,0.0,0.0,0.0,0.0,0.0,0.0,0.0,0.0,0.0,0.0,0.0,0.0,0.0,0.0,0.0,0.0,0.0,0.0,0.0,0.0,0.0,0.0,0.0,0.0,0.0,0.0,0.0,0.0,0.0,0.0,0.0,0.0,0.0,0.0,0.0,0.0,0.0,0.0,0.0,0.0,0.0,0.0,0.0,0.0,0.0,0.0,0.0,0.0,0.0,0.0,0.0,0.0,0.0,0.0,0.0,0.0,0.0,0.0,0.0,0.0,0.0,0.0,0.0,0.0,0.0,0.0,0.0,0.0,0.0,0.0,0.0,0.0,0.0,0.0,0.0,0.0,0.0,0.0,0.0,0.0,0.0,0.0,0.0,0.0,0.0,0.0,0.0,0.0,0.0,0.0,-2.9166,-2.9285,-2.9164,-2.882,-2.9422,-2.9822,0.0,0.0,0.0,0.0,0.0,0.0,0.0,0.0,0.0,0.0,0.0,0.0,0.0,0.0,0.0,0.0,0.0,0.0,0.0,0.0,0.0,0.0,0.0,0.0,0.0,0.0,0.0,0.0,0.0,0.0,0.0,0.0,0.0,0.0,0.0,0.0,0.0,0.0,0.0,0.0,0.0,0.0,0.0,0.0,0.0,0.0,0.0,0.0,0.0,0.0,0.0,0.0,0.0,0.0,0.0,0.0,0.0,0.0,0.0,0.0,0.0,0.0,0.0,0.0,0.0,0.0,0.0,0.0,0.0,0.0,0.0,0.0,0.0,0.0,0.0,0.0,0.0,0.0,0.0,0.0,0.0,0.0,0.0,0.0,0.0,0.0,0.0,0.0,0.0,0.0,0.0,0.0,0.0,0.0,0.0,0.0,0.0,0.0,0.0,0.0,0.0,0.0,0.0,0.0,0.0,0.0,0.0,0.0,0.0,-2.7343,-2.7968,-2.8051,-2.7578,-2.83,-2.8882,-2.9281,0.0,0.0,0.0,0.0,0.0,0.0,0.0,0.0,0.0,0.0,0.0,0.0,0.0,0.0,0.0,0.0,0.0,0.0,0.0,0.0,0.0,0.0,0.0,0.0,0.0,0.0,0.0,0.0,0.0,0.0,0.0,0.0,0.0,0.0,0.0,0.0,0.0,0.0,0.0,0.0,0.0,0.0,0.0,0.0,0.0,0.0,0.0,0.0,0.0,0.0,0.0,0.0,0.0,0.0,0.0,0.0,0.0,0.0,0.0,0.0,0.0,0.0,0.0,0.0,0.0,0.0,0.0,0.0,0.0,0.0,0.0,0.0,0.0,0.0,0.0,0.0,0.0,0.0,0.0,0.0,0.0,0.0,0.0,0.0,0.0,0.0,0.0,0.0,0.0,0.0,0.0,0.0,0.0,0.0,0.0,0.0,0.0,0.0,0.0,0.0,0.0,0.0,0.0,0.0,0.0,0.0,0.0,0.0,-2.4902,-2.5905,-2.6357,-2.629,-2.6876,-2.7759,0.0,0.0,0.0,0.0,0.0,0.0,0.0,0.0,0.0,0.0,0.0,0.0,0.0,0.0,0.0,0.0,0.0,0.0,0.0,0.0,0.0,0.0,0.0,0.0,0.0,0.0,0.0,0.0,0.0,0.0,0.0,0.0,0.0,0.0,0.0,0.0,0.0,0.0,0.0,0.0,0.0,0.0,0.0,0.0,0.0,0.0,0.0,0.0,0.0,0.0,0.0,0.0,0.0,0.0,0.0,0.0,0.0,0.0,0.0,0.0,0.0,0.0,0.0,0.0,0.0,0.0,0.0,0.0,0.0,0.0,0.0,0.0,0.0,0.0,0.0,0.0,0.0,0.0,0.0,0.0,0.0,0.0,0.0,0.0,0.0,0.0,0.0,0.0,0.0,0.0,0.0,0.0,0.0,0.0,0.0,0.0,0.0,0.0,0.0,0.0,0.0,0.0,0.0,0.0,0.0,0.0,0.0,0.0,0.0,-2.2651,-2.2685,-2.363,-2.5353,-2.5814,-2.6544,0.0,0.0,0.0,0.0,0.0,0.0,0.0,0.0,0.0,0.0,0.0,0.0,0.0,0.0,0.0,0.0,0.0,0.0,0.0,0.0,0.0,0.0,0.0,0.0,0.0,0.0,0.0,0.0,0.0,0.0,0.0,0.0,0.0,0.0,0.0,0.0,0.0,0.0,0.0,0.0,0.0,0.0,0.0,0.0,0.0,0.0,0.0,0.0,0.0,0.0,0.0,0.0,0.0,0.0,0.0,0.0,0.0,0.0,0.0,0.0,0.0,0.0,0.0,0.0,0.0,0.0,0.0,0.0,0.0,0.0,0.0,0.0,0.0,0.0,0.0,0.0,0.0,0.0,0.0,0.0,0.0,0.0,0.0,0.0,0.0,0.0,0.0,0.0,0.0,0.0,0.0,0.0,0.0,0.0,0.0,0.0,0.0,0.0,0.0,0.0,0.0,0.0,0.0,0.0,0.0,0.0,0.0,0.0,-2.1827,-2.1086,-2.072,-2.1428,-2.327,-2.3916,-2.4984,0.0,0.0,0.0,0.0,0.0,0.0,0.0,0.0,0.0,0.0,0.0,0.0,0.0,0.0,0.0,0.0,0.0,0.0,0.0,0.0,0.0,0.0,0.0,0.0,0.0,0.0,0.0,0.0,0.0,0.0,0.0,0.0,0.0,0.0,0.0,0.0,0.0,0.0,0.0,0.0,0.0,0.0,0.0,0.0,0.0,0.0,0.0,0.0,0.0,0.0,0.0,0.0,0.0,0.0,0.0,0.0,0.0,0.0,0.0,0.0,0.0,0.0,0.0,0.0,0.0,0.0,0.0,0.0,0.0,0.0,0.0,0.0,0.0,0.0,0.0,0.0,0.0,0.0,0.0,0.0,0.0,0.0,0.0,0.0,0.0,0.0,0.0,0.0,0.0,0.0,0.0,0.0,0.0,0.0,0.0,0.0,0.0,0.0,0.0,0.0,0.0,0.0,0.0,0.0,0.0,0.0,0.0,0.0,-2.0184,-2.0043,-1.9403,-1.9611,-2.061,-2.1708,-2.3327,0.0,0.0,0.0,0.0,0.0,0.0,0.0,0.0,0.0,0.0,0.0,0.0,0.0,0.0,0.0,0.0,0.0,0.0,0.0,0.0,0.0,0.0,0.0,0.0,0.0,0.0,0.0,0.0,0.0,0.0,0.0,0.0,0.0,0.0,0.0,0.0,0.0,0.0,0.0,0.0,0.0,0.0,0.0,0.0,0.0,0.0,0.0,0.0,0.0,0.0,0.0,0.0,0.0,0.0,0.0,0.0,0.0,0.0,0.0,0.0,0.0,0.0,0.0,0.0,0.0,0.0,0.0,0.0,0.0,0.0,0.0,0.0,0.0,0.0,0.0,0.0,0.0,0.0,0.0,0.0,0.0,0.0,0.0,0.0,0.0,0.0,0.0,0.0,0.0,0.0,0.0,0.0,0.0,0.0,0.0,0.0,0.0,0.0,0.0,0.0,0.0,0.0,0.0,0.0,0.0,0.0,0.0,0.0,-1.8965,-1.8982,-1.8302,-1.8458,-1.9674,-2.0907,-2.2659,0.0,0.0,0.0,0.0,0.0,0.0,0.0,0.0,0.0,0.0,0.0,0.0,0.0,0.0,0.0,0.0,0.0,0.0,0.0,0.0,0.0,0.0,0.0,0.0,0.0,0.0,0.0,0.0,0.0,0.0,0.0,0.0,0.0,0.0,0.0,0.0,0.0,0.0,0.0,0.0,0.0,0.0,0.0,0.0,0.0,0.0,0.0,0.0,-3.1619,0.0,0.0,0.0,0.0,0.0,0.0,0.0,0.0,0.0,0.0,0.0,0.0,0.0,0.0,0.0,0.0,0.0,0.0,0.0,0.0,0.0,0.0,0.0,0.0,0.0,0.0,0.0,0.0,0.0,0.0,0.0,0.0,0.0,0.0,0.0,0.0,0.0,0.0,0.0,0.0,0.0,0.0,0.0,0.0,0.0,0.0,0.0,0.0,0.0,0.0,0.0,0.0,0.0,0.0,0.0,0.0,0.0,0.0,0.0,-1.783,-1.7862,-1.7787,-1.8213,-1.9145,-2.0291,-2.19,0.0,0.0,0.0,0.0,0.0,0.0,0.0,0.0,0.0,0.0,0.0,0.0,0.0,0.0,0.0,0.0,0.0,0.0,0.0,0.0,0.0,0.0,0.0,0.0,0.0,0.0,0.0,0.0,0.0,0.0,0.0,0.0,0.0,0.0,0.0,0.0,0.0,0.0,0.0,0.0,0.0,0.0,0.0,0.0,0.0,0.0,0.0,0.0,0.0,0.0,0.0,0.0,0.0,0.0,0.0,0.0,0.0,0.0,0.0,0.0,0.0,0.0,0.0,0.0,0.0,0.0,0.0,0.0,0.0,0.0,0.0,0.0,0.0,0.0,0.0,0.0,0.0,0.0,0.0,0.0,0.0,0.0,0.0,0.0,0.0,0.0,0.0,0.0,0.0,0.0,0.0,0.0,0.0,0.0,0.0,0.0,0.0,0.0,0.0,0.0,0.0,0.0,0.0,0.0,0.0,0.0,0.0,-1.7048,-1.6784,-1.6515,-1.7436,-1.8235,-1.8824,-1.9814,-2.1314,-2.3418,0.0,0.0,0.0,0.0,0.0,0.0,0.0,0.0,0.0,0.0,0.0,0.0,0.0,0.0,0.0,0.0,0.0,0.0,0.0,0.0,0.0,0.0,0.0,0.0,0.0,0.0,0.0,0.0,0.0,0.0,0.0,0.0,0.0,0.0,0.0,0.0,0.0,0.0,-2.7141,-2.7627,0.0,0.0,0.0,0.0,0.0,0.0,0.0,0.0,-3.0575,0.0,0.0,0.0,0.0,0.0,0.0,0.0,0.0,0.0,0.0,0.0,0.0,0.0,0.0,0.0,0.0,0.0,0.0,0.0,0.0,0.0,0.0,0.0,0.0,0.0,0.0,0.0,0.0,0.0,0.0,0.0,0.0,0.0,0.0,0.0,0.0,0.0,0.0,0.0,0.0,0.0,0.0,0.0,0.0,0.0,0.0,0.0,0.0,0.0,0.0,0.0,0.0,0.0,0.0,0.0,0.0,-1.4119,-1.5455,-1.5578,-1.4474,-1.6737,-1.8333,-1.8982,-2.0009,-2.1416,-2.322,0.0,0.0,0.0,0.0,0.0,0.0,0.0,0.0,0.0,0.0,0.0,0.0,0.0,0.0,0.0,0.0,0.0,0.0,0.0,0.0,0.0,0.0,0.0,0.0,0.0,0.0,0.0,0.0,0.0,0.0,0.0,0.0,0.0,0.0,0.0,0.0,0.0,0.0,0.0,-2.7521,-2.8013,0.0,0.0,0.0,0.0,0.0,0.0,0.0,0.0,-3.0375,0.0,0.0,0.0,0.0,0.0,0.0,0.0,0.0,0.0,0.0,0.0,0.0,0.0,0.0,0.0,0.0,0.0,0.0,0.0,0.0,0.0,0.0,0.0,0.0,0.0,0.0,0.0,0.0,0.0,0.0,0.0,0.0,0.0,0.0,0.0,0.0,0.0,0.0,0.0,0.0,0.0,0.0,0.0,0.0,0.0,0.0,0.0,0.0,0.0,0.0,0.0,0.0,0.0,0.0,0.0,-1.2755,-1.3042,-1.3383,-1.385,-1.5146,-1.6949,-1.9191,-1.9846,-2.1283,0.0,0.0,0.0,0.0,0.0,0.0,0.0,0.0,0.0,0.0,0.0,0.0,0.0,0.0,0.0,0.0,0.0,0.0,0.0,0.0,0.0,0.0,0.0,0.0,0.0,0.0,0.0,0.0,0.0,0.0,0.0,0.0,0.0,0.0,0.0,0.0,0.0,0.0,0.0,0.0,-2.6759,-2.7005,-2.6817,0.0,0.0,0.0,0.0,0.0,0.0,-2.8755,-2.9105,0.0,0.0,0.0,0.0,0.0,0.0,0.0,0.0,0.0,0.0,0.0,0.0,0.0,0.0,0.0,0.0,0.0,0.0,0.0,0.0,0.0,0.0,0.0,0.0,0.0,0.0,0.0,0.0,0.0,0.0,0.0,0.0,0.0,0.0,0.0,0.0,0.0,0.0,0.0,0.0,0.0,0.0,0.0,0.0,0.0,0.0,0.0,0.0,0.0,0.0,0.0,0.0,0.0,0.0,0.0,-1.133,-1.1017,-1.1533,-1.303,-1.3968,-1.5943,-1.9038,-1.9684,-2.1128,0.0,0.0,0.0,0.0,0.0,0.0,0.0,0.0,0.0,0.0,0.0,0.0,0.0,0.0,0.0,0.0,0.0,0.0,0.0,0.0,0.0,0.0,0.0,0.0,0.0,0.0,0.0,0.0,0.0,0.0,0.0,0.0,0.0,0.0,0.0,0.0,0.0,0.0,0.0,0.0,0.0,-2.6089,-2.5746,-2.6174,0.0,0.0,0.0,0.0,-2.7454,-2.7739,0.0,0.0,0.0,0.0,0.0,0.0,0.0,0.0,0.0,0.0,0.0,0.0,0.0,0.0,0.0,0.0,0.0,0.0,0.0,0.0,0.0,0.0,0.0,0.0,0.0,0.0,0.0,0.0,0.0,0.0,0.0,0.0,0.0,0.0,0.0,0.0,0.0,0.0,0.0,0.0,0.0,0.0,0.0,0.0,0.0,0.0,0.0,0.0,0.0,0.0,0.0,0.0,0.0,0.0,0.0,0.0,-0.8793,-1.0652,-1.1344,-1.093,-1.4293,-1.6815,-1.8063,-1.9868,-2.136,0.0,0.0,0.0,0.0,0.0,0.0,0.0,0.0,0.0,0.0,0.0,0.0,0.0,0.0,0.0,0.0,0.0,0.0,0.0,0.0,0.0,0.0,0.0,0.0,0.0,0.0,0.0,0.0,0.0,0.0,0.0,0.0,0.0,0.0,0.0,0.0,0.0,0.0,0.0,0.0,0.0,-2.5667,-2.5797,-2.6004,-2.61,0.0,0.0,-2.656,-2.5826,-2.7278,0.0,0.0,0.0,0.0,0.0,0.0,0.0,0.0,0.0,0.0,0.0,0.0,0.0,0.0,0.0,0.0,0.0,0.0,0.0,0.0,0.0,0.0,0.0,0.0,0.0,0.0,0.0,0.0,0.0,0.0,0.0,0.0,0.0,0.0,0.0,0.0,0.0,0.0,0.0,0.0,0.0,0.0,0.0,0.0,0.0,0.0,0.0,0.0,0.0,0.0,0.0,0.0,0.0,0.0,0.0,-0.8987,-0.7708,-0.8663,-0.9571,-1.0415,-1.2597,-1.5274,-1.8285,-1.9369,-2.0922,0.0,0.0,0.0,0.0,0.0,0.0,0.0,0.0,0.0,0.0,0.0,0.0,0.0,0.0,0.0,0.0,0.0,0.0,0.0,0.0,0.0,0.0,0.0,0.0,0.0,0.0,0.0,0.0,0.0,0.0,0.0,0.0,0.0,0.0,0.0,0.0,0.0,0.0,0.0,0.0,0.0,0.0,-2.4193,-2.4545,0.0,0.0,0.0,-2.4977,-2.4766,0.0,0.0,0.0,0.0,0.0,0.0,0.0,0.0,0.0,0.0,0.0,0.0,0.0,0.0,0.0,0.0,0.0,0.0,0.0,0.0,0.0,0.0,0.0,0.0,0.0,0.0,0.0,0.0,0.0,0.0,0.0,0.0,0.0,0.0,0.0,0.0,0.0,0.0,0.0,0.0,0.0,0.0,0.0,0.0,0.0,0.0,0.0,0.0,0.0,0.0,0.0,0.0,0.0,0.0,0.0,0.0,0.0,-0.7177,-0.7342,-0.8384,-1.0199,-1.1608,-1.4277,-1.8208,-1.9097,0.0,0.0,0.0,0.0,0.0,0.0,0.0,0.0,0.0,0.0,0.0,0.0,0.0,0.0,0.0,0.0,0.0,0.0,0.0,0.0,0.0,0.0,0.0,0.0,0.0,0.0,0.0,-2.8273,0.0,0.0,0.0,0.0,0.0,0.0,0.0,0.0,0.0,0.0,0.0,0.0,0.0,0.0,-2.3693,-2.3091,-2.3419,-2.3602,0.0,0.0,-2.3853,-2.4011,-2.4742,-2.5306,0.0,0.0,0.0,0.0,0.0,0.0,0.0,0.0,0.0,0.0,0.0,0.0,0.0,0.0,0.0,0.0,0.0,0.0,0.0,0.0,0.0,0.0,0.0,0.0,0.0,0.0,0.0,0.0,0.0,0.0,0.0,0.0,0.0,0.0,0.0,0.0,0.0,0.0,0.0,0.0,0.0,0.0,0.0,0.0,0.0,0.0,0.0,0.0,0.0,0.0,0.0,0.0,0.0,0.0,0.0,-0.6936,-0.7831,-0.8719,-0.9737,-1.2573,-1.5176,-1.7338,-1.938,-2.1051,0.0,0.0,0.0,0.0,0.0,0.0,0.0,0.0,0.0,0.0,0.0,0.0,0.0,0.0,0.0,0.0,0.0,0.0,0.0,0.0,0.0,0.0,0.0,0.0,0.0,0.0,0.0,0.0,0.0,0.0,0.0,0.0,0.0,0.0,0.0,0.0,0.0,0.0,0.0,0.0,0.0,-2.3005,-2.3206,-2.3523,-2.361,0.0,-2.3971,-2.4217,-2.3538,-2.5197,-2.6278,-2.4944,0.0,0.0,0.0,0.0,0.0,0.0,0.0,0.0,0.0,0.0,0.0,0.0,0.0,0.0,0.0,0.0,0.0,0.0,0.0,0.0,0.0,0.0,0.0,0.0,0.0,0.0,0.0,0.0,0.0,0.0,0.0,0.0,0.0,0.0,0.0,0.0,0.0,0.0,0.0,0.0,0.0,0.0,0.0,0.0,0.0,0.0,0.0,0.0,0.0,0.0,0.0,0.0,0.0,-0.718,-0.694,-0.7996,-0.9041,-1.0064,-1.2961,-1.5325,-1.7133,-1.9138,-2.0951,0.0,0.0,0.0,0.0,0.0,0.0,0.0,0.0,0.0,0.0,0.0,0.0,0.0,0.0,0.0,0.0,0.0,0.0,0.0,0.0,0.0,0.0,0.0,0.0,0.0,0.0,0.0,0.0,-2.8629,-2.8326,-2.7135,0.0,0.0,0.0,0.0,0.0,0.0,0.0,0.0,0.0,0.0,-2.2609,-2.2079,-2.2556,0.0,0.0,-2.3038,-2.3393,-2.344,-2.3892,-2.4352,-2.4219,-2.4933,0.0,0.0,0.0,0.0,0.0,0.0,0.0,0.0,0.0,0.0,0.0,0.0,0.0,0.0,0.0,0.0,0.0,0.0,0.0,0.0,0.0,0.0,0.0,0.0,0.0,0.0,0.0,0.0,0.0,0.0,0.0,0.0,0.0,0.0,0.0,0.0,0.0,0.0,0.0,0.0,0.0,0.0,0.0,0.0,0.0,0.0,0.0,0.0,0.0,0.0,0.0,0.0,-0.6908,-0.6791,-0.8045,-0.9252,-1.0296,-1.3068,-1.5334,-1.7133,-1.8961,-2.0737,0.0,0.0,0.0,0.0,0.0,0.0,0.0,0.0,0.0,0.0,0.0,0.0,0.0,0.0,0.0,0.0,0.0,0.0,0.0,0.0,0.0,0.0,0.0,0.0,0.0,0.0,0.0,0.0,-2.8382,-2.7568,-2.5515,0.0,0.0,0.0,0.0,0.0,0.0,0.0,0.0,0.0,0.0,-2.2224,-2.1682,-2.2223,-2.2544,-2.2232,-2.2434,-2.2745,-2.3147,-2.3071,-2.3155,-2.3383,0.0,0.0,0.0,0.0,0.0,0.0,0.0,0.0,0.0,0.0,0.0,0.0,0.0,0.0,0.0,0.0,0.0,0.0,0.0,0.0,0.0,0.0,0.0,0.0,0.0,0.0,0.0,-0.5231,0.0,0.0,-0.549,0.0,0.0,0.0,0.0,0.0,0.0,0.0,0.0,0.0,0.0,0.0,0.0,0.0,0.0,0.0,0.0,0.0,0.0,0.0,0.0,0.0,0.0,-0.6374,-0.6401,-0.7906,-0.9185,-1.0307,-1.291,-1.5271,-1.7288,-1.8793,-2.0482,-2.2531,0.0,0.0,0.0,0.0,0.0,0.0,0.0,0.0,0.0,0.0,0.0,0.0,0.0,0.0,0.0,0.0,0.0,0.0,0.0,0.0,0.0,0.0,0.0,0.0,0.0,0.0,-2.8348,-2.803,-2.6951,0.0,0.0,0.0,0.0,0.0,0.0,0.0,0.0,0.0,0.0,-2.1876,-2.1679,-2.2134,-2.2486,-2.2526,-2.2544,-2.2544,-2.2653,-2.2644,-2.3082,-2.3268,0.0,0.0,0.0,0.0,0.0,0.0,0.0,0.0,0.0,0.0,0.0,0.0,0.0,0.0,0.0,0.0,0.0,0.0,0.0,0.0,0.0,0.0,0.0,0.0,0.0,0.0,0.0,-0.3575,-0.3658,0.0,0.0,0.0,0.0,0.0,0.0,0.0,0.0,0.0,0.0,0.0,-0.2433,-0.2727,0.0,0.0,0.0,0.0,0.0,0.0,0.0,0.0,0.0,0.0,0.0,0.0,-0.6292,-0.6729,-0.7906,-0.911,-1.0478,-1.333,-1.5334,-1.648,-1.8926,-2.1279,-2.3479,0.0,0.0,0.0,0.0,0.0,0.0,0.0,0.0,0.0,0.0,0.0,0.0,0.0,0.0,0.0,0.0,0.0,0.0,0.0,0.0,0.0,0.0,0.0,0.0,0.0,-2.771,0.0,0.0,0.0,0.0,0.0,0.0,0.0,0.0,0.0,0.0,0.0,-2.2787,-2.2233,-2.1876,-2.1777,-2.1726,-2.2025,-2.2261,0.0,0.0,0.0,0.0,0.0,0.0,0.0,0.0,0.0,0.0,0.0,0.0,0.0,0.0,-2.6515,-2.6459,-2.641,-2.654,-2.7302,0.0,0.0,0.0,0.0,0.0,0.0,0.0,0.0,0.0,0.0,0.0,0.0,0.0,0.0,-0.1846,0.0,-0.2162,0.0,0.0,0.0,0.0,0.0,0.0,0.0,0.0,-0.1435,-0.1366,-0.1461,-0.1694,-0.2109,0.0,-0.2866,-0.3592,0.0,0.0,0.0,0.0,0.0,0.0,0.0,0.0,-0.6062,-0.6644,-0.7752,-0.8978,-1.0383,-1.3006,-1.5024,-1.6136,-1.9304,-2.1854,-2.3774,-2.4348,-2.4882,0.0,0.0,0.0,0.0,0.0,0.0,0.0,0.0,0.0,0.0,0.0,0.0,0.0,0.0,0.0,0.0,0.0,0.0,0.0,0.0,0.0,0.0,0.0,-2.6925,0.0,0.0,0.0,0.0,0.0,0.0,0.0,0.0,0.0,-2.2929,-2.2888,-2.2605,-2.1891,-2.1617,-2.1547,-2.1449,0.0,0.0,0.0,0.0,0.0,0.0,0.0,-2.2197,-2.2616,-2.2526,-2.2639,-2.3719,-2.4825,-2.5699,-2.6083,0.0,0.0,-2.6389,-2.6461,-2.6613,-2.7347,-2.7595,-2.7895,-2.8309,-2.829,-2.8203,0.0,0.0,0.0,0.0,0.0,0.0,0.0,0.0,0.0,-0.0243,0.0,-0.0951,0.0,0.0,0.0,0.0,-0.1785,-0.0996,0.0,0.0,0.0261,0.0351,-0.0625,-0.0602,-0.1023,-0.1996,-0.2895,-0.3165,-0.2935,-0.3491,0.0,0.0,0.0,0.0,0.0,0.0,-0.5765,-0.6247,-0.7464,-0.8716,-1.0052,-1.2211,-1.4363,-1.6543,-1.9832,-2.2163,-2.3408,-2.4239,-2.4804,-2.5099,-2.5457,0.0,0.0,0.0,0.0,0.0,0.0,0.0,0.0,0.0,0.0,0.0,0.0,0.0,0.0,0.0,0.0,0.0,0.0,0.0,0.0,-2.5468,0.0,0.0,0.0,0.0,0.0,0.0,0.0,0.0,0.0,0.0,-2.2127,-2.162,-2.1273,-2.1302,0.0,0.0,0.0,0.0,-2.1691,-2.2004,-2.2312,-2.2653,-2.2653,-2.2425,-2.2273,-2.238,0.0,0.0,-2.4326,-2.5482,-2.6093,-2.6156,-2.6235,-2.6277,-2.6552,-2.6878,-2.713,-2.7028,-2.7337,-2.7712,-2.8009,-2.8109,-2.8076,0.3979,0.0,0.0,0.0,0.0,0.1481,0.1442,0.1495,0.1471,0.1406,0.1104,0.0735,0.0,0.0,0.0,0.0,0.0,0.0,-0.076,-0.1022,-0.0789,-0.0802,-0.0986,-0.1063,-0.1325,-0.16,-0.1501,-0.1567,-0.1791,-0.1928,-0.2697,-0.3959,0.0,0.0,0.0,0.0,-0.5918,-0.7092,-0.7761,-0.8871,-1.0491,-1.2818,-1.5521,-1.8659,-2.0344,-2.1854,-2.3195,-2.3975,-2.4614,-2.5011,-2.4964,0.0,0.0,0.0,0.0,0.0,0.0,0.0,0.0,0.0,0.0,0.0,0.0,0.0,0.0,0.0,0.0,0.0,0.0,0.0,-2.5524,-2.4575,-2.4061,0.0,0.0,0.0,0.0,0.0,0.0,0.0,0.0,0.0,-2.1443,-2.1798,-2.2007,0.0,0.0,-2.0784,-2.0977,-2.1249,-2.1582,-2.1953,-2.2312,0.0,-2.2653,-2.2266,-2.2195,-2.2558,-2.3052,-2.3677,-2.4355,-2.5068,-2.5716,-2.6329,-2.6194,-2.6003,-2.6109,-2.6774,-2.728,-2.7507,-2.8003,-2.8422,-2.8536,-2.8536,-2.8525,0.6028,0.4419,0.3331,0.2832,0.2858,0.2884,0.2959,0.306,0.2993,0.2758,0.2309,0.188,0.1362,0.0801,0.0395,0.0,0.0,0.0,-0.0765,-0.1037,-0.1241,-0.1256,-0.1166,-0.1256,-0.1346,-0.1435,-0.1511,-0.1576,-0.1715,-0.2095,-0.2861,-0.3976,0.0,0.0,-0.5078,-0.5419,-0.628,-0.7565,-0.833,-0.9291,-1.0399,-1.3212,-1.6132,-1.9164,-2.0329,-2.1565,-2.2871,-2.3636,-2.4221,-2.4593,-2.4708,-2.4856,0.0,0.0,0.0,0.0,0.0,0.0,0.0,0.0,0.0,0.0,0.0,-2.3928,-2.439,0.0,0.0,0.0,-2.4491,-2.4826,-2.4791,-2.3902,0.0,0.0,0.0,0.0,0.0,0.0,0.0,-2.3297,-2.2631,-2.206,-2.1578,-2.1658,-2.1768,-2.1672,-2.1154,-2.0845,-2.1037,0.0,-2.1633,-2.1961,-2.2312,-2.2653,-2.2644,-2.2404,-2.2438,-2.2974,-2.371,-2.4365,-2.4775,-2.5149,-2.5689,-2.6113,-2.6072,-2.5823,-2.5647,-2.6567,-2.7415,-2.7377,-2.8115,-2.8828,-2.8943,-2.8861,-2.885,0.8042,0.6812,0.488,0.4071,0.4245,0.4242,0.4504,0.4851,0.4404,0.3775,0.318,0.2565,0.1807,0.0943,0.0707,0.0,-0.0336,-0.0337,-0.0602,-0.1074,-0.1075,-0.1075,-0.1163,-0.1163,-0.1251,-0.1517,-0.2272,-0.2569,-0.2431,-0.3284,-0.3974,-0.4281,-0.404,-0.4437,-0.5568,-0.6012,-0.6709,-0.7786,-0.909,-1.0014,-1.046,-1.3625,-1.637,-1.8599,-1.9943,-2.1273,-2.2616,-2.3245,-2.3754,-2.4073,-2.465,-2.4901,-2.4878,0.0,0.0,0.0,0.0,0.0,0.0,0.0,0.0,0.0,0.0,0.0,0.0,0.0,0.0,0.0,-2.3317,0.0,-2.3582,-2.3458,0.0,0.0,0.0,-2.4223,-2.4267,-2.4526,-2.4579,-2.4183,0.0,0.0,-2.2196,-2.1511,-2.1054,-2.1002,-2.0917,-2.1002,-2.1362,-2.1502,-2.1666,-2.1987,-2.2312,-2.2644,-2.2644,-2.2676,-2.2906,-2.3493,-2.4381,-2.4977,-2.5278,-2.5533,-2.5854,-2.5896,-2.5854,-2.5709,-2.5306,-2.6557,-2.7489,-2.6911,-2.7941,-2.8943,-2.9128,-2.9035,-2.8943,0.8791,0.7889,0.6957,0.6166,0.5365,0.5301,0.5096,0.4851,0.4662,0.4448,0.4272,0.326,0.2233,0.1179,0.1179,0.0798,0.0164,-0.0084,-0.0513,-0.1053,-0.1247,-0.1334,-0.1314,-0.1313,-0.1562,-0.2051,-0.1783,-0.201,-0.2706,-0.2772,-0.3299,-0.4104,-0.455,-0.5067,-0.582,-0.6195,-0.7077,-0.8444,-0.9732,-1.1666,-1.4267,-1.5651,-1.7234,-1.9138,-2.0236,-2.1296,-2.2247,-2.3138,-2.3616,-2.3734,-2.4176,-2.45,-2.4592,-2.4368,0.0,0.0,0.0,0.0,0.0,0.0,0.0,0.0,0.0,-2.3926,-2.4333,0.0,-2.3616,0.0,-2.2554,-2.2287,-2.3336,-2.2419,0.0,0.0,-2.3323,-2.3854,-2.4071,-2.4448,-2.4579,-2.4194,-2.3248,-2.2621,-2.2466,-2.1744,-2.1258,-2.1619,-2.1234,-2.1002,-2.1362,-2.1386,-2.1565,-2.197,-2.2312,-2.2644,-2.2619,-2.2982,-2.3277,-2.3472,-2.4105,-2.4645,-2.5075,-2.5228,-2.5482,-2.5771,-2.5595,-2.5368,-2.5264,-2.648,-2.7236,-2.7136,-2.8181,-2.9301,-2.9393,-2.9393,-2.9405,0.9803,0.8805,0.8278,0.7462,0.6636,0.6034,0.5572,0.5289,0.5009,0.4794,0.4458,0.3229,0.2315,0.1675,0.142,0.0881,0.0165,0.0083,-0.0336,-0.1116,-0.1216,-0.13,-0.1371,-0.1371,-0.1617,-0.2017,-0.183,-0.2057,-0.2766,-0.3086,-0.3806,-0.4758,-0.53,-0.6066,-0.6891,-0.707,-0.784,-0.9207,-1.0875,-1.3074,-1.5881,-1.678,-1.8059,-1.9924,-2.0797,-2.1588,-2.2383,-2.3163,-2.3509,-2.3616,-2.406,-2.4408,-2.4637,-2.4512,-2.4491,0.0,0.0,0.0,0.0,0.0,0.0,0.0,0.0,0.0,0.0,0.0,-2.3244,-2.3405,-2.2479,-2.224,-2.3293,-2.2235,-2.1849,-2.2717,-2.3331,-2.3829,-2.4161,-2.4832,-2.5157,-2.5006,-2.4033,-2.3297,-2.3134,-2.2323,-2.1897,-2.2031,-2.1813,-2.17,-2.1833,-2.191,-2.1996,-2.221,-2.2278,-2.2395,-2.2503,-2.2655,-2.303,-2.3515,-2.368,-2.4037,-2.4726,-2.4865,-2.505,-2.5434,-2.5544,-2.5523,-2.5533,-2.6494,-2.7252,-2.736,-2.8404,-2.9429,-2.968,-2.976,-2.9852,1.0959,0.9808,0.914,0.8476,0.7803,0.6623,0.6037,0.5915,0.5459,0.4921,0.4192,0.3013,0.2387,0.2181,0.167,0.0968,0.0167,0.0246,-0.0247,-0.1094,-0.1011,-0.1093,-0.1258,-0.1258,-0.1509,-0.1839,-0.2051,-0.2357,-0.2765,-0.3824,-0.476,-0.5504,-0.6123,-0.7052,-0.8229,-0.8347,-0.9009,-1.0279,-1.2255,-1.4355,-1.6505,-1.7503,-1.8902,-2.0641,-2.1331,-2.2013,-2.2678,-2.3163,-2.3522,-2.3628,-2.4073,-2.4478,-2.4721,-2.4892,-2.483,0.0,-2.445,0.0,0.0,0.0,0.0,0.0,0.0,0.0,0.0,-2.2947,-2.2884,-2.3171,-2.2716,-2.2644,-2.3143,-2.2457,-2.2242,-2.2903,-2.3504,-2.4028,-2.4541,-2.5306,-2.5808,-2.5808,-2.469,-2.3898,-2.3639,-2.2955,-2.2281,-2.2129,-2.2268,-2.2406,-2.2637,-2.2529,-2.2503,-2.265,-2.23,-2.2235,-2.2397,-2.2504,-2.2867,-2.3651,-2.3587,-2.3528,-2.4346,-2.4604,-2.4781,-2.5197,-2.5585,-2.5934,-2.5875,-2.663,-2.7147,-2.7227,-2.8254,-2.9373,-2.976,-3.0045,-3.0283,1.1884,1.1077,1.0296,0.9532,0.8737,0.7472,0.6478,0.5857,0.5571,0.5042,0.418,0.4002,0.3278,0.2214,0.2166,0.1623,0.0737,0.0408,0.0082,-0.0253,-0.0758,-0.1001,-0.1066,-0.1229,-0.1719,-0.2372,-0.2198,-0.26,-0.3656,-0.4296,-0.4956,-0.5621,-0.6852,-0.7749,-0.8427,0.0,0.0,0.0,-1.3615,-1.5325,-1.7437,-1.875,-1.9867,-2.0808,-2.1631,0.0,-2.2592,-2.3403,-2.3832,-2.3819,-2.4274,0.0,0.0,0.0,0.0,0.0,0.0,0.0,0.0,0.0,0.0,0.0,-2.4119,-2.4039,-2.4151,-2.3961,-2.3773,-2.3498,-2.2938,-2.2501,-2.2495,-2.2363,-2.24,-2.2957,-2.3809,-2.453,-2.4989,-2.5207,-2.5306,-2.5295,-2.3874,-2.2847,-2.2899,-2.2105,-2.1717,-2.2106,-2.2491,-2.2814,-2.3132,-2.2699,-2.2434,-2.2638,-2.2584,-2.2566,-2.2664,-2.3139,-2.3422,-2.3793,-2.405,-2.4177,-2.4415,-2.5057,-2.5321,-2.5363,-2.5774,-2.6198,-2.5976,-2.6399,-2.6796,-2.6721,-2.7659,-2.8652,-2.9396,-2.9943,-3.0281,1.2675,1.1809,1.1089,1.0319,0.0,0.8567,0.7601,0.67,0.602,0.5413,0.4859,0.4576,0.4029,0.3271,0.2665,0.1951,0.1219,0.0723,0.0161,-0.0326,-0.0733,-0.1052,-0.128,-0.1619,-0.2114,-0.2602,-0.2302,-0.2643,-0.3637,-0.3626,-0.4294,-0.5682,-0.6473,-0.7736,-0.9306,-1.0726,-1.1853,-1.2732,-1.452,-1.6228,-1.7986,-1.953,-2.088,-2.1963,-2.2273,0.0,0.0,0.0,0.0,0.0,0.0,0.0,0.0,-2.4607,0.0,-2.4721,-2.4948,-2.4778,-2.4015,-2.4118,-2.406,-2.3723,-2.4117,-2.4402,-2.4475,-2.4339,-2.3973,-2.3486,-2.2866,-2.2462,-2.2619,-2.2221,-2.2358,-2.323,-2.3776,-2.4364,-2.5065,-2.5382,-2.5524,-2.5513,-2.4708,-2.4002,-2.3482,-2.3024,-2.247,-2.2268,-2.2446,-2.2754,-2.2868,-2.2903,-2.2877,-2.2938,-2.285,-2.2885,-2.3244,-2.3316,-2.3692,-2.4114,-2.4281,-2.4536,-2.5035,-2.5699,-2.6135,-2.6367,-2.6795,-2.7059,-2.6564,-2.676,-2.7038,-2.696,-2.7602,-2.844,-2.9176,-2.9932,-3.0676,1.3283,1.2446,1.1822,1.101,1.0277,0.9633,0.8773,0.7772,0.6566,0.0,0.0,0.5135,0.4693,0.4353,0.316,0.227,0.1693,0.0951,0.0236,-0.0471,-0.0786,-0.1181,-0.174,-0.2255,-0.2529,-0.2635,-0.2681,-0.2789,-0.3043,-0.2052,-0.2978,-0.561,-0.5379,-0.7082,-1.0682,-1.2494,-1.3319,-1.3491,-1.5399,-1.7088,-1.8594,-2.0278,-2.1827,-2.3065,-2.2969,-2.3103,-2.339,-2.37,-2.3891,-2.3949,-2.4447,-2.4607,-2.4421,-2.4778,-2.4892,-2.4835,-2.5005,-2.4765,-2.393,-2.3917,-2.3734,-2.3094,-2.4128,-2.4637,-2.4442,-2.4336,-2.4049,-2.3559,-2.2882,-2.267,-2.3021,-2.2485,-2.2474,-2.3678,-2.385,-2.4317,-2.5087,-2.5513,-2.5721,-2.5775,-2.5539,-2.5233,-2.4259,-2.398,-2.3639,-2.2795,-2.2895,-2.2973,-2.3028,-2.3242,-2.3162,-2.3193,-2.3094,-2.3299,-2.3841,-2.3919,-2.3958,-2.4983,-2.4907,-2.5117,-2.5896,-2.6543,-2.7151,-2.7586,-2.7957,-2.7857,-2.7458,-2.7522,-2.7566,-2.7218,-2.78,-2.8637,-2.9179,-3.0226,-3.1134,1.3931,1.3325,1.2369,1.184,1.1685,1.0184,0.9162,0.8491,0.7262,0.6765,0.6644,0.5927,0.5283,0.4638,0.3616,0.2811,0.205,0.1258,0.0629,0.0157,-0.055,-0.1428,-0.226,-0.2916,-0.3066,-0.2832,-0.3619,-0.3369,-0.1984,0.0758,-0.0829,-0.5606,-0.3154,-0.5481,-1.2947,-1.4969,-1.593,-1.6495,-1.6873,-1.7986,-1.9749,-2.1495,-2.2604,-2.31,-2.3509,-2.3641,-2.3569,-2.376,-2.3936,-2.4067,-2.4247,-2.4478,-2.4721,-2.4778,-2.4848,-2.4791,-2.4835,-2.462,-2.4099,-2.3884,-2.3782,-2.3791,-2.4935,-2.5269,-2.4195,-2.4386,-2.4506,-2.4334,-2.3745,-2.3452,-2.353,-2.3541,-2.3654,-2.3985,-2.4567,-2.5042,-2.5196,-2.524,-2.5317,-2.5338,-2.474,-2.4465,-2.4143,-2.4185,-2.3981,-2.3381,-2.3604,-2.4386,-2.44,-2.3837,-2.3143,-2.3257,-2.357,-2.4009,-2.4608,-2.5235,-2.5685,-2.6115,-2.6535,-2.6736,-2.7056,-2.7629,-2.808,-2.8047,-2.851,-2.8626,-2.82,-2.825,-2.8076,-2.7742,-2.8203,-2.9027,-2.9676,-3.0744,-3.1404,1.4772,1.405,1.3302,1.2734,1.2175,1.0845,1.0313,1.0211,0.9376,0.8452,0.7492,0.695,0.6222,0.5479,0.4644,0.3679,0.2663,0.1803,0.102,0.0315,-0.0478,-0.2386,-0.4991,-0.469,-0.3472,-0.194,-0.083,-0.0168,0.0421,0.1875,-0.1285,-0.8341,-0.8468,-1.0725,-1.4773,-1.6278,-1.7523,-1.8552,-1.8405,-1.9028,-2.0434,-2.1794,-2.2859,-2.3603,-2.378,-2.3793,-2.376,-2.3923,-2.3982,-2.4008,-2.4261,-2.4465,-2.4536,-2.4778,-2.5018,-2.5145,-2.5201,-2.4962,-2.4505,-2.3839,-2.3466,-2.3601,-2.4519,-2.4981,-2.4484,-2.503,-2.5229,-2.4814,-2.4299,-2.3948,-2.3773,-2.3765,-2.3857,-2.4172,-2.4381,-2.4734,-2.5282,-2.5245,-2.5273,-2.5491,-2.5371,-2.5131,-2.4627,-2.4941,-2.4632,-2.3643,-2.3737,-2.4155,-2.4576,-2.4416,-2.4193,-2.4497,-2.4477,-2.4884,-2.5684,-2.618,-2.6785,-2.7404,-2.7742,-2.8032,-2.832,-2.8865,-2.8956,-2.9047,-2.9081,-2.8608,-2.8181,-2.8217,-2.8186,-2.8066,-2.8836,-2.9768,-3.0531,-3.1568,-3.2216,1.5716,1.4848,1.4402,1.3667,1.2926,1.2145,1.2064,1.2331,1.1803,1.0822,0.9573,0.8604,0.7811,0.7383,0.7157,0.6405,0.5138,0.3291,0.1755,0.0534,-0.1724,-0.5021,-0.8053,-0.583,-0.3117,-0.0833,0.2588,0.3612,0.2169,0.2637,-0.1447,-0.9758,-1.4316,-1.662,-1.698,-1.8168,-1.9346,-2.0482,-2.0495,-2.0707,-2.135,-2.2421,-2.3446,-2.4261,-2.4176,-2.4118,-2.4274,-2.4247,-2.4144,-2.4054,-2.4363,-2.4523,-2.4408,-2.4835,-2.5201,-2.5439,-2.5383,-2.5145,-2.4664,-2.3897,-2.3365,-2.3356,-2.4142,-2.4693,-2.4858,-2.5642,-2.5914,-2.5253,-2.4933,-2.4587,-2.4212,-2.3993,-2.4016,-2.4345,-2.4273,-2.4648,-2.5349,-2.5502,-2.5676,-2.6119,-2.6396,-2.63,-2.5917,-2.606,-2.5788,-2.4573,-2.3711,-2.3551,-2.4159,-2.4671,-2.5052,-2.556,-2.5381,-2.5591,-2.6797,-2.7216,-2.7601,-2.8489,-2.8768,-2.9082,-2.9454,-2.9646,-2.976,-2.9806,-2.9466,-2.9015,-2.8422,-2.8668,-2.8869,-2.8778,-2.9722,-3.0855,-3.1765,-3.2562,-3.3116,1.6536,1.5824,1.5508,1.4917,1.4474,1.4773,1.4771,1.4463,1.408,1.407,1.3905,1.1537,1.0593,1.0997,1.2136,1.2084,1.0746,0.628,0.3024,0.0554,-0.5946,-1.0431,-1.1586,-0.4983,-0.1238,-0.0295,0.538,0.5504,0.1503,0.3116,0.0,-0.8896,-1.6541,-2.0209,-2.0314,-2.1487,-2.2433,-2.2774,-2.371,-2.3735,-2.2848,-2.4163,-2.4978,-2.5077,-2.4991,-2.5104,-2.53,-2.4794,-2.4465,-2.4465,-2.465,-2.4778,-2.4778,-2.5201,-2.5369,-2.523,-2.5131,-2.4791,-2.4274,-2.4292,-2.4002,-2.3321,-2.438,-2.5039,-2.496,-2.6083,-2.6569,-2.6012,-2.5828,-2.5419,-2.479,-2.4765,-2.4716,-2.4536,-2.4648,-2.5047,-2.5615,-2.6085,-2.6462,-2.7046,-2.7162,-2.7325,-2.7244,-2.7325,-2.7059,-2.5769,-2.4237,-2.3724,-2.4701,-2.4798,-2.4908,-2.5808,-2.5968,-2.6378,-2.7349,-2.7942,-2.8485,-2.9258,-2.977,-2.9908,-3.0011,-3.0125,-3.0125,-3.0125,-3.0112,-2.9862,-2.9873,-3.0056,-3.0212,-3.0159,-3.0944,-3.2152,-3.3202,-3.3725,-3.3725,1.8429,1.7861,1.7445,1.7213,1.7107,1.6834,1.688,1.7006,1.651,1.6757,1.7243,1.6222,1.459,1.2741,1.4119,1.1867,0.6455,0.4839,0.0976,-0.4285,-0.8342,-1.1746,-1.4329,-1.0761,-0.5494,0.0139,0.0985,0.1925,0.1933,-0.5069,-1.1965,-1.6115,-2.0079,-2.169,-2.1789,-2.2258,-2.2825,-2.3518,-2.4197,-2.4485,-2.4437,-2.5235,-2.5574,-2.5328,-2.5286,-2.5244,-2.5216,-2.4878,-2.465,-2.4509,-2.4821,-2.4948,-2.4848,-2.53,-2.5619,-2.5619,-2.537,-2.5216,-2.5061,-2.4536,-2.4334,-2.4517,-2.5042,-2.5525,-2.607,-2.7062,-2.7518,-2.7179,-2.6609,-2.6017,-2.5618,-2.5147,-2.4873,-2.4933,-2.4835,-2.5063,-2.5627,-2.6077,-2.6566,-2.7044,-2.7566,-2.7926,-2.7752,-2.7226,-2.6453,-2.5701,-2.4566,-2.434,-2.4891,-2.5239,-2.5756,-2.6169,-2.6534,-2.7071,-2.7936,-2.8661,-2.9267,-2.9791,-3.0078,-3.0216,-3.0216,-3.0487,-3.0578,-3.0487,-3.0648,-3.0649,-3.0671,-3.0918,-3.1168,-3.1501,-3.2191,-3.3275,-3.3966,-3.423,-3.4063,2.038,2.0029,1.9717,1.9576,1.9501,1.9144,1.9244,1.9654,1.9254,1.9673,2.0696,2.052,1.9135,1.7169,1.777,1.4503,0.9282,0.8388,0.3422,-0.4274,-0.5186,-0.9666,-1.6838,-1.1328,-0.6335,-0.1979,0.0066,0.1753,0.2636,-1.0155,-1.943,-2.2321,-2.3203,-2.3406,-2.3585,-2.3292,-2.3604,-2.4523,-2.4991,-2.548,-2.5867,-2.6521,-2.6547,-2.5964,-2.5766,-2.5668,-2.5547,-2.5121,-2.4869,-2.4637,-2.5104,-2.523,-2.4948,-2.5508,-2.5839,-2.5839,-2.5646,-2.5522,-2.5605,-2.5005,-2.478,-2.5325,-2.562,-2.6048,-2.6738,-2.7537,-2.8042,-2.8007,-2.7404,-2.69,-2.647,-2.6007,-2.5804,-2.5851,-2.5613,-2.5719,-2.6366,-2.6685,-2.7049,-2.7501,-2.8124,-2.8486,-2.8263,-2.7233,-2.6071,-2.5669,-2.502,-2.4538,-2.468,-2.5344,-2.6062,-2.6265,-2.6849,-2.7644,-2.8357,-2.8767,-2.9504,-3.0111,-3.0306,-3.0397,-3.0397,-3.0847,-3.1116,-3.1069,-3.1165,-3.1404,-3.1612,-3.1859,-3.2187,-3.2756,-3.3334,-3.3966,-3.4397,-3.4494,-3.4481,2.214,2.2104,2.2079,2.1834,2.1413,2.1932,2.2287,2.2528,2.2433,2.3153,2.43,2.3884,2.4163,2.4766,2.4229,2.4464,2.397,1.9298,1.1897,0.351,0.4134,-0.4294,-1.9844,-0.4945,-0.1641,-0.7457,0.2669,0.6218,0.0,-0.8586,-1.7063,-2.5187,-2.5499,-2.5972,-2.5795,-2.5141,-2.5482,-2.606,-2.6618,-2.7114,-2.7432,-2.818,-2.805,-2.7193,-2.6499,-2.638,-2.6637,-2.5877,-2.5226,-2.4975,-2.5508,-2.5674,-2.5286,-2.577,-2.6002,-2.5784,-2.5729,-2.5591,-2.5522,-2.5605,-2.5564,-2.5165,-2.604,-2.6545,-2.6585,-2.7589,-2.8218,-2.8092,-2.8382,-2.8201,-2.7642,-2.7555,-2.7507,-2.7336,-2.7324,-2.7495,-2.801,-2.7946,-2.8439,-2.8729,-2.89,-2.8924,-2.9003,-2.7649,-2.6792,-2.6297,-2.5277,-2.4353,-2.4495,-2.4865,-2.5442,-2.5995,-2.6932,-2.807,-2.8545,-2.8976,-2.9491,-3.0012,-3.0493,-3.0734,-3.0937,-3.1217,-3.146,-3.1789,-3.229,-3.261,-3.2685,-3.2943,-3.3318,-3.3753,-3.4004,-3.4494,-3.4476,-3.4703,-3.469,2.4866,2.5362,2.4784,2.4704,2.5087,2.4966,2.5077,2.5398,2.5972,2.6477,2.6902,2.672,2.7187,2.8232,2.8024,2.5039,2.0465,1.9581,1.1824,-0.0682,-0.1787,-0.8874,-1.9768,-1.4866,-1.095,-0.974,-0.8587,-0.6459,-0.5375,-1.4416,-1.8031,-1.7327,-2.2099,-2.5194,-2.5743,-2.4933,-2.495,-2.5985,-2.6057,-2.6466,-2.7475,-2.7742,-2.7906,-2.8181,-2.721,-2.6781,-2.6877,-2.6133,-2.5615,-2.5467,-2.5729,-2.5839,-2.5839,-2.615,-2.6244,-2.6096,-2.5988,-2.5948,-2.5879,-2.5879,-2.5952,-2.6133,-2.7027,-2.7672,-2.8075,-2.9025,-2.9657,-2.9379,-2.9605,-2.9587,-2.8966,-2.8396,-2.8036,-2.8084,-2.7865,-2.7903,-2.8114,-2.8475,-2.8786,-2.8998,-2.9285,-2.9332,-2.8765,-2.8118,-2.76,-2.6923,-2.6308,-2.5743,-2.5394,-2.5958,-2.6403,-2.6213,-2.7079,-2.8186,-2.8584,-2.9197,-2.9768,-3.0178,-3.0531,-3.1225,-3.1583,-3.2203,-3.2475,-3.2965,-3.35,-3.4011,-3.4095,-3.4345,-3.4703,-3.4716,-3.499,-3.4762,-3.443,-3.4804,-3.4682,2.7257,2.7797,2.7389,2.749,2.7973,2.7741,2.7838,2.8174,2.8512,2.8934,2.932,2.8914,2.9325,3.0406,3.0604,2.7889,2.267,2.345,1.636,0.3947,0.5193,-0.2055,-1.4895,-1.4592,-1.3915,-1.4247,-1.5819,-1.38,-0.9754,-1.5931,-1.791,-1.6129,-2.16,-2.4873,-2.5695,-2.486,-2.4954,-2.5936,-2.5819,-2.6233,-2.7386,-2.7253,-2.7595,-2.8329,-2.7659,-2.7133,-2.7076,-2.653,-2.6133,-2.598,-2.621,-2.6351,-2.6404,-2.6616,-2.6549,-2.6312,-2.6165,-2.6165,-2.6218,-2.6042,-2.6117,-2.6511,-2.7272,-2.8036,-2.8608,-2.9609,-3.0066,-3.0119,-3.0485,-3.0552,-3.0105,-2.9417,-2.9007,-2.9068,-2.8847,-2.8698,-2.8872,-2.9214,-2.9403,-2.9517,-2.9783,-2.963,-2.9188,-2.8811,-2.8311,-2.7716,-2.7348,-2.6675,-2.637,-2.6572,-2.7152,-2.6618,-2.734,-2.8207,-2.8847,-2.9521,-2.9977,-3.036,-3.0431,-3.1186,-3.2262,-3.2908,-3.3489,-3.4014,-3.46,-3.5237,-3.5629,-3.579,-3.579,-3.571,-3.5562,-3.54,-3.5184,-3.5008,-3.4808,2.9352,2.94,2.9826,2.9907,2.9959,3.0043,3.0495,3.073,3.0042,3.0718,3.1834,3.0561,3.0981,3.2158,3.2607,3.2731,3.2394,3.1823,2.6835,1.9239,2.5713,1.527,-0.6959,-0.163,-0.6861,-1.972,-1.4155,-1.0962,-1.0836,-1.3117,-1.7048,-2.277,-2.3851,-2.5095,-2.602,-2.5177,-2.5505,-2.6332,-2.6307,-2.668,-2.7324,-2.7131,-2.7351,-2.8061,-2.7773,-2.7512,-2.7631,-2.7162,-2.6695,-2.6424,-2.6856,-2.7167,-2.7034,-2.7071,-2.6878,-2.6486,-2.6233,-2.6272,-2.6418,-2.6258,-2.6233,-2.6295,-2.672,-2.7527,-2.8151,-2.8976,-2.9676,-3.0141,-3.0707,-3.0938,-3.0717,-3.0771,-3.0747,-3.0482,-3.0176,-3.0163,-3.0227,-3.0317,-3.0355,-3.0317,-3.0292,-3.0368,-3.0164,-2.9618,-2.9076,-2.88,-2.8101,-2.7344,-2.7146,-2.7191,-2.6866,-2.7162,-2.7963,-2.8729,-2.9332,-2.9894,-3.0232,-3.0591,-3.0469,-3.0876,-3.2403,-3.3316,-3.3911,-3.4446,-3.5142,-3.5782,-3.5771,-3.5943,-3.5984,-3.5919,-3.5922,-3.5702,-3.5268,-3.4958,-3.483,3.117,3.1321,3.0986,3.1215,3.1765,3.1838,3.2138,3.2704,3.3104,3.3789,3.4208,3.3829,3.3957,3.4382,3.4695,3.4846,3.5026,3.4638,2.9675,2.241,2.3435,1.6524,0.3785,0.2984,-0.2064,-1.1509,-1.0692,-0.9107,-1.0238,-1.5506,-1.8447,-1.6345,-2.0677,-2.3883,-2.4472,-2.4178,-2.4355,-2.5463,-2.5499,-2.5988,-2.7162,-2.7061,-2.7078,-2.7324,-2.7755,-2.7746,-2.7135,-2.7195,-2.7179,-2.7102,-2.6792,-2.6794,-2.7174,-2.7357,-2.7342,-2.7167,-2.6803,-2.6606,-2.663,-2.6736,-2.6683,-2.6697,-2.757,-2.8235,-2.8484,-2.9645,-3.0358,-3.0435,-3.0925,-3.1154,-3.071,-3.0992,-3.1175,-3.0882,-3.0836,-3.0672,-3.052,-3.0444,-3.0368,-3.0368,-3.0368,-3.0368,-3.0355,-3.0036,-2.991,-2.9897,-2.9404,-2.8962,-2.8531,-2.8659,-2.8632,-2.8451,-2.9021,-2.9517,-3.005,-3.0482,-3.079,-3.1086,-3.1086,-3.1145,-3.2486,-3.3662,-3.4241,-3.4845,-3.5626,-3.592,-3.5989,-3.6108,-3.6122,-3.585,-3.5579,-3.5308,-3.4999,-3.4802,-3.4698,3.265,3.3226,3.2789,3.2983,3.363,3.3698,3.3946,3.4359,3.4891,3.5256,3.5403,3.513,3.5215,3.5497,3.565,3.5839,3.5994,3.6147,3.2517,2.6504,2.5409,1.9794,1.0325,0.5378,0.1572,-0.2997,-0.3788,-0.3462,-0.3551,-0.8854,-0.9514,-0.659,-1.3458,-1.8094,-1.9543,-2.1974,-2.3807,-2.4529,-2.4707,-2.5039,-2.5716,-2.6033,-2.6114,-2.6427,-2.7024,-2.7354,-2.7296,-2.7436,-2.7426,-2.7357,-2.693,-2.7006,-2.7458,-2.7595,-2.7675,-2.7524,-2.7233,-2.6974,-2.7049,-2.6997,-2.7049,-2.7158,-2.8071,-2.8777,-2.901,-3.0367,-3.1078,-3.1228,-3.1651,-3.1876,-3.1541,-3.1478,-3.153,-3.1361,-3.1254,-3.1123,-3.0898,-3.0823,-3.0836,-3.0911,-3.0823,-3.0748,-3.0748,-3.0672,-3.0672,-3.0735,-3.0568,-3.0508,-3.0126,-3.0227,-2.996,-2.9795,-3.0086,-3.0566,-3.0856,-3.1185,-3.1352,-3.1602,-3.1774,-3.2077,-3.2898,-3.3783,-3.4517,-3.5169,-3.5919,-3.5709,-3.5737,-3.6212,-3.6376,-3.59,-3.5483,-3.5325,-3.5156,-3.4873,-3.4637,3.3743,3.4935,3.5005,3.5078,3.5352,3.543,3.5615,3.5882,3.5307,3.533,3.5614,3.5325,3.52,3.5619,3.5976,3.6291,3.6614,3.6808,3.6295,3.4592,3.3282,2.8324,2.0254,1.2465,0.7993,0.5787,0.5619,0.5307,0.4114,0.2965,0.5097,0.2839,-0.5592,-0.9837,-1.2417,-1.8891,-2.3576,-2.3861,-2.4002,-2.4068,-2.4061,-2.4339,-2.4747,-2.5373,-2.5871,-2.663,-2.7528,-2.7656,-2.7446,-2.7258,-2.7336,-2.7482,-2.7795,-2.7825,-2.7725,-2.7625,-2.7372,-2.7335,-2.7372,-2.71,-2.7093,-2.7688,-2.8159,-2.8669,-2.9644,-3.057,-3.1454,-3.2038,-3.2371,-3.262,-3.2565,-3.2456,-3.211,-3.1888,-3.1564,-3.1389,-3.1536,-3.1469,-3.1349,-3.1343,-3.1375,-3.1288,-3.1143,-3.1008,-3.1122,-3.1322,-3.1176,-3.1101,-3.1444,-3.1386,-3.1176,-3.1189,-3.1262,-3.1449,-3.1783,-3.1809,-3.205,-3.225,-3.2445,-3.2676,-3.3009,-3.3765,-3.4396,-3.5171,-3.5699,-3.5441,-3.5444,-3.578,-3.6144,-3.5928,-3.5698,-3.5625,-3.541,-3.511,-3.4808,3.4678,3.5328,3.5904,3.6138,3.6086,3.5827,3.6012,3.6377,3.6036,3.63,3.6766,3.7005,3.6916,3.7055,3.7129,3.7235,3.7303,3.7487,3.7343,3.6743,3.6019,3.3969,3.0757,2.735,2.1916,1.6782,1.5846,1.278,0.6707,0.7549,0.7017,0.5572,-0.1911,-0.7428,-0.9131,-1.7054,-2.2241,-2.2822,-2.3329,-2.3711,-2.4128,-2.4401,-2.4576,-2.4599,-2.5585,-2.6297,-2.6827,-2.7566,-2.7771,-2.7409,-2.7583,-2.764,-2.7575,-2.7625,-2.7725,-2.7875,-2.7437,-2.7284,-2.7575,-2.735,-2.7491,-2.8174,-2.877,-2.9485,-3.0597,-3.0866,-3.1456,-3.1936,-3.2009,-3.2003,-3.2105,-3.2336,-3.2372,-3.2148,-3.1556,-3.1185,-3.1281,-3.1116,-3.1034,-3.0978,-3.099,-3.1031,-3.0934,-3.0948,-3.1083,-3.151,-3.1575,-3.1639,-3.2169,-3.2318,-3.2082,-3.2167,-3.2263,-3.2434,-3.2547,-3.2547,-3.2717,-3.2959,-3.3099,-3.307,-3.3223,-3.3561,-3.401,-3.445,-3.4852,-3.4825,-3.4825,-3.5011,-3.5309,-3.5883,-3.5467,-3.5267,-3.5524,-3.5452,-3.5242,3.5514,3.6253,3.6636,3.6773,3.6755,3.6584,3.673,3.7031,3.7095,3.7254,3.7667,3.7967,3.8002,3.7845,3.7949,3.7931,3.7897,3.805,3.7946,3.7649,3.697,3.5533,3.4157,3.3846,3.1083,2.7056,2.6194,2.3682,1.9895,1.8424,1.8207,1.7033,0.8545,0.2509,-0.1436,-1.0542,-1.7921,-2.0607,-2.1985,-2.2608,-2.2883,-2.3731,-2.401,-2.4108,-2.5014,-2.5728,-2.6479,-2.734,-2.7694,-2.7499,-2.7588,-2.7632,-2.7518,-2.7437,-2.7625,-2.7989,-2.7539,-2.7488,-2.7855,-2.7936,-2.8297,-2.8934,-2.9569,-3.0387,-3.117,-3.1544,-3.199,-3.28,-3.2658,-3.2645,-3.2622,-3.2637,-3.2368,-3.204,-3.1425,-3.1208,-3.1474,-3.15,-3.1364,-3.1268,-3.1144,-3.1007,-3.095,-3.0881,-3.1184,-3.1681,-3.1903,-3.243,-3.3044,-3.2974,-3.3058,-3.3157,-3.3157,-3.3255,-3.3269,-3.3269,-3.3269,-3.3507,-3.3577,-3.3536,-3.376,-3.376,-3.4085,-3.437,-3.4312,-3.438,-3.462,-3.4955,-3.5569,-3.5785,-3.5236,-3.5052,-3.5365,-3.5608,-3.5415,3.6385,3.745,3.7266,3.7248,3.738,3.7576,3.7574,3.7753,3.7944,3.8063,3.8111,3.8314,3.8332,3.8183,3.835,3.8419,3.8446,3.8566,3.8523,3.8263,3.7644,3.6485,3.5157,3.4594,3.4216,3.3702,3.4558,3.4085,3.238,3.3222,3.2846,2.7172,2.0399,1.2995,0.2191,-0.5629,-1.2524,-1.9072,-2.1114,-2.1502,-2.1699,-2.263,-2.3358,-2.3684,-2.4572,-2.5455,-2.6375,-2.7182,-2.7569,-2.7526,-2.7535,-2.7506,-2.749,-2.7314,-2.7622,-2.8001,-2.8107,-2.8188,-2.8511,-2.8926,-2.9348,-2.994,-3.0586,-3.1313,-3.1868,-3.2324,-3.278,-3.3602,-3.3951,-3.3618,-3.3565,-3.2985,-3.2329,-3.1907,-3.153,-3.1709,-3.1986,-3.2099,-3.194,-3.1737,-3.1474,-3.1294,-3.1057,-3.0957,-3.1135,-3.1688,-3.2041,-3.2659,-3.3306,-3.3575,-3.3796,-3.407,-3.4085,-3.3991,-3.3991,-3.3991,-3.3908,-3.3977,-3.3977,-3.402,-3.4466,-3.4524,-3.4665,-3.4723,-3.4209,-3.4301,-3.48,-3.5215,-3.5669,-3.5899,-3.5539,-3.5299,-3.5219,-3.5479,-3.5479,3.7666,3.8104,3.8101,3.8065,3.7972,3.769,3.7694,3.7902,3.7869,3.807,3.8308,3.8573,3.87,3.867,3.8807,3.8873,3.8873,3.9091,3.9146,3.8826,3.8342,3.7851,3.7005,3.6289,3.6145,3.6301,3.6232,3.6312,3.6429,3.569,3.2266,2.5009,1.8831,0.6446,-0.1472,-0.8044,-1.8193,-2.0252,-2.0362,-1.9797,-1.9982,-2.1167,-2.2336,-2.3324,-2.4837,-2.5462,-2.5899,-2.744,-2.8167,-2.7871,-2.7641,-2.7523,-2.7325,-2.7825,-2.8278,-2.8686,-2.9167,-2.9565,-2.9833,-2.9785,-3.0099,-3.1,-3.1197,-3.1726,-3.3029,-3.2573,-3.2707,-3.3064,-3.2976,-3.3121,-3.3347,-3.304,-3.254,-3.2112,-3.2082,-3.2082,-3.1778,-3.1375,-3.1211,-3.1065,-3.0931,-3.0778,-3.0754,-3.0735,-3.1022,-3.1622,-3.2177,-3.2766,-3.3422,-3.3998,-3.4274,-3.4491,-3.4624,-3.4587,-3.4654,-3.4639,-3.4572,-3.4505,-3.4423,-3.4558,-3.4949,-3.482,-3.4738,-3.434,-3.3842,-3.4235,-3.5088,-3.489,-3.5192,-3.5524,-3.5894,-3.5688,-3.5559,-3.5623,-3.5574,3.7705,3.7533,3.8011,3.7966,3.7589,3.7386,3.745,3.7683,3.8063,3.8264,3.8524,3.8958,3.9189,3.9144,3.9287,3.9331,3.9338,3.9494,3.9445,3.9109,3.8762,3.8524,3.8227,3.779,3.747,3.7379,3.702,3.7017,3.7055,3.6566,3.427,2.9386,2.3117,1.845,0.8966,0.112,-0.1385,-0.5118,-0.7157,-0.7621,-0.8017,-1.3324,-1.9256,-2.2571,-2.4802,-2.5518,-2.5784,-2.6896,-2.7732,-2.7879,-2.7809,-2.7769,-2.7654,-2.8018,-2.8471,-2.9252,-2.9546,-3.0105,-3.0345,-3.0705,-3.0906,-3.1489,-3.1682,-3.2327,-3.2967,-3.2757,-3.2998,-3.338,-3.3401,-3.3163,-3.3305,-3.3051,-3.2659,-3.2377,-3.2348,-3.2212,-3.188,-3.1486,-3.1232,-3.1119,-3.0978,-3.0762,-3.0681,-3.0717,-3.1224,-3.2004,-3.2373,-3.2919,-3.3743,-3.4303,-3.4356,-3.4572,-3.4905,-3.5037,-3.5219,-3.5285,-3.5285,-3.5154,-3.5023,-3.5204,-3.5474,-3.5067,-3.4587,-3.4423,-3.4491,-3.4905,-3.5494,-3.5154,-3.5008,-3.5608,-3.6022,-3.6022,-3.5894,-3.5752,-3.5688,3.7543,3.7065,3.7865,3.7873,3.7403,3.7539,3.7683,3.7826,3.8355,3.871,3.8742,3.9365,3.946,3.9622,3.975,3.9794,3.9797,3.9754,3.9622,3.9408,3.9219,3.9034,3.8802,3.8645,3.8505,3.8314,3.7789,3.7614,3.7596,3.7033,3.5022,3.423,3.3701,2.4982,2.0898,1.9941,1.3293,0.6604,0.5372,0.5441,0.5037,-0.1973,-0.9814,-1.8035,-2.3628,-2.4873,-2.548,-2.6327,-2.6999,-2.7835,-2.7865,-2.8126,-2.8396,-2.8461,-2.8408,-2.9615,-2.9918,-3.0532,-3.1065,-3.1449,-3.1636,-3.162,-3.2106,-3.2552,-3.2808,-3.2925,-3.315,-3.3506,-3.3604,-3.3463,-3.3444,-3.3104,-3.2844,-3.2604,-3.2404,-3.2302,-3.2205,-3.2047,-3.1911,-3.1521,-3.1154,-3.0829,-3.0938,-3.1073,-3.1687,-3.2284,-3.2702,-3.3201,-3.4039,-3.4654,-3.4905,-3.5154,-3.5559,-3.5943,-3.6196,-3.6243,-3.6165,-3.5976,-3.5785,-3.5913,-3.6165,-3.5961,-3.5691,-3.5529,-3.5672,-3.5831,-3.5752,-3.5479,-3.5608,-3.6006,-3.6085,-3.6085,-3.5958,-3.5816,-3.5846,3.8811,3.8883,3.9071,3.9194,3.9218,3.9255,3.9113,3.9364,3.8804,3.9204,3.958,3.9318,3.9507,3.989,4.0136,4.0191,4.0155,4.0101,3.9964,3.9821,3.9656,3.9519,3.9561,3.9346,3.9339,3.9352,3.8812,3.84,3.8296,3.8002,3.4923,2.8347,2.7547,2.2804,1.7255,1.1973,1.4868,1.3403,1.2228,1.1682,1.0337,0.691,-0.0481,-1.0614,-1.8497,-2.2945,-2.4551,-2.5667,-2.6659,-2.7168,-2.7719,-2.8222,-2.8655,-2.9143,-2.9563,-2.9923,-3.0675,-3.1304,-3.1765,-3.1965,-3.2392,-3.2748,-3.2718,-3.2532,-3.2686,-3.2905,-3.3045,-3.3022,-3.3256,-3.3354,-3.3068,-3.3053,-3.2874,-3.2742,-3.278,-3.2742,-3.2523,-3.2486,-3.2604,-3.2255,-3.1588,-3.1057,-3.1293,-3.1556,-3.2109,-3.2766,-3.3336,-3.3967,-3.4726,-3.5428,-3.5879,-3.6133,-3.6461,-3.6846,-3.715,-3.7194,-3.7194,-3.6921,-3.6799,-3.6799,-3.6982,-3.7087,-3.6966,-3.6492,-3.5928,-3.5608,-3.5608,-3.5737,-3.58,-3.6022,-3.6085,-3.6085,-3.6052,-3.6034,-3.6189,3.8071,3.7799,3.7946,3.7794,3.7505,3.7534,3.7622,3.7693,3.7786,3.8266,3.8885,3.9167,3.9653,4.0251,4.0519,4.0571,4.0516,4.0472,4.0345,4.0189,4.0062,3.9967,4.0062,3.9848,3.9867,3.9865,3.9542,3.9133,3.8855,3.867,3.5681,3.3231,3.142,2.8777,2.5509,2.5461,2.357,2.3346,2.3227,2.3074,2.1874,1.8609,0.8329,-0.484,-1.2233,-1.7889,-2.31,-2.4199,-2.5356,-2.6071,-2.6493,-2.7077,-2.7994,-2.8983,-2.9822,-3.0162,-3.0997,-3.1694,-3.2048,-3.2191,-3.2633,-3.2672,-3.2578,-3.2617,-3.2711,-3.2904,-3.3027,-3.3027,-3.3171,-3.345,-3.3377,-3.3309,-3.3293,-3.3277,-3.3293,-3.3171,-3.3071,-3.3108,-3.3071,-3.298,-3.2453,-3.1981,-3.1754,-3.2091,-3.2528,-3.3175,-3.3903,-3.4667,-3.5477,-3.5983,-3.6507,-3.6585,-3.6769,-3.7089,-3.7405,-3.7583,-3.7626,-3.7492,-3.7492,-3.7492,-3.7373,-3.7298,-3.7238,-3.6921,-3.6352,-3.5913,-3.5943,-3.6211,-3.6148,-3.6022,-3.6085,-3.61,-3.6191,-3.6268,-3.6435,3.7387,3.6977,3.6969,3.6704,3.626,3.6084,3.6292,3.648,3.7013,3.7857,3.8623,3.9238,3.9937,4.0558,4.079,4.0809,4.0811,4.0801,4.0645,4.0494,4.0405,4.0346,4.0284,4.0219,4.0219,4.0221,4.0135,3.9865,3.9371,3.9136,3.8915,3.7643,3.8295,3.8645,3.7057,3.5298,3.8125,3.8062,3.7982,3.788,3.5359,2.7402,1.5962,0.0239,-0.3547,-0.9444,-1.752,-1.9023,-2.1876,-2.3956,-2.546,-2.5844,-2.6909,-2.8182,-2.9219,-2.9964,-3.0674,-3.1203,-3.1694,-3.1936,-3.2247,-3.2578,-3.2578,-3.2656,-3.2857,-3.3033,-3.3277,-3.3435,-3.3607,-3.3813,-3.3797,-3.3745,-3.3848,-3.4,-3.3797,-3.3607,-3.3781,-3.3815,-3.3764,-3.3594,-3.3198,-3.2986,-3.2826,-3.2616,-3.3082,-3.4063,-3.4888,-3.5478,-3.6224,-3.6566,-3.6952,-3.6892,-3.7013,-3.727,-3.7508,-3.7642,-3.7685,-3.761,-3.7685,-3.7759,-3.7567,-3.7314,-3.727,-3.7345,-3.7118,-3.6738,-3.6769,-3.6554,-3.6289,-3.6148,-3.6148,-3.6237,-3.6432,-3.6596,-3.6728,3.8232,3.8871,3.8202,3.833,3.8701,3.8005,3.8237,3.8704,3.8205,3.9066,3.9957,3.9934,4.0145,4.0727,4.0859,4.0881,4.0875,4.0818,4.0765,4.071,4.0694,4.0714,4.0751,4.0692,4.0571,4.0526,4.048,4.0206,3.9865,3.9709,3.9561,3.9421,3.9427,3.9439,3.9208,3.9197,3.9249,3.9043,3.8857,3.8554,3.678,2.8754,2.2468,1.6821,1.0049,0.1088,-0.7724,-0.987,-1.3017,-2.109,-2.4026,-2.5281,-2.5938,-2.6976,-2.767,-2.8468,-2.9484,-3.0658,-3.1058,-3.1407,-3.1823,-3.2468,-3.2796,-3.2803,-3.2911,-3.3214,-3.3543,-3.3797,-3.3949,-3.4101,-3.4101,-3.3949,-3.4151,-3.4399,-3.4431,-3.4399,-3.448,-3.4431,-3.4399,-3.4333,-3.3986,-3.4036,-3.4002,-3.3718,-3.3672,-3.4745,-3.5776,-3.6337,-3.6853,-3.7184,-3.7433,-3.7373,-3.7314,-3.7508,-3.7567,-3.77,-3.7743,-3.7669,-3.7759,-3.7924,-3.7966,-3.7821,-3.7855,-3.7855,-3.7646,-3.7285,-3.6892,-3.66,-3.6336,-3.6148,-3.6085,-3.6417,-3.6838,-3.692,-3.708,3.8188,3.9295,3.81,3.7809,3.8072,3.7286,3.7166,3.7483,3.7706,3.8385,3.9387,3.9759,4.0234,4.0819,4.0915,4.0897,4.0897,4.0857,4.0851,4.0854,4.0859,4.0901,4.092,4.09,4.0838,4.0797,4.0738,4.0664,4.0414,4.0241,4.0082,3.9886,3.9946,3.9907,3.9735,3.9762,3.9621,3.9429,3.9239,3.9055,3.7776,3.4294,2.9363,2.4257,1.9287,1.1648,0.4388,0.1458,-0.0416,-0.6782,-1.0619,-1.4723,-1.6983,-2.1057,-2.5721,-2.5689,-2.8397,-2.9936,-3.0329,-3.1102,-3.1823,-3.2191,-3.2523,-3.2742,-3.2904,-3.3351,-3.361,-3.3539,-3.405,-3.4349,-3.448,-3.4529,-3.4723,-3.493,-3.4913,-3.4866,-3.4883,-3.4947,-3.4947,-3.4883,-3.4866,-3.4897,-3.4785,-3.4366,-3.4365,-3.5369,-3.6162,-3.659,-3.7262,-3.7774,-3.7886,-3.7976,-3.786,-3.7817,-3.7759,-3.7817,-3.7817,-3.7743,-3.7642,-3.7918,-3.8435,-3.8483,-3.8552,-3.8494,-3.8336,-3.7862,-3.7124,-3.6723,-3.6476,-3.6226,-3.5973,-3.647,-3.698,-3.7352,-3.7579,3.8277,3.937,3.762,3.6992,3.7139,3.6337,3.6186,3.6461,3.7265,3.8047,3.8863,3.9725,4.0442,4.0823,4.09,4.0861,4.0866,4.0881,4.0883,4.0884,4.0895,4.0917,4.0937,4.0956,4.0935,4.0988,4.0882,4.0832,4.0766,4.0645,4.0462,4.0216,4.0288,4.023,4.013,4.0087,4.0008,3.9814,3.9662,3.9546,3.9271,3.915,3.4696,3.069,2.7056,2.3295,1.4957,1.2949,1.2173,0.5848,0.091,-0.3175,-0.4934,-1.277,-1.8499,-2.0379,-2.4079,-2.8214,-2.9233,-3.0466,-3.1637,-3.2007,-3.2176,-3.2633,-3.3096,-3.3539,-3.3848,-3.3694,-3.4267,-3.4626,-3.4771,-3.4961,-3.5055,-3.5165,-3.5258,-3.5211,-3.5211,-3.535,-3.5532,-3.5571,-3.5554,-3.5537,-3.534,-3.4878,-3.5153,-3.6043,-3.6583,-3.7015,-3.7637,-3.8381,-3.8518,-3.859,-3.8623,-3.8511,-3.8415,-3.8303,-3.8132,-3.804,-3.7956,-3.8136,-3.8761,-3.9129,-3.9257,-3.9198,-3.9093,-3.8412,-3.7669,-3.7173,-3.6662,-3.6532,-3.647,-3.6768,-3.7104,-3.7564,-3.7982,3.8925,3.9569,3.7061,3.653,3.7262,3.6382,3.6462,3.7128,3.8007,3.8834,3.9692,4.0408,4.0701,4.0799,4.081,4.0781,4.0777,4.08,4.0796,4.0824,4.0838,4.0877,4.0894,4.0886,4.0893,4.0947,4.0865,4.0828,4.0877,4.078,4.0662,4.052,4.0519,4.0435,4.0385,4.0405,4.0405,4.0262,4.0192,4.0081,3.9976,3.9852,3.882,3.8518,3.7423,3.4067,2.4795,2.367,2.0888,1.3609,0.9782,0.78,0.5682,-0.2787,-0.8265,-1.1117,-1.666,-2.1221,-2.4519,-2.8894,-3.1203,-3.1751,-3.216,-3.2656,-3.3224,-3.4169,-3.4431,-3.4301,-3.4864,-3.5178,-3.5195,-3.5135,-3.5333,-3.5424,-3.556,-3.5532,-3.5622,-3.58,-3.6019,-3.6224,-3.6207,-3.6122,-3.6062,-3.561,-3.6017,-3.6902,-3.7628,-3.8035,-3.8526,-3.9146,-3.9249,-3.9335,-3.9385,-3.9348,-3.9259,-3.9044,-3.8772,-3.8851,-3.8958,-3.9039,-3.9328,-3.964,-4.0204,-3.9856,-3.9702,-3.8919,-3.8232,-3.7779,-3.7404,-3.7128,-3.7016,-3.7162,-3.7654,-3.8282,-3.8546,3.7831,3.7995,3.6415,3.6654,3.7943,3.6575,3.6474,3.7285,3.8049,3.9123,4.0248,4.0587,4.0706,4.0667,4.0617,4.0596,4.0565,4.0584,4.0591,4.0622,4.0649,4.0742,4.077,4.0768,4.0768,4.0762,4.068,4.0645,4.0694,4.063,4.0593,4.0546,4.0617,4.0738,4.0721,4.07,4.0721,4.0733,4.0699,4.0638,4.0585,4.04,4.0331,4.0282,4.0041,3.8516,3.4667,3.4056,3.1428,2.7447,2.1957,1.9693,1.7183,0.851,0.3499,0.1154,-0.5037,-1.089,-1.8528,-2.4864,-3.0997,-3.2185,-3.2656,-3.298,-3.3439,-3.4186,-3.4781,-3.5015,-3.5414,-3.5776,-3.5873,-3.5837,-3.5854,-3.5854,-3.5827,-3.5861,-3.5975,-3.6191,-3.6318,-3.6474,-3.6492,-3.6485,-3.6468,-3.6451,-3.7024,-3.7716,-3.8434,-3.9076,-3.9531,-3.9767,-3.9868,-3.9834,-3.9902,-3.9833,-3.9679,-3.9523,-3.9365,-3.9628,-3.9906,-4.0005,-4.0148,-4.0988,-4.1325,-4.09,-4.0449,-3.9912,-3.9314,-3.8623,-3.7994,-3.7345,-3.7188,-3.7389,-3.8075,-3.8931,-3.882,3.6838,3.6954,3.6079,3.645,3.742,3.6416,3.6211,3.6832,3.7522,3.8576,3.983,4.0034,4.013,4.0085,4.0018,4.0147,4.017,4.0248,4.0283,4.0279,4.0326,4.0423,4.0453,4.0448,4.0405,4.0428,4.0381,4.0312,4.0377,4.023,4.0203,4.0295,4.049,4.0549,4.0757,4.0837,4.0898,4.0917,4.0917,4.0897,4.0837,4.073,4.0621,4.0574,4.0363,4.011,3.9247,3.869,3.8827,3.6489,3.3544,3.0594,2.6584,2.1625,1.5556,1.1912,0.682,0.0146,-0.7206,-2.0249,-2.9828,-3.1743,-3.2164,-3.2817,-3.3668,-3.4317,-3.5015,-3.5335,-3.5839,-3.6298,-3.6399,-3.6285,-3.6346,-3.6354,-3.6268,-3.6311,-3.6402,-3.655,-3.6632,-3.6696,-3.6834,-3.7105,-3.7577,-3.7721,-3.8139,-3.8799,-3.9549,-4.0052,-4.026,-4.0443,-4.0391,-4.038,-4.0319,-4.0187,-4.0037,-4.0003,-3.9969,-4.0052,-4.0369,-4.0767,-4.116,-4.1849,-4.2228,-4.1902,-4.1401,-4.0911,-4.0262,-3.955,-3.8384,-3.7223,-3.7471,-3.7864,-3.8536,-3.9155,-3.8701,3.6267,3.6871,3.6065,3.5752,3.5935,3.576,3.5779,3.6132,3.6823,3.7552,3.8334,3.8954,3.9207,3.9107,3.9223,3.9508,3.9785,3.9835,3.9876,3.9903,3.9886,3.9927,3.9928,3.9948,3.9909,3.9967,3.9871,3.9851,3.9967,3.9795,3.9776,3.9814,3.9902,4.0028,4.0441,4.0572,4.0641,4.0691,4.0649,4.0731,4.0726,4.0721,4.0701,4.0649,4.0522,4.0446,4.0487,4.0427,4.0345,3.9532,3.9092,3.7381,3.6181,2.9982,2.5283,2.3102,0.927,0.4127,0.4871,-1.5661,-2.5546,-2.9699,-3.0116,-3.1399,-3.347,-3.4764,-3.547,-3.5805,-3.6305,-3.6643,-3.6683,-3.6661,-3.6814,-3.6869,-3.6806,-3.676,-3.6878,-3.69,-3.6939,-3.7094,-3.7504,-3.7971,-3.8615,-3.9138,-3.9409,-3.997,-4.0666,-4.1031,-4.1168,-4.1126,-4.1093,-4.1024,-4.0972,-4.0784,-4.0707,-4.0662,-4.0634,-4.069,-4.0798,-4.1076,-4.1598,-4.2222,-4.2526,-4.2582,-4.2418,-4.1924,-4.1182,-4.0418,-3.9178,-3.8065,-3.8193,-3.8569,-3.9124,-3.9137,-3.8374,3.6142,3.6845,3.5842,3.5438,3.5456,3.5523,3.5888,3.6531,3.7205,3.7602,3.7825,3.8517,3.8804,3.8816,3.9129,3.9339,3.9382,3.9679,3.9702,3.9432,3.9414,3.9491,3.9472,3.9339,3.9264,3.9246,3.9207,3.9226,3.9327,3.9214,3.9207,3.9252,3.9226,3.9374,3.9667,3.9979,4.0402,3.9966,4.0248,4.0713,4.0704,4.0674,4.0664,4.0593,4.0364,4.0343,4.0446,4.0361,4.033,4.039,4.0281,4.0258,4.0098,3.4932,3.4664,3.3991,2.5266,2.2823,1.6107,-0.0328,-1.6144,-2.2322,-2.731,-2.8848,-3.1803,-3.4225,-3.5379,-3.6423,-3.6991,-3.7321,-3.7502,-3.7358,-3.7394,-3.741,-3.7377,-3.7324,-3.7344,-3.7269,-3.7305,-3.7488,-3.7826,-3.8384,-3.903,-4.0291,-4.0852,-4.1056,-4.1747,-4.1872,-4.1941,-4.1884,-4.1828,-4.1806,-4.1717,-4.1516,-4.1356,-4.1146,-4.0948,-4.0892,-4.0964,-4.1187,-4.1789,-4.237,-4.2465,-4.2348,-4.2654,-4.2876,-4.1693,-4.0538,-3.9761,-3.9091,-3.8574,-3.8319,-3.8632,-3.8202,-3.7382,3.5824,3.6208,3.5511,3.5184,3.5209,3.5345,3.5747,3.6362,3.7165,3.7395,3.722,3.7991,3.8407,3.8437,3.8652,3.9085,3.8897,3.9063,3.9117,3.8849,3.8859,3.8869,3.8812,3.8659,3.863,3.8608,3.8596,3.8584,3.8733,3.8621,3.8573,3.8517,3.8419,3.7914,3.8222,3.8823,3.995,3.9679,3.9999,4.0042,3.9931,3.9908,4.0038,3.9831,3.9762,3.9896,3.9952,3.9937,3.9849,3.994,3.9946,3.9971,3.9901,3.9752,3.9587,3.9548,3.8546,3.1898,1.8326,1.5132,-0.0207,-1.3146,-1.9773,-2.5752,-2.9561,-3.2099,-3.4966,-3.6534,-3.754,-3.8107,-3.8285,-3.8128,-3.8056,-3.8092,-3.8227,-3.8191,-3.799,-3.7959,-3.8168,-3.8318,-3.8825,-3.9228,-3.9922,-4.1082,-4.2258,-4.2501,-4.2752,-4.2729,-4.2652,-4.2573,-4.2449,-4.2418,-4.2302,-4.2074,-4.1778,-4.1534,-4.1328,-4.1117,-4.1206,-4.1308,-4.1594,-4.2132,-4.215,-4.2129,-4.219,-4.2048,-4.1437,-4.056,-3.9519,-3.8622,-3.7846,-3.7788,-3.7997,-3.7476,-3.6689,3.5242,3.5174,3.5089,3.5075,3.5073,3.5293,3.5245,3.5135,3.6566,3.6745,3.6051,3.7529,3.7958,3.7784,3.7616,3.7918,3.835,3.831,3.8277,3.8231,3.8245,3.8212,3.8096,3.7891,3.7873,3.8044,3.808,3.7928,3.8099,3.8013,3.7929,3.7755,3.7488,3.6973,3.7162,3.7933,3.8852,3.8545,3.8682,3.8575,3.8345,3.8644,3.8656,3.8554,3.8696,3.91,3.9282,3.9362,3.9377,3.9227,3.8989,3.8868,3.873,3.8552,3.8447,3.8395,3.8349,2.9509,2.1864,2.1789,1.5737,0.1455,-1.0008,-1.9281,-2.6073,-2.8741,-3.2512,-3.5618,-3.7309,-3.838,-3.9092,-3.8989,-3.8884,-3.9063,-3.9264,-3.9125,-3.8865,-3.8899,-3.9182,-3.9612,-4.0307,-4.1006,-4.1997,-4.3052,-4.3455,-4.3539,-4.3619,-4.3424,-4.3318,-4.3082,-4.2972,-4.2941,-4.281,-4.2519,-4.2239,-4.1973,-4.1578,-4.1346,-4.1388,-4.1503,-4.1749,-4.1783,-4.1732,-4.1654,-4.1498,-4.1158,-4.0626,-3.9869,-3.899,-3.8146,-3.7353,-3.7167,-3.7368,-3.6945,-3.631,3.4997,3.5019,3.5457,3.5623,3.5656,3.6028,3.5857,3.5475,3.6391,3.6541,3.6165,3.7156,3.7569,3.7344,3.7739,3.7929,3.7993,3.8016,3.7895,3.7791,3.765,3.756,3.7414,3.7228,3.717,3.7076,3.7114,3.719,3.719,3.7208,3.719,3.7097,3.6777,3.6471,3.6643,3.7273,3.6693,3.6461,3.6711,3.6925,3.6767,3.6925,3.7054,3.7377,3.754,3.805,3.8617,3.8738,3.8803,3.8841,3.8533,3.8446,3.8767,3.8356,3.8113,3.8412,3.7916,3.5193,3.1006,2.7588,2.2707,1.5403,0.4651,-0.6547,-1.5566,-2.3642,-2.8804,-3.2781,-3.6163,-3.7425,-3.8716,-3.9088,-3.9164,-3.9373,-3.9603,-3.9623,-3.9464,-3.9804,-4.0138,-4.1104,-4.1819,-4.2536,-4.3602,-4.4236,-4.4557,-4.4556,-4.4401,-4.4071,-4.3831,-4.3559,-4.3481,-4.345,-4.3353,-4.3105,-4.2734,-4.2444,-4.1948,-4.156,-4.1627,-4.1536,-4.1346,-4.134,-4.127,-4.1045,-4.0727,-4.0283,-3.9834,-3.9152,-3.8531,-3.782,-3.7121,-3.6905,-3.6588,-3.6231,-3.591,3.5229,3.5738,3.5741,3.5904,3.6199,3.6647,3.6479,3.6123,3.6683,3.6833,3.6732,3.7345,3.7585,3.7548,3.7747,3.7774,3.765,3.745,3.7321,3.717,3.7094,3.6843,3.6684,3.6539,3.6457,3.635,3.6291,3.6298,3.6316,3.613,3.6071,3.6121,3.6011,3.5779,3.5522,3.5044,3.426,3.4246,3.4547,3.5317,3.5377,3.5281,3.5734,3.6077,3.6258,3.7079,3.7881,3.8023,3.814,3.8172,3.7796,3.7695,3.7851,3.7486,3.6911,3.7074,3.7044,3.619,3.3516,3.1166,2.7817,2.3014,1.5665,0.5848,-0.5817,-1.5465,-2.3092,-2.9499,-3.321,-3.627,-3.7761,-3.9031,-3.9277,-3.9475,-3.9751,-4.0004,-4.0308,-4.0631,-4.1503,-4.2531,-4.3311,-4.3944,-4.4646,-4.524,-4.5291,-4.471,-4.4255,-4.3927,-4.3844,-4.3777,-4.383,-4.3887,-4.3849,-4.3707,-4.3334,-4.2904,-4.2444,-4.2048,-4.195,-4.1742,-4.1259,-4.0897,-4.0805,-4.0387,-3.9784,-3.946,-3.9235,-3.8795,-3.8228,-3.7554,-3.6926,-3.6531,-3.618,-3.5666,-3.5267,3.58,3.6953,3.6109,3.6181,3.6717,3.7144,3.7109,3.6827,3.7185,3.7301,3.7271,3.7639,3.7737,3.7471,3.7413,3.7319,3.7129,3.6878,3.6661,3.655,3.6249,3.602,3.5786,3.5722,3.5644,3.5742,3.5742,3.5537,3.5431,3.5295,3.5157,3.4985,3.4609,3.4379,3.4187,3.3663,3.3165,3.2956,3.3727,3.46,3.4062,3.4065,3.4347,3.4594,3.5209,3.6078,3.6923,3.7228,3.7208,3.7017,3.6764,3.6528,3.6094,3.5967,3.5374,3.514,3.5358,3.493,3.4252,3.2568,2.9289,2.5236,2.0701,1.3855,0.3969,-0.8472,-1.7306,-2.468,-2.8694,-3.2989,-3.5148,-3.741,-3.8447,-3.9121,-3.9686,-3.9973,-4.0296,-4.1124,-4.2565,-4.344,-4.3962,-4.4604,-4.5138,-4.5642,-4.5396,-4.4689,-4.428,-4.3987,-4.3982,-4.4064,-4.3988,-4.4185,-4.4261,-4.4165,-4.3836,-4.3403,-4.2978,-4.2677,-4.2361,-4.1904,-4.1291,-4.0846,-4.0367,-3.9689,-3.9027,-3.8906,-3.8622,-3.8138,-3.7638,-3.7309,-3.6685,-3.6189,-3.5733,-3.5344,-3.5082,3.6606,3.6969,3.6925,3.7131,3.7489,3.7589,3.7487,3.7308,3.7237,3.7038,3.6847,3.6967,3.6995,3.686,3.6816,3.6713,3.6632,3.6266,3.6054,3.5924,3.5705,3.5203,3.4908,3.4958,3.4864,3.456,3.4512,3.4673,3.456,3.4496,3.4399,3.4219,3.3869,3.3625,3.3448,3.3042,3.2708,3.2253,3.2498,3.2691,3.1851,3.1959,3.2252,3.3102,3.3998,3.4891,3.56,3.5985,3.6094,3.6069,3.548,3.4712,3.3712,3.386,3.3329,3.2814,3.3531,3.3439,3.2986,3.2664,3.0686,2.8218,2.4582,2.0396,1.2194,-0.0699,-1.0894,-1.795,-2.4044,-2.8456,-3.2675,-3.5187,-3.7565,-3.8505,-3.9461,-3.9766,-4.0115,-4.1763,-4.3366,-4.402,-4.4511,-4.5028,-4.5562,-4.5597,-4.5365,-4.5026,-4.4685,-4.4471,-4.4539,-4.4547,-4.4056,-4.4239,-4.4624,-4.4542,-4.4223,-4.3831,-4.3401,-4.2886,-4.2494,-4.1937,-4.13,-4.0574,-3.9827,-3.8956,-3.8332,-3.8229,-3.7916,-3.7204,-3.68,-3.6799,-3.6595,-3.6098,-3.5782,-3.5394,-3.5133,3.6997,3.7609,3.7551,3.7615,3.7755,3.7559,3.7376,3.7208,3.69,3.6557,3.6284,3.6492,3.6533,3.6249,3.6241,3.6156,3.6071,3.5688,3.5509,3.5391,3.4958,3.4577,3.4333,3.4169,3.402,3.3732,3.3594,3.3594,3.3543,3.3145,3.2955,3.2924,3.2886,3.2833,3.2725,3.2509,3.2315,3.1997,3.149,3.0794,3.0148,3.0766,3.1562,3.2476,3.3121,3.3914,3.4466,3.4885,3.504,3.5177,3.4922,3.4495,3.389,3.3856,3.3133,3.26,3.2633,3.2796,3.1982,3.1618,3.1351,2.8828,2.6969,2.2243,1.5779,0.3862,-0.1741,-0.8717,-1.6163,-2.1051,-2.7798,-3.1459,-3.4569,-3.6374,-3.7446,-3.8163,-3.9576,-4.1417,-4.2814,-4.385,-4.4448,-4.5148,-4.5546,-4.5682,-4.5297,-4.4451,-4.4246,-4.4409,-4.4598,-4.4943,-4.4484,-4.4364,-4.4842,-4.4909,-4.458,-4.4186,-4.3769,-4.3243,-4.268,-4.1853,-4.1157,-4.0136,-3.9206,-3.8678,-3.8132,-3.7689,-3.7272,-3.6785,-3.6616,-3.6662,-3.6396,-3.5988,-3.5718,-3.5444,-3.5133,3.7223,3.83,3.7928,3.7667,3.756,3.7208,3.69,3.6701,3.6367,3.6002,3.565,3.6156,3.6199,3.6011,3.582,3.5671,3.5386,3.4861,3.4752,3.4415,3.3935,3.3563,3.3355,3.3266,3.3161,3.2879,3.261,3.2351,3.2185,3.189,3.1705,3.1362,3.1261,3.1334,3.1233,3.1087,3.0997,3.0815,3.0419,3.0066,3.0117,3.0505,3.1401,3.2019,3.2504,3.2924,3.351,3.3772,3.3939,3.3822,3.3822,3.3212,3.2845,3.2562,3.2041,3.1429,3.164,3.1219,3.045,3.0258,2.9247,2.7769,2.6578,2.3028,1.676,1.1792,0.6276,0.0306,-0.7065,-1.5008,-2.1771,-2.7703,-3.0889,-3.4265,-3.5385,-3.7174,-3.9203,-4.0971,-4.2157,-4.3361,-4.4037,-4.4764,-4.5137,-4.5318,-4.4937,-4.4061,-4.3919,-4.4039,-4.4275,-4.4732,-4.4783,-4.4879,-4.5279,-4.5189,-4.4928,-4.4568,-4.4158,-4.3656,-4.3084,-4.1996,-4.1041,-4.0317,-3.9558,-3.8843,-3.8286,-3.7743,-3.727,-3.6923,-3.6739,-3.6585,-3.6289,-3.5988,-3.5846,-3.5524,-3.5133,3.7824,3.7703,3.7542,3.7132,3.662,3.6374,3.6139,3.5854,3.5783,3.5577,3.5412,3.5304,3.5304,3.5165,3.5118,3.488,3.4317,3.3937,3.3463,3.3045,3.2949,3.2571,3.2296,3.2351,3.2312,3.1946,3.1592,3.1289,3.1145,3.1013,3.0896,3.0629,3.0629,3.0584,3.0507,3.0447,3.0416,3.0271,3.03,3.0096,3.0013,3.0434,3.0952,3.1589,3.2121,3.2423,3.261,3.2321,3.221,3.2084,3.1926,3.1429,3.1127,3.0895,3.0305,3.0197,3.0352,3.023,2.9701,2.968,2.8824,2.8317,2.7245,2.6081,2.1328,1.8532,1.3529,0.9447,0.1538,-0.825,-1.5555,-2.2115,-2.6412,-3.0736,-3.3203,-3.6542,-3.9301,-4.0318,-4.1271,-4.2033,-4.2602,-4.331,-4.3924,-4.4145,-4.4364,-4.3972,-4.4491,-4.4627,-4.4979,-4.5079,-4.5099,-4.5371,-4.5669,-4.5572,-4.5342,-4.4988,-4.4575,-4.4101,-4.3428,-4.2239,-4.1331,-4.072,-4.0003,-3.9028,-3.8432,-3.7892,-3.7421,-3.7002,-3.6786,-3.6615,-3.6272,-3.5973,-3.5846,-3.5524,-3.5067]}]]